ECMWFNIL_925_thetae_000.txt.gz
Theta_e
319 318 317 318 318 318 318 318 318 318 318 318 318 317 317 316 315 316 316 316 314 313 312 312 312 311 311 312 311 311 311 310 311 310 308 308 308 307 306 302 303 309
320 319 317 317 318 318 317 318 317 317 318 318 318 318 318 316 315 316 316 315 314 313 313 312 311 310 311 311 310 310 311 311 311 310 310 310 308 308 307 303 303 308
321 320 318 316 317 318 317 317 318 317 316 318 318 318 319 318 316 316 317 316 315 314 313 313 312 312 311 311 311 311 311 311 311 311 312 311 310 310 309 306 306 307
321 320 319 318 317 318 317 317 318 317 316 317 318 319 319 319 316 317 317 316 316 316 315 313 313 312 312 311 312 312 311 312 311 311 311 310 311 311 309 308 308 307
321 321 321 320 319 319 319 317 318 319 317 316 318 320 321 320 317 317 318 317 317 317 316 314 314 312 312 311 311 312 311 311 311 311 312 311 310 309 308 309 309 308
322 322 322 321 321 321 321 319 318 319 318 317 318 320 322 320 318 318 318 317 318 318 317 316 314 313 312 312 312 312 311 311 310 311 312 310 309 308 309 309 310 309
322 322 321 320 320 321 321 320 318 318 318 318 318 319 321 321 319 319 319 317 318 319 318 317 315 314 313 312 313 312 312 312 311 310 311 310 310 309 308 309 309 308
321 321 321 320 320 321 321 320 318 318 319 319 318 319 320 321 320 320 319 318 318 318 318 318 316 315 314 313 314 313 312 313 311 309 310 310 310 309 308 308 308 307
321 320 322 321 320 320 320 319 319 319 319 319 318 319 320 320 319 319 319 318 318 318 318 318 317 316 315 313 314 314 313 313 311 310 310 310 310 309 309 309 308 307
323 323 323 323 322 320 321 320 320 320 321 320 318 318 319 320 319 318 319 318 318 318 318 319 318 317 316 314 314 313 314 313 312 310 310 310 310 309 309 309 309 309
327 326 325 324 323 323 322 321 321 320 320 320 320 320 320 320 319 319 319 319 319 319 318 319 318 317 316 315 314 314 314 313 312 311 310 310 310 309 309 309 308 308
326 326 326 323 322 322 322 321 320 320 320 319 320 320 320 318 317 318 319 318 318 319 319 318 318 318 317 316 315 314 314 313 312 311 311 310 310 310 309 308 308 307
321 322 323 323 321 319 319 319 319 319 319 319 320 319 318 318 317 317 316 317 317 318 319 318 318 319 318 317 316 314 314 313 312 312 311 311 311 310 309 308 307 307
314 313 316 320 320 317 315 317 319 319 318 319 319 319 318 318 318 317 316 317 318 318 319 319 318 319 318 318 316 315 314 314 313 312 312 311 311 310 309 308 307 306
311 312 314 317 319 318 316 317 318 318 317 318 319 319 319 319 318 319 318 317 317 318 319 319 319 319 319 318 317 316 315 314 313 312 312 312 311 310 308 307 306 305
312 312 312 313 314 316 316 316 316 316 315 316 316 316 315 316 317 319 319 318 317 319 320 319 319 319 319 318 317 316 315 314 313 312 312 312 311 309 307 306 304 304
310 310 309 310 311 312 312 314 314 315 314 315 315 315 315 315 317 319 319 318 318 318 319 318 318 319 319 318 317 316 315 314 313 313 312 311 310 308 306 305 304 303
309 308 309 309 310 310 310 311 312 313 314 314 315 316 316 316 316 317 318 319 319 320 319 319 319 318 318 318 318 316 315 314 313 313 312 310 308 307 305 305 304 304
308 308 309 309 309 309 309 309 309 311 312 314 315 315 315 314 315 316 316 318 321 321 321 320 320 319 318 318 317 315 314 314 313 311 309 308 306 305 305 304 304 303
308 309 309 309 309 309 309 308 309 309 311 313 315 314 314 314 315 316 315 317 319 320 319 319 319 318 317 317 316 314 313 312 311 308 307 306 305 304 304 304 303 302
309 309 308 308 308 308 308 308 308 309 309 311 314 314 314 313 314 315 316 317 319 319 317 317 316 316 315 314 313 312 311 310 308 307 306 305 305 304 304 303 303 302
308 309 308 308 308 308 308 308 308 308 309 310 312 314 314 313 313 314 315 317 318 318 316 315 314 312 311 310 310 310 309 308 307 306 305 304 304 303 303 302 302 302
309 308 308 308 308 307 308 307 307 308 308 309 311 312 313 313 313 313 314 315 317 317 315 314 313 310 308 308 309 308 307 305 304 304 303 303 303 303 303 302 302 302
308 308 308 308 308 308 308 307 307 307 308 308 310 311 312 313 313 313 313 314 315 315 314 313 312 309 307 307 307 307 305 303 302 301 302 302 302 303 303 303 302 301
306 307 307 308 308 308 308 308 308 308 308 308 309 311 312 312 312 312 313 314 314 313 312 312 311 309 306 306 306 305 303 301 300 300 300 301 301 301 302 302 301 301
306 306 307 307 308 309 309 309 308 308 307 308 308 310 311 311 311 313 313 311 311 310 309 309 310 308 305 302 299 298 298 298 298 299 299 300 300 301 301 301 300 300

ECMWFNIL_925_thetae_003.txt.gz
Theta_e
317 318 318 317 317 318 319 318 318 317 317 316 315 314 314 313 313 314 314 313 311 309 309 311 312 312 311 310 309 308 309 308 304 301 300 299 299 299 302 306 307 306
317 318 318 317 318 318 318 318 318 318 317 317 316 315 314 313 314 315 315 314 310 308 308 308 311 312 311 311 310 309 308 307 306 306 304 302 301 300 303 307 308 307
317 318 318 317 318 318 317 318 318 317 317 317 316 316 315 314 315 316 315 313 311 309 308 306 308 311 310 311 309 308 308 309 311 312 310 307 306 303 303 306 307 308
318 319 318 318 318 318 318 317 318 318 317 317 316 316 316 314 315 316 315 314 312 311 308 307 310 311 310 310 310 309 309 311 312 312 311 310 310 307 304 303 305 308
318 318 318 318 318 317 317 317 317 318 318 318 317 317 317 315 315 316 316 315 314 312 310 309 311 312 311 310 311 311 310 311 311 309 309 310 310 309 306 304 304 306
319 317 317 318 318 317 317 318 316 317 318 318 318 318 317 316 316 316 316 315 315 315 313 312 312 312 311 310 311 311 310 311 310 309 310 310 309 308 307 306 306 306
322 320 318 319 319 317 318 318 316 316 317 318 318 318 318 318 317 316 316 315 315 316 316 314 313 312 312 310 311 312 311 311 310 310 312 311 309 308 307 307 308 308
323 322 321 321 320 317 317 319 318 317 318 318 319 319 319 319 318 317 317 316 316 316 316 316 314 313 313 311 311 312 311 311 311 310 311 311 309 309 309 308 307 308
322 321 320 321 321 319 318 319 319 318 320 321 320 320 319 319 318 318 318 317 316 317 317 318 317 315 314 312 311 312 312 311 311 311 310 310 310 310 309 308 307 307
321 321 320 319 319 320 319 319 318 318 320 321 321 321 319 319 319 318 318 317 317 318 318 318 318 316 315 314 312 312 313 312 312 312 310 309 310 310 309 308 308 308
320 320 320 320 320 320 320 319 319 319 319 319 320 321 320 319 319 319 319 319 318 319 319 319 319 318 317 316 314 313 313 313 313 312 311 309 310 310 309 308 309 309
322 323 323 323 321 321 320 320 320 319 319 319 319 319 319 319 319 319 319 319 319 319 319 318 319 319 318 317 316 314 313 313 313 313 312 310 309 310 310 309 309 309
324 323 323 323 323 322 321 321 320 320 320 319 319 318 318 318 318 318 318 318 317 316 315 315 316 317 318 318 317 316 314 314 313 313 313 311 310 310 310 309 309 308
320 320 318 319 320 319 319 319 319 319 319 319 319 319 318 317 317 317 317 317 316 313 313 313 314 315 316 317 318 317 316 314 313 313 313 312 311 310 310 309 309 308
316 317 315 316 316 316 316 317 318 317 317 317 318 318 318 318 317 317 316 316 316 314 314 315 316 315 316 316 318 318 317 316 314 314 313 312 311 311 310 309 309 308
313 314 314 314 316 317 316 315 315 315 314 316 316 316 316 316 315 315 316 316 316 316 316 316 317 317 316 317 318 319 317 316 315 314 313 312 311 311 310 309 308 307
312 312 313 314 315 315 314 313 315 315 315 315 315 314 314 315 314 314 314 315 316 316 316 316 317 318 318 317 319 319 318 317 316 314 313 312 312 311 310 309 308 307
310 310 311 312 311 311 311 312 313 314 314 315 316 316 316 316 316 316 314 314 316 316 316 316 317 318 318 318 318 319 319 317 316 314 313 312 312 312 311 309 308 307
308 309 309 309 309 309 309 309 310 310 311 313 315 316 316 316 315 316 316 316 317 318 319 319 319 319 319 319 319 319 318 317 315 314 313 313 312 312 311 309 308 307
308 309 309 308 309 309 308 308 309 309 309 311 312 314 314 314 314 314 315 316 317 317 319 320 320 320 320 320 320 319 318 316 314 314 313 312 311 310 309 307 306 305
309 309 308 308 308 308 308 308 308 308 308 309 311 313 314 313 313 313 314 315 315 315 316 317 318 318 318 318 318 318 316 314 313 313 312 310 308 307 306 305 304 304
309 308 308 307 307 308 307 307 308 308 308 309 310 311 313 313 313 312 313 315 315 315 315 316 316 316 316 314 314 314 313 311 311 310 308 307 307 306 305 304 304 304
308 308 308 307 307 307 307 307 307 307 307 308 309 310 311 312 312 312 313 315 316 316 316 316 316 315 312 311 310 311 310 308 308 307 305 305 305 304 304 304 304 303
308 308 308 308 307 307 307 307 307 307 306 307 307 308 309 310 312 313 313 313 314 315 316 316 315 313 311 309 309 309 308 307 306 305 303 303 303 303 303 303 303 303
307 307 308 308 308 307 307 307 307 307 307 307 307 307 308 310 312 313 313 313 313 314 314 314 314 313 310 309 308 307 308 307 305 303 302 302 302 302 302 302 302 302
305 306 306 307 307 307 307 308 308 308 308 307 307 307 307 309 311 312 312 313 313 313 313 313 313 312 310 308 306 305 306 305 304 302 301 301 300 300 299 299 300 301

ECMWFNIL_925_thetae_006.txt.gz
Theta_e
320 319 318 317 317 318 319 317 314 312 311 309 309 308 308 308 308 309 309 310 312 312 310 310 310 309 307 304 303 302 301 300 300 300 300 301 304 306 306 306 304 303
319 318 318 317 317 319 319 317 314 313 312 310 309 309 309 310 311 310 309 309 310 310 311 312 311 310 309 307 305 303 301 302 302 301 300 300 301 303 305 306 305 303
319 318 318 316 317 319 319 317 316 315 313 311 311 311 310 311 312 312 310 307 307 309 311 312 312 311 311 309 306 304 305 307 307 306 304 302 301 302 304 306 307 307
319 318 317 316 316 318 319 318 316 315 314 313 313 312 312 312 313 313 312 308 305 306 309 311 311 310 310 310 307 306 308 310 310 310 308 305 304 303 302 304 306 307
318 318 317 316 316 317 318 318 317 316 315 314 314 313 313 313 313 314 313 310 307 305 306 309 310 310 309 310 308 308 309 311 311 311 309 306 306 305 304 303 304 306
319 318 317 317 317 317 318 317 317 317 316 315 315 314 314 314 314 314 313 312 309 307 306 308 310 311 310 310 310 310 309 310 311 309 308 308 308 307 306 305 305 305
320 319 317 317 317 316 317 317 317 318 316 316 315 315 315 315 314 314 313 312 312 311 309 308 309 311 311 310 311 311 310 310 310 309 309 310 310 308 307 306 307 306
320 319 317 317 317 317 317 317 317 318 317 316 316 315 315 316 315 314 314 314 313 314 313 311 310 310 311 310 310 311 311 310 310 310 309 310 311 310 308 308 307 307
320 319 319 318 317 317 318 317 318 318 317 317 316 316 315 316 316 315 314 315 315 315 315 314 313 311 312 312 310 310 311 311 310 310 310 310 311 310 309 309 308 307
321 319 319 319 318 318 318 318 317 317 318 317 316 316 316 316 316 315 315 316 315 316 315 315 315 314 313 314 313 311 311 311 311 311 310 310 310 310 310 309 309 308
321 320 320 320 319 320 320 319 319 318 318 318 317 316 316 316 316 316 316 316 315 316 316 316 317 316 315 315 315 315 313 312 312 311 311 311 310 310 310 309 310 309
321 320 320 319 319 319 319 319 320 320 320 319 317 317 317 316 316 317 316 316 316 316 317 317 317 317 317 316 316 315 315 314 312 312 312 312 311 311 310 309 310 309
321 321 320 320 319 319 319 319 320 321 320 318 318 317 317 317 317 317 317 317 317 317 317 318 318 318 318 318 317 316 315 314 313 313 312 312 312 312 311 309 309 309
318 319 320 319 319 319 319 319 319 319 319 319 318 318 318 318 318 318 318 318 317 318 318 318 319 318 317 316 317 317 317 316 316 314 313 313 312 313 312 310 309 309
316 317 318 318 318 319 319 319 319 318 319 319 318 318 317 318 318 317 317 317 318 318 318 318 317 315 314 313 314 316 316 316 316 316 315 314 313 313 312 310 310 309
319 319 318 318 318 318 317 318 319 318 318 318 317 317 317 316 317 317 317 317 317 317 317 317 316 314 313 313 314 315 315 315 315 316 317 316 314 313 313 311 310 310
317 318 318 318 317 317 317 318 317 316 315 314 315 315 315 315 317 318 318 317 316 317 316 316 316 316 316 316 316 316 316 316 316 317 317 317 315 314 313 311 310 309
313 315 316 316 316 316 315 316 316 314 313 313 314 315 315 315 316 316 316 316 316 315 315 315 316 316 317 317 317 317 317 318 318 318 318 317 316 313 312 311 310 309
313 315 315 314 314 314 312 313 313 313 313 314 314 315 315 315 315 314 315 315 315 315 316 316 317 318 319 319 319 319 319 318 319 319 318 317 315 314 312 312 310 309
312 313 312 311 310 309 309 310 310 310 311 312 313 314 314 314 314 314 315 315 316 316 317 316 316 317 317 316 316 317 318 318 319 319 317 316 314 313 313 312 310 308
310 310 309 308 308 308 307 308 308 308 309 309 311 312 313 313 313 313 313 314 315 316 315 315 314 314 313 312 311 313 316 317 317 317 315 313 312 312 312 311 309 307
308 308 308 308 307 306 306 307 308 308 308 309 309 311 312 313 313 312 312 313 314 315 315 314 314 314 312 311 311 313 314 315 315 315 313 312 311 311 310 309 307 306
308 308 308 307 306 305 305 307 307 307 307 308 308 309 310 310 311 312 312 311 313 314 315 315 315 314 313 312 312 312 312 312 312 312 311 309 308 307 307 306 304 304
308 308 307 307 306 306 306 307 307 306 306 306 307 307 308 308 309 310 312 311 312 314 315 315 315 314 313 312 312 311 311 310 310 309 307 306 305 305 304 304 303 303
308 308 307 307 307 306 306 306 307 306 306 306 306 307 307 307 307 308 311 312 312 313 314 314 314 313 312 312 311 310 309 309 308 307 306 304 304 304 304 303 303 303
306 307 307 308 307 307 307 307 306 307 306 306 306 306 305 305 306 308 311 312 313 313 313 313 313 312 311 311 310 309 308 307 307 306 305 303 303 303 303 303 303 302

ECMWFNIL_925_thetae_009.txt.gz
Theta_e
317 318 318 317 314 313 313 315 316 313 311 311 310 311 312 312 311 310 308 308 308 307 307 306 305 303 302 301 301 303 304 304 303 303 303 304 305 306 306 304 303 302
318 318 318 317 315 313 310 310 311 310 308 308 308 309 310 310 310 309 308 309 309 308 308 307 305 302 301 301 302 301 301 301 301 301 300 302 303 304 303 301 301 301
318 319 319 317 315 314 311 309 309 308 307 307 308 308 308 309 309 309 308 309 310 309 310 309 307 306 304 303 303 302 302 302 301 300 301 301 302 303 303 302 303 304
318 319 319 317 316 314 312 311 311 310 308 308 308 308 308 308 309 308 308 309 309 310 310 311 310 309 307 304 302 304 305 304 304 303 302 302 302 302 303 304 305 305
317 318 319 317 317 315 314 313 313 312 310 309 308 308 308 309 310 308 308 308 308 309 311 311 311 310 309 306 304 306 308 308 308 307 304 303 303 303 303 304 305 305
316 317 318 318 317 316 315 314 314 314 312 310 310 309 309 310 311 310 308 307 308 309 311 311 311 310 309 307 306 307 309 309 309 309 306 305 306 305 304 304 304 305
318 317 318 318 318 317 315 314 314 315 315 313 311 310 310 311 312 312 309 306 307 309 310 311 310 310 309 308 309 309 309 309 309 308 307 307 308 308 306 305 305 306
320 320 319 318 317 317 317 316 315 316 316 315 313 312 312 312 312 313 312 308 306 307 309 309 309 309 309 308 309 310 310 309 309 309 308 309 310 309 309 307 306 306
319 319 319 318 317 317 317 317 317 316 316 316 315 313 312 312 313 313 313 311 307 305 306 308 309 309 310 309 309 310 310 310 310 309 309 309 309 310 310 309 308 307
318 319 320 319 317 317 317 318 318 317 317 317 316 315 313 313 313 313 314 313 311 308 307 307 309 309 311 310 309 310 310 310 310 310 310 309 309 309 310 309 309 308
319 320 321 319 317 316 317 317 317 317 317 316 316 315 314 313 314 314 314 314 313 312 310 310 310 311 311 311 311 310 310 310 311 311 310 310 310 310 310 310 310 309
319 320 319 318 317 317 317 317 317 317 317 317 316 315 314 314 314 315 315 314 314 313 313 313 312 312 312 312 312 312 311 311 310 311 311 311 311 310 311 310 310 310
319 319 319 318 318 318 318 318 318 317 317 317 317 316 315 314 315 315 315 315 315 314 314 314 314 314 314 314 314 314 313 312 311 311 311 311 311 311 311 311 310 310
319 319 318 318 318 318 318 318 318 318 318 317 317 317 316 316 315 315 315 315 315 315 315 315 315 315 316 316 316 316 316 315 314 313 312 312 312 312 312 311 311 311
319 319 318 318 318 318 318 318 318 318 318 318 318 318 317 315 316 316 316 315 316 316 316 316 317 317 317 317 317 317 316 316 316 316 316 315 315 315 315 313 312 311
319 319 318 318 318 318 318 318 317 316 316 317 317 317 316 315 316 317 316 316 316 316 316 316 317 317 317 316 316 315 314 315 316 316 316 316 316 316 316 316 314 313
318 318 318 318 319 318 318 317 316 316 317 317 318 317 316 317 317 317 316 316 316 316 316 317 317 317 316 315 316 316 315 316 316 317 317 316 316 316 316 316 316 315
318 318 318 318 319 318 318 316 316 317 318 318 318 318 318 318 317 317 317 316 316 316 316 317 317 316 316 317 317 317 317 317 318 318 318 318 318 317 317 317 316 315
318 319 319 319 319 318 318 317 317 318 318 318 318 318 317 317 316 316 316 316 316 316 316 317 316 317 318 317 315 313 312 312 313 315 317 318 318 318 318 317 316 315
317 318 318 317 317 317 317 317 317 317 317 316 316 316 315 315 315 316 316 316 316 316 316 317 317 317 316 313 311 309 307 306 309 313 316 317 318 317 316 315 314 313
314 315 315 316 316 316 316 316 316 316 315 314 314 314 314 314 315 315 315 315 315 315 316 316 316 315 314 312 311 309 306 307 310 313 315 316 316 315 314 313 312 311
313 314 314 314 314 313 313 312 312 312 311 311 312 313 313 313 313 312 312 312 313 314 314 315 314 314 313 313 312 310 307 308 312 313 314 314 313 312 312 311 311 309
313 312 310 310 309 308 308 308 308 308 308 308 309 310 311 311 311 311 312 311 312 312 312 313 313 314 313 312 312 310 308 309 311 312 312 311 310 310 309 310 309 307
310 309 308 307 307 306 306 307 307 307 307 306 307 307 308 308 309 309 310 311 311 311 312 313 313 313 313 312 311 311 309 309 310 310 310 309 308 307 307 306 306 304
308 308 307 307 306 305 304 305 306 306 306 305 306 306 307 307 307 308 308 309 311 312 312 313 314 313 312 312 311 310 309 309 309 309 308 307 306 305 305 304 303 303
306 307 307 307 307 306 305 304 305 306 306 305 305 306 306 306 306 306 306 308 311 312 313 314 313 312 311 310 309 309 309 308 307 307 307 306 305 304 304 303 303 302

ECMWFNIL_925_thetae_012.txt.gz
Theta_e
319 318 316 314 313 311 313 315 316 316 316 315 315 313 313 312 312 312 310 310 313 315 314 313 312 311 311 312 313 314 313 310 307 307 307 307 307 306 304 303 302 302
318 316 315 315 314 312 312 315 316 316 316 315 314 313 312 312 312 310 307 307 308 308 306 305 304 303 304 305 307 308 306 303 303 303 304 304 304 302 300 300 300 300
318 316 316 316 316 313 312 314 315 315 315 313 312 313 313 312 311 309 307 307 307 305 304 302 300 300 302 302 303 303 303 302 302 302 302 302 302 301 300 301 301 301
318 317 315 314 316 315 313 314 313 314 315 312 311 312 312 311 310 309 309 309 308 307 306 303 301 302 302 302 302 303 303 303 302 302 302 303 302 302 302 302 303 303
318 318 314 312 315 317 315 314 312 312 313 311 310 310 311 311 310 310 310 310 309 309 308 306 304 303 302 302 303 303 303 302 302 302 302 302 303 303 303 303 303 304
315 317 316 314 315 317 316 315 313 311 311 310 309 309 309 310 310 310 311 310 310 309 310 309 308 306 303 302 304 305 304 304 303 302 302 303 303 304 304 304 302 303
313 314 316 316 317 317 317 315 314 313 311 310 309 309 309 308 309 310 311 311 310 310 311 311 310 309 306 304 306 307 308 308 307 305 304 304 304 304 304 304 304 304
314 314 315 317 318 318 318 316 315 315 314 313 311 310 309 308 309 310 310 311 310 310 311 311 310 310 309 307 307 308 309 309 308 307 307 306 307 306 305 305 305 305
314 315 316 317 318 317 318 318 317 317 315 314 313 312 311 309 309 310 311 311 310 309 310 311 311 310 310 308 308 308 309 309 309 309 308 308 308 309 308 306 306 306
314 315 316 317 317 317 318 318 317 317 317 315 314 314 313 311 310 311 312 312 311 309 309 309 310 310 310 309 308 309 309 309 310 310 309 309 309 309 309 308 308 307
314 315 316 316 317 317 318 317 317 317 317 316 315 314 314 313 312 311 312 313 313 311 309 309 309 309 310 310 309 310 310 310 310 310 310 310 310 309 309 309 309 309
315 315 316 317 318 318 318 317 317 317 317 317 315 314 314 313 313 313 312 313 313 312 312 311 310 309 309 310 310 311 310 310 310 310 310 310 310 310 310 310 310 310
317 316 316 317 317 317 318 317 316 317 317 316 316 315 315 314 314 314 313 314 313 313 313 313 313 313 312 312 312 312 311 311 311 310 310 310 311 311 310 311 311 311
318 317 317 317 316 316 317 317 316 317 316 316 316 316 316 316 316 315 314 314 314 314 314 314 314 314 315 315 315 314 314 314 313 312 313 312 312 312 312 312 312 312
318 318 317 317 317 317 317 317 316 316 316 316 316 315 315 316 317 316 315 316 316 315 315 316 315 315 314 314 315 316 316 316 316 315 315 315 315 315 315 314 314 314
319 319 318 318 318 318 317 317 317 317 317 316 315 315 315 316 317 316 316 317 316 315 315 316 315 315 313 313 314 316 316 316 315 315 315 314 314 315 316 316 316 316
319 318 318 318 318 318 318 318 318 317 317 316 316 316 315 316 317 316 316 316 315 313 315 315 315 315 314 313 314 316 316 316 317 317 316 316 316 317 317 317 317 317
318 318 318 318 318 318 318 317 317 317 317 317 317 316 316 317 317 316 316 315 314 314 314 315 316 315 314 314 316 316 316 315 314 314 316 316 317 317 318 318 318 318
318 318 318 318 318 318 318 317 317 317 317 317 316 316 316 317 317 316 315 315 314 314 315 316 316 315 315 316 316 315 312 309 309 311 313 315 316 316 317 317 317 317
318 318 318 318 317 317 317 317 317 317 316 316 316 317 317 317 317 316 316 316 315 315 316 316 316 315 316 316 315 311 308 306 307 311 313 313 314 315 315 315 314 314
317 317 317 317 317 317 317 317 317 316 316 317 317 317 317 317 317 317 317 317 316 316 316 316 316 316 316 314 312 310 308 305 306 308 309 310 311 312 312 313 312 312
314 314 315 316 316 317 317 317 317 316 317 317 317 317 317 317 316 316 316 316 316 316 316 316 316 316 315 312 311 310 309 307 306 307 307 308 310 310 310 311 311 311
310 312 313 314 316 316 316 316 316 317 317 316 316 316 315 315 314 314 314 314 315 315 315 315 316 315 313 312 311 310 309 308 308 307 307 308 309 309 309 309 309 309
308 311 312 313 314 315 314 314 314 314 313 313 313 313 313 312 313 312 312 313 313 313 314 315 314 313 312 312 311 310 309 309 308 308 308 308 308 308 308 307 306 306
307 309 310 310 311 311 310 310 310 309 308 309 309 310 310 309 310 310 311 311 312 312 312 313 313 313 312 312 311 310 309 309 308 308 308 308 307 307 306 305 304 303
306 308 308 307 307 307 307 307 306 306 306 306 307 307 307 307 307 307 308 310 311 311 312 313 313 312 312 311 310 309 309 308 308 307 307 307 306 305 304 303 303 302

ECMWFNIL_925_thetae_015.txt.gz
Theta_e
321 320 320 317 315 314 314 314 315 315 315 314 314 315 316 315 313 313 314 316 318 318 318 317 316 317 317 316 315 315 314 312 311 312 312 311 311 309 307 306 305 303
320 319 318 316 315 315 315 315 315 315 315 315 314 314 313 312 311 311 311 315 317 316 316 315 314 314 314 313 313 313 310 308 308 308 307 306 304 303 302 301 301 300
319 317 316 316 315 315 314 314 316 316 315 315 314 313 312 311 311 309 308 311 312 311 311 310 309 310 310 311 310 308 306 305 306 305 303 302 300 300 299 300 300 300
318 317 316 316 316 316 313 312 314 316 316 315 313 313 312 311 311 309 307 308 308 308 306 303 302 303 305 306 305 303 303 304 304 303 301 301 301 301 301 301 301 303
318 317 315 313 313 314 312 310 313 316 316 314 312 311 312 312 311 309 308 308 308 307 305 302 301 300 301 301 301 301 302 303 303 303 303 304 304 303 303 304 304 305
317 316 313 310 311 312 312 313 315 316 316 314 311 309 310 311 311 310 309 309 309 308 307 306 305 302 300 301 302 302 302 302 303 303 304 305 305 304 304 305 306 306
317 317 313 312 312 312 313 316 317 316 316 315 312 309 308 309 310 310 310 310 310 309 310 310 309 306 304 304 305 306 305 305 303 303 304 304 305 304 304 304 305 306
318 316 315 313 313 312 314 316 316 316 317 316 314 310 308 308 308 309 310 311 311 310 310 311 311 310 307 306 307 308 309 309 307 306 305 305 305 305 304 304 305 305
316 316 315 315 314 313 315 316 316 316 317 317 315 312 310 309 309 308 310 311 311 310 310 311 311 311 310 308 308 308 309 310 309 308 308 308 308 307 306 305 306 306
316 315 315 315 314 314 315 316 317 317 317 317 316 313 311 311 310 309 309 311 311 310 310 311 311 311 311 310 309 308 308 309 309 310 309 309 309 309 308 308 307 307
316 315 315 314 314 314 315 317 317 317 317 317 317 315 313 312 311 310 310 311 311 311 310 310 310 310 310 310 310 309 309 309 309 310 310 310 309 310 309 309 309 308
316 315 314 314 314 315 316 316 317 317 317 317 317 317 314 313 312 311 311 311 312 312 311 310 310 310 310 310 311 311 312 311 311 311 311 311 310 310 310 310 310 310
316 315 314 314 314 315 315 316 316 317 317 317 317 317 315 314 313 312 312 312 313 313 312 313 313 313 312 312 313 314 314 314 314 314 314 313 313 312 312 312 311 311
317 316 315 314 314 314 315 316 316 317 317 317 317 316 316 315 314 313 313 313 313 313 313 314 314 313 314 314 314 314 315 315 315 316 316 316 316 316 315 315 315 314
318 317 316 315 315 315 315 316 316 316 317 317 317 316 316 315 315 314 314 314 314 314 314 314 314 314 314 314 314 314 313 314 315 316 316 316 316 316 316 314 314 315
318 318 317 316 316 316 317 316 316 316 316 316 316 316 316 316 315 315 315 315 315 315 315 315 315 315 314 313 314 313 312 313 314 315 316 316 316 316 316 314 314 315
318 318 317 317 317 317 317 317 316 316 315 316 316 316 316 316 315 315 315 315 315 315 315 316 316 315 314 313 313 314 313 312 313 315 316 317 317 317 317 317 317 317
318 318 318 318 318 318 317 317 316 316 316 316 316 316 316 315 315 316 316 315 315 314 315 316 316 314 313 313 314 315 314 314 315 316 314 314 315 316 316 317 317 317
318 318 318 318 318 318 318 317 317 316 316 316 316 316 315 315 315 315 315 315 315 314 315 316 316 314 313 314 315 315 315 315 314 311 308 309 312 314 315 315 315 315
317 317 317 318 317 317 317 317 317 316 316 316 316 316 315 315 315 314 314 315 314 315 316 316 315 314 313 314 315 316 315 312 309 307 308 311 312 312 313 313 313 314
315 316 317 317 317 317 317 317 317 316 316 316 316 316 315 315 315 315 315 315 315 316 316 315 314 314 314 315 316 315 311 307 306 307 309 309 310 310 310 311 311 312
311 313 315 316 317 317 317 317 317 316 316 316 315 315 315 315 315 315 316 316 316 316 315 315 315 315 315 316 315 311 308 306 306 307 307 308 309 309 309 309 309 309
306 308 311 313 314 315 316 316 317 316 316 316 315 315 315 315 315 316 316 317 316 315 315 316 315 316 316 315 312 309 307 307 307 308 307 308 309 308 308 308 307 308
304 305 308 311 312 313 314 315 316 316 316 316 315 315 315 315 315 315 316 316 315 315 315 315 315 316 315 313 310 309 308 308 308 308 308 308 308 307 307 306 305 305
303 303 305 308 311 313 314 314 315 316 316 316 316 316 316 315 314 314 314 314 314 315 315 315 316 315 313 311 310 310 309 308 308 308 308 308 307 306 305 304 304 303
302 303 304 305 308 311 313 314 314 314 315 315 315 314 314 313 313 312 313 313 314 315 315 315 315 313 312 311 311 310 309 309 308 308 308 308 306 305 303 303 302 302

ECMWFNIL_925_thetae_018.txt.gz
Theta_e
324 324 325 325 324 322 321 320 319 319 318 319 321 321 320 320 320 320 320 321 321 320 321 321 321 321 320 320 320 319 320 321 321 321 320 318 318 318 317 317 315 313
321 322 324 325 323 321 321 320 320 320 320 320 320 320 319 319 319 319 320 319 319 318 318 318 319 320 319 319 319 317 317 317 316 316 316 315 315 315 315 314 314 312
321 322 322 323 321 318 317 317 316 317 318 320 320 319 318 318 317 316 317 318 316 316 315 315 316 317 316 316 315 314 313 313 313 313 313 313 313 313 313 313 313 313
321 321 321 319 316 312 312 313 312 312 314 317 319 317 317 317 316 314 315 315 314 312 311 312 314 314 313 313 312 311 311 311 311 311 311 311 311 311 311 312 313 313
320 321 320 318 313 311 310 311 310 308 309 313 316 316 316 317 316 314 314 314 312 310 309 309 311 312 311 311 310 310 309 309 309 309 309 310 310 311 312 312 314 314
320 320 320 317 314 313 311 311 312 308 306 309 313 314 315 316 315 315 314 313 312 310 310 309 309 309 310 310 310 310 309 309 310 310 310 310 311 311 312 312 313 314
320 319 318 316 314 313 311 314 316 312 308 310 312 314 316 316 315 315 314 313 312 311 311 311 309 309 310 310 310 310 310 310 311 311 310 311 311 311 312 312 313 313
320 319 318 318 316 314 314 317 318 315 313 314 314 315 316 316 314 315 315 314 313 313 313 313 311 310 311 311 311 311 311 311 311 311 311 311 311 311 311 312 312 311
320 321 319 319 319 318 319 320 319 318 317 316 316 316 316 316 316 315 314 315 314 314 314 314 313 313 313 313 313 313 313 313 313 312 313 313 313 312 311 311 312 312
322 322 320 320 321 321 322 322 320 320 319 318 319 317 316 317 317 315 314 315 314 314 314 315 315 314 314 314 314 314 315 315 315 314 315 314 314 314 313 313 313 313
324 323 322 322 322 322 323 323 321 321 320 320 320 319 317 317 317 316 315 315 314 314 314 314 315 315 314 314 314 315 315 315 315 315 315 315 315 315 314 314 314 314
324 323 323 322 322 323 323 322 322 321 321 321 320 320 319 317 316 316 316 315 315 314 313 313 314 314 314 315 315 315 316 316 317 317 317 317 316 316 315 315 315 315
324 324 323 323 323 323 323 323 322 322 321 321 321 321 320 319 317 317 316 316 315 314 314 314 313 314 315 316 317 318 318 319 319 320 319 319 319 318 317 317 316 316
324 324 324 323 323 324 323 322 322 322 321 321 321 321 320 320 319 318 317 317 317 316 316 316 316 316 317 317 318 319 319 319 320 321 320 320 320 319 319 319 318 318
324 324 324 324 323 323 323 322 322 322 322 321 321 321 321 320 320 319 318 318 319 318 318 319 319 320 319 319 319 318 318 317 317 317 317 318 319 320 319 319 318 319
324 324 324 324 323 322 322 322 322 322 322 321 321 321 321 320 320 320 319 319 319 320 320 320 320 319 318 316 316 317 315 315 315 315 315 316 319 320 320 319 319 319
323 323 323 323 323 323 323 323 322 322 322 321 321 321 321 321 320 320 320 319 319 320 320 318 316 315 315 315 315 315 314 313 313 314 314 316 318 320 321 321 320 320
322 322 322 322 323 322 322 322 322 322 322 321 320 321 321 321 320 320 320 319 320 320 318 315 314 315 315 315 315 315 314 313 313 314 316 317 319 319 319 318 318 319
321 321 321 321 322 321 321 321 321 321 321 321 321 321 321 320 319 320 320 317 316 316 315 315 315 315 314 314 314 315 314 313 315 317 318 318 318 317 317 316 316 317
320 321 321 321 321 320 320 321 321 321 321 321 321 321 320 320 319 320 319 317 315 315 315 315 316 316 315 313 314 315 314 314 317 318 318 317 317 316 315 315 315 315
316 318 319 320 321 320 320 320 320 321 321 321 321 320 320 320 320 319 319 318 317 317 317 318 317 318 317 315 314 314 314 315 316 316 315 315 315 313 313 313 314 314
310 312 315 317 319 320 320 320 320 321 320 320 321 320 320 320 319 319 319 318 319 319 319 319 319 319 318 316 315 314 314 315 315 314 313 314 313 312 312 312 312 312
308 309 310 313 315 317 318 319 320 320 320 320 320 320 320 319 318 319 318 318 319 319 319 318 318 318 317 316 315 314 315 315 314 312 312 313 312 311 311 309 309 310
308 308 309 310 312 314 316 317 318 319 320 320 320 320 319 319 319 318 318 318 318 317 318 317 317 317 316 315 315 315 314 313 312 312 312 311 311 310 308 307 307 307
306 307 308 309 309 311 313 315 317 318 319 319 319 320 319 319 319 318 317 316 315 315 316 316 316 315 314 314 316 315 313 311 311 312 311 310 310 309 307 305 305 305
305 306 307 308 308 309 311 313 314 316 318 318 318 319 319 319 318 318 317 316 315 314 315 315 315 313 313 315 315 312 310 311 311 311 311 310 309 308 307 305 304 303

ECMWFNIL_925_thetae_021.txt.gz
Theta_e
327 330 329 327 325 322 321 321 320 320 321 322 323 323 322 322 322 323 323 323 323 323 323 323 324 323 323 322 322 322 323 324 323 322 321 321 321 320 319 317 316 313
327 330 329 327 324 321 321 321 320 321 321 322 322 321 321 320 321 321 321 320 320 321 322 322 322 322 322 321 321 321 321 320 318 318 317 317 317 317 316 315 314 313
329 330 328 327 324 322 322 322 322 323 323 322 322 320 320 319 320 320 319 318 318 318 319 320 320 320 319 319 318 317 317 317 316 316 315 315 315 315 315 315 315 315
330 329 328 328 324 321 321 321 322 323 322 321 320 319 319 318 318 319 318 316 316 316 317 317 317 316 315 315 315 314 314 314 314 314 314 314 314 314 315 316 316 316
330 329 329 327 322 320 319 317 318 318 320 321 320 318 317 316 315 315 315 314 313 314 315 315 315 314 313 313 312 312 312 312 312 312 313 314 314 315 316 317 317 317
329 329 328 324 320 319 318 318 317 317 319 321 319 317 317 315 314 314 314 313 312 312 313 313 313 313 312 312 311 311 311 311 312 312 312 313 314 315 316 317 317 316
329 328 326 323 320 319 320 319 318 318 318 319 318 317 316 315 314 314 313 312 311 311 312 312 313 313 312 312 312 312 312 312 312 312 313 314 315 315 315 316 315 315
329 327 326 324 322 321 321 321 321 321 319 318 318 318 316 314 315 315 314 313 312 312 311 311 312 312 312 313 313 313 313 314 313 313 313 314 314 315 315 315 314 314
327 325 324 324 324 322 321 322 324 323 321 318 317 317 316 315 315 315 315 314 314 313 312 311 312 313 313 313 313 314 314 315 314 314 314 314 313 313 314 315 314 314
326 324 323 323 324 322 322 323 324 323 322 319 317 317 316 316 315 314 315 315 315 315 314 312 312 314 314 314 314 314 314 315 315 315 315 315 314 313 313 314 315 316
326 325 323 323 323 322 321 324 324 322 322 320 318 317 316 317 316 314 314 315 315 315 315 315 314 314 315 316 316 315 316 316 316 316 316 317 316 315 315 316 316 317
326 325 324 324 323 323 322 324 323 322 322 321 320 318 317 318 317 315 315 315 314 314 315 315 315 315 315 316 317 317 317 317 317 318 318 318 318 317 317 317 318 318
326 326 325 324 324 323 323 324 324 322 321 321 320 320 319 319 317 317 316 315 314 314 314 314 315 315 315 315 315 317 318 318 319 319 319 319 319 319 318 318 319 318
327 326 326 325 324 324 324 324 324 322 321 321 320 321 321 320 318 317 317 316 315 314 314 314 315 314 315 316 316 317 319 320 321 321 321 321 321 320 320 320 320 319
326 326 326 325 325 325 325 325 324 323 322 322 322 322 322 322 320 319 318 317 316 315 315 315 314 315 316 316 317 319 320 321 322 322 322 322 322 321 322 322 321 320
325 326 327 326 325 325 325 325 324 323 323 322 322 323 322 322 321 320 320 318 317 317 316 316 316 316 316 317 318 319 320 321 321 321 320 319 320 320 321 321 321 320
326 326 326 326 325 325 325 325 324 324 324 324 323 323 323 323 321 321 321 320 318 318 318 318 319 319 318 318 319 320 319 320 321 319 317 316 316 317 318 318 319 318
325 325 325 325 325 325 325 325 325 325 325 324 324 324 323 323 322 322 322 322 320 320 320 321 322 322 320 319 318 318 318 318 319 317 315 315 314 315 317 317 317 318
323 324 324 324 324 324 324 324 324 324 324 324 324 323 322 322 322 322 322 322 322 321 321 323 323 322 320 317 316 316 315 316 317 317 316 315 315 316 318 318 317 318
321 322 322 323 323 323 323 323 322 323 323 323 323 322 322 322 323 322 322 322 322 322 323 323 323 321 318 315 315 315 315 315 316 317 318 316 316 318 318 318 318 317
316 317 319 320 322 322 322 322 322 322 323 323 323 323 323 322 321 320 320 321 322 321 322 322 321 319 317 315 315 315 315 314 314 318 320 318 316 318 318 317 317 315
312 313 314 315 317 320 321 321 322 322 322 323 323 323 323 323 321 319 319 320 320 320 319 319 320 319 318 316 315 315 315 314 314 318 320 319 317 317 316 315 315 314
310 311 312 312 313 315 317 318 320 320 321 322 323 323 323 323 322 320 320 320 320 319 319 319 319 319 319 317 317 317 316 315 316 318 319 318 316 314 314 313 312 313
309 309 310 311 312 312 314 315 316 317 318 319 320 321 323 323 323 322 322 322 321 320 319 319 319 320 320 318 319 319 317 316 316 317 317 316 313 312 312 310 309 312
307 308 309 310 311 311 312 313 314 315 316 317 318 319 320 321 322 322 322 322 321 321 320 320 320 320 319 318 318 318 317 316 316 316 315 314 312 311 310 308 308 310
305 306 307 309 310 310 310 311 312 313 314 315 316 317 318 319 320 321 322 321 321 321 320 320 320 320 318 317 317 316 316 315 316 315 314 312 311 309 308 307 307 308

ECMWFNIL_925_thetae_024.txt.gz
Theta_e
327 327 328 327 324 322 322 321 320 321 322 323 324 324 323 323 323 324 323 324 324 323 324 324 324 323 323 324 324 324 323 323 323 323 322 321 320 318 316 314 313 313
330 329 328 327 324 322 322 321 321 321 322 323 323 323 322 322 322 323 322 322 322 323 323 323 323 323 322 323 322 321 320 319 319 319 319 318 317 315 314 314 314 313
330 329 328 325 322 322 322 321 321 322 323 323 322 321 321 320 321 320 319 319 320 321 322 322 322 321 321 320 319 318 318 317 317 316 316 316 315 315 314 314 314 315
331 329 327 324 322 322 322 322 323 323 323 322 321 320 320 320 321 319 318 317 318 319 320 320 319 318 317 317 316 317 316 315 315 314 314 315 315 316 316 317 317 317
330 329 327 324 323 323 323 324 324 323 322 322 320 319 318 319 319 317 316 315 316 316 317 317 316 315 315 315 314 314 314 314 314 314 314 315 317 317 317 318 317 317
329 329 328 324 322 322 321 321 322 322 322 321 320 318 316 316 316 316 314 313 313 314 315 315 314 314 313 313 313 312 312 313 313 314 314 316 318 318 317 317 317 316
330 329 328 323 321 319 318 318 318 321 321 320 318 317 316 315 314 314 313 312 312 313 313 313 313 313 313 312 312 312 312 313 313 314 314 315 316 317 316 316 316 316
330 329 325 321 320 319 317 317 316 318 320 319 318 317 316 315 314 313 313 312 312 312 312 313 313 313 313 312 312 312 312 313 313 315 315 315 315 316 316 315 315 315
329 328 324 321 320 320 319 317 316 317 316 316 318 317 315 315 315 314 314 312 312 312 312 312 313 313 313 313 313 313 314 313 314 314 315 315 315 316 315 314 314 314
328 327 325 323 322 321 321 320 319 318 316 315 317 317 315 315 315 315 314 313 313 313 311 311 313 313 314 314 314 315 315 315 314 314 315 315 315 315 315 315 315 315
327 326 325 325 324 322 322 323 323 322 320 317 317 317 316 315 316 315 315 315 315 314 313 312 313 314 314 314 314 315 316 315 315 315 314 314 314 314 315 315 316 316
327 325 324 325 325 323 322 324 324 323 322 319 317 316 316 316 315 314 314 315 316 316 315 314 314 314 315 314 314 315 315 316 316 316 316 316 315 315 316 316 317 318
326 325 324 324 324 323 322 324 324 323 322 321 318 317 316 317 317 315 314 315 315 315 316 315 315 314 315 316 316 316 316 317 317 317 318 318 317 317 317 318 318 319
327 326 325 324 324 324 323 324 324 323 323 321 321 319 317 318 317 316 315 315 314 314 315 315 315 314 315 316 317 318 318 318 318 319 319 319 319 319 319 319 319 319
327 327 326 325 325 324 324 324 325 324 323 322 321 320 320 319 318 317 316 315 315 315 314 314 315 315 315 316 316 317 318 319 319 320 320 320 320 321 321 320 320 320
326 326 326 326 326 325 325 325 325 324 323 322 322 321 321 321 320 319 318 316 316 316 314 314 314 315 315 315 315 317 318 320 321 321 321 321 321 322 322 321 321 319
326 326 326 326 326 326 325 325 325 325 324 323 322 322 322 322 322 321 319 319 318 316 316 315 315 315 315 316 316 317 319 321 322 323 323 322 322 321 321 321 319 317
325 325 325 325 325 325 324 325 325 324 324 323 323 323 323 323 322 321 320 320 319 318 318 316 316 316 315 316 316 317 320 321 322 323 322 321 321 320 319 319 317 315
323 323 323 323 324 323 323 323 323 323 323 323 324 324 324 324 324 323 322 321 320 320 320 319 319 319 317 316 316 317 320 321 321 322 321 320 320 317 317 318 317 316
319 320 320 321 322 322 322 322 321 321 322 323 323 324 325 324 324 323 323 322 321 321 321 321 320 320 320 318 317 318 319 320 320 320 319 319 317 315 315 317 317 316
314 316 317 318 320 321 322 321 321 321 322 322 322 323 324 324 324 323 322 322 322 321 321 321 320 319 320 320 319 318 319 320 319 318 318 318 317 316 316 316 316 317
310 311 312 314 315 317 319 320 321 322 322 322 323 323 324 323 323 323 323 322 322 321 321 321 320 319 319 320 321 320 318 318 316 315 317 318 318 318 318 316 317 318
307 308 310 311 311 313 314 315 317 319 320 321 322 323 323 323 323 323 323 322 322 321 320 320 320 320 319 319 321 320 318 316 315 314 315 316 318 319 319 318 318 317
305 306 307 308 310 311 311 312 313 314 315 317 318 320 321 321 321 322 322 322 321 321 320 320 320 320 320 319 320 320 318 316 315 315 315 314 316 318 317 316 316 315
303 304 305 307 308 309 310 311 311 312 312 313 314 316 318 318 319 320 321 321 321 321 321 320 320 320 319 319 319 319 319 317 317 317 316 315 317 317 315 314 314 312
303 303 304 305 306 307 308 309 310 310 311 311 311 313 314 316 317 318 319 320 321 321 320 320 320 320 319 319 319 319 319 319 318 317 316 317 316 315 313 312 310 309

ECMWFNIL_925_thetae_027.txt.gz
Theta_e
323 322 322 322 323 322 322 322 321 321 321 323 324 323 322 323 324 324 324 324 323 323 324 324 324 324 325 326 328 328 328 328 327 326 325 323 320 318 318 318 318 318
324 322 322 322 322 321 321 321 321 321 322 323 323 322 323 324 324 324 323 323 323 323 323 323 324 324 323 324 324 325 325 324 323 322 319 316 314 313 313 313 314 314
325 324 322 322 321 320 320 321 321 323 323 323 323 323 323 323 322 322 322 322 323 323 323 322 323 322 322 321 321 321 322 321 320 319 316 314 313 313 313 313 314 313
327 325 323 322 321 320 321 322 322 323 323 323 322 321 321 320 320 320 321 322 322 321 321 321 320 320 320 318 318 318 319 318 317 317 315 313 314 314 314 314 314 313
327 325 322 321 321 321 321 322 323 322 322 322 321 320 320 319 318 318 318 320 321 320 319 319 318 318 317 317 316 316 315 315 314 314 315 315 316 316 316 315 314 313
327 323 321 322 321 320 321 323 323 322 321 321 319 319 319 319 317 316 316 318 319 317 316 316 315 316 316 316 315 314 314 314 314 314 316 317 317 317 316 316 315 315
326 323 322 321 321 320 321 323 322 322 321 320 318 317 318 317 316 315 315 316 316 316 315 314 314 314 314 314 313 313 313 314 314 316 317 317 316 316 316 316 316 316
327 324 322 322 321 321 321 322 321 321 320 318 317 315 315 315 314 313 313 314 314 314 314 313 312 312 312 312 312 313 313 314 315 316 317 316 316 316 316 316 315 315
327 325 323 322 320 319 319 321 321 320 318 317 316 315 315 314 314 312 312 312 313 313 313 313 312 312 312 311 311 313 313 313 315 316 317 316 316 315 315 315 315 315
326 324 322 320 318 316 317 319 320 319 317 316 316 315 314 314 314 312 312 311 312 312 313 313 312 313 312 312 312 313 313 314 314 315 316 315 315 314 314 314 314 314
325 322 320 319 318 316 316 316 316 315 313 313 314 313 313 314 315 314 313 312 311 311 312 312 313 314 313 312 314 315 314 314 315 315 315 315 315 314 314 314 313 313
325 323 321 319 319 318 317 317 316 314 313 313 314 314 314 315 316 315 314 313 312 311 312 312 313 314 313 313 315 315 314 314 315 314 314 315 315 314 314 314 315 315
325 324 323 322 321 321 322 322 320 319 318 317 316 316 316 316 315 314 314 315 314 312 312 313 314 314 314 313 315 315 314 314 314 314 314 314 314 314 315 316 316 317
324 324 324 324 323 322 324 324 323 322 321 320 318 316 315 316 315 314 314 315 315 314 313 313 314 314 314 313 314 315 315 315 314 315 316 316 315 315 316 317 317 317
323 324 324 324 323 322 323 324 323 322 321 321 320 318 316 316 316 315 315 314 314 314 314 315 314 315 315 315 316 316 316 316 316 316 318 317 316 317 317 317 318 318
324 324 323 323 324 323 323 324 324 323 322 321 322 320 318 317 316 316 316 314 314 314 314 315 315 314 315 316 317 316 317 318 317 317 318 318 317 318 318 318 318 319
323 323 323 322 323 323 324 325 324 324 324 323 323 322 320 318 317 317 317 316 315 314 314 315 315 314 315 315 315 316 317 318 318 318 319 319 319 319 319 319 318 319
322 322 323 322 320 321 324 325 325 324 324 323 323 323 323 322 321 320 320 319 318 316 315 316 315 314 314 315 315 316 316 317 318 318 318 319 320 320 320 320 319 320
321 321 321 322 321 321 322 323 323 324 324 324 323 323 323 324 323 322 321 321 321 319 318 317 317 316 315 315 315 315 315 316 318 318 319 320 321 320 320 321 321 321
313 314 317 319 321 321 321 322 322 322 322 322 323 323 323 324 324 324 323 323 322 322 321 320 319 318 316 315 315 315 315 316 318 319 320 321 322 321 321 321 321 320
307 308 309 312 314 315 316 317 318 320 321 321 321 321 322 323 323 324 323 323 323 322 322 321 320 320 318 317 316 315 316 318 319 320 321 322 322 322 320 319 319 318
305 305 306 307 308 310 311 312 313 315 317 318 319 320 321 322 323 324 323 323 323 322 322 322 321 321 320 319 318 317 317 319 321 321 321 322 322 321 320 318 317 316
303 304 304 305 306 307 308 309 310 310 311 312 313 315 317 320 322 322 322 322 322 323 322 322 322 321 321 320 319 318 318 319 320 320 321 320 320 320 319 318 317 316
303 303 303 304 305 305 306 307 307 308 309 310 310 310 312 314 316 319 319 320 321 321 321 322 322 322 321 321 320 320 319 319 319 319 319 318 318 319 318 318 318 317
302 303 302 303 303 303 303 304 304 305 306 307 307 307 308 310 311 314 315 317 318 319 320 321 321 321 321 321 320 320 319 319 319 318 317 316 316 316 316 316 317 318
301 301 301 301 301 301 302 302 302 303 303 303 304 304 305 308 310 311 312 313 315 317 318 320 320 320 320 321 320 320 320 319 319 319 317 316 315 314 314 315 316 317

ECMWFNIL_925_thetae_030.txt.gz
Theta_e
325 325 324 323 322 322 321 322 321 322 323 324 323 323 322 322 323 325 324 324 324 323 324 325 325 327 328 329 328 328 328 329 329 328 327 327 326 325 325 326 326 326
324 324 322 320 320 320 321 322 322 323 323 323 323 322 322 323 324 324 323 323 323 323 323 324 324 326 328 329 329 328 329 329 329 328 326 325 323 322 323 323 321 320
323 322 320 320 320 320 322 323 323 322 322 323 323 322 322 324 324 323 323 322 323 323 324 324 324 326 328 329 329 329 329 328 328 326 322 319 317 317 317 317 316 315
322 321 320 321 321 321 322 322 322 322 322 323 323 322 323 324 323 323 323 322 322 323 323 323 324 325 326 327 327 326 325 323 321 318 315 314 314 314 314 314 314 314
321 321 321 322 322 321 321 321 321 322 323 323 322 323 323 323 323 322 322 322 322 322 323 322 322 322 323 324 323 322 320 317 315 314 313 313 314 313 313 313 314 314
322 322 322 322 321 321 321 321 321 322 323 322 322 323 322 322 322 321 322 322 321 321 321 321 321 319 319 320 320 319 318 316 314 313 314 314 314 313 313 313 313 314
323 322 321 321 320 320 321 322 322 322 322 322 322 321 320 320 320 321 321 321 320 319 319 319 319 318 317 317 318 317 316 316 315 314 315 315 314 314 313 313 313 314
324 322 321 320 320 321 322 322 322 322 322 321 320 319 318 318 318 318 320 320 318 317 317 317 318 317 316 316 315 314 313 314 316 316 316 316 315 315 315 314 314 315
324 321 321 321 321 321 322 322 322 321 321 320 319 319 318 317 316 315 318 319 317 315 314 315 315 315 315 315 314 313 312 314 317 317 316 315 315 315 316 316 315 315
322 321 321 321 321 321 322 322 321 320 319 318 318 318 317 315 314 314 315 316 315 314 313 313 313 313 313 313 313 312 312 314 316 316 316 315 315 315 315 315 315 315
321 322 321 321 321 322 321 321 321 320 318 316 316 316 315 314 313 312 312 313 313 313 312 312 311 311 311 312 312 312 312 314 316 316 316 315 315 316 315 314 314 314
321 321 321 321 321 320 320 321 320 319 317 315 314 315 314 313 312 312 311 312 312 312 312 312 311 311 311 311 312 312 313 315 316 316 316 316 315 315 314 314 314 314
320 320 320 319 319 318 319 320 320 318 317 315 314 314 314 314 313 313 312 312 312 312 312 312 312 312 312 311 313 313 313 314 315 316 316 315 314 314 314 314 314 313
320 320 319 318 317 316 316 317 316 315 315 315 314 313 314 314 314 314 313 312 311 311 312 312 313 313 312 312 314 314 314 314 315 315 315 314 314 314 313 313 313 312
321 320 319 319 319 319 319 319 318 316 316 316 316 315 315 315 315 314 314 313 311 311 312 312 313 313 313 313 314 315 314 314 315 315 315 314 314 314 314 313 314 314
322 322 321 321 321 322 323 323 321 321 321 320 320 318 316 316 315 314 314 314 313 312 312 312 313 314 313 312 314 315 314 314 314 314 314 314 314 314 314 314 315 316
322 322 322 322 322 323 324 323 323 322 322 322 322 320 317 316 315 315 314 314 314 314 313 312 313 314 314 313 313 314 314 314 314 313 314 315 314 314 314 315 316 317
322 322 323 323 323 322 323 323 323 323 323 323 323 322 320 317 315 316 316 315 315 314 314 313 313 314 314 314 314 314 314 315 314 314 315 317 316 315 315 316 317 317
318 320 321 321 322 322 322 322 322 322 322 321 321 321 322 320 319 319 319 318 317 316 315 315 314 314 314 314 314 315 315 315 315 315 316 317 317 317 317 317 317 318
310 312 313 314 316 317 318 319 319 320 321 320 319 320 321 321 322 322 322 322 321 320 319 318 317 317 316 314 314 315 316 316 316 316 316 316 317 317 317 318 318 318
305 305 306 307 308 309 310 311 312 314 316 316 316 318 319 320 321 322 322 321 321 322 322 322 321 320 319 317 316 315 316 316 316 316 317 317 317 316 317 318 318 318
303 303 303 304 304 305 305 306 306 307 307 308 309 311 314 316 319 321 321 321 321 321 321 321 321 321 321 321 320 318 317 316 316 316 317 317 317 317 317 318 319 319
302 303 302 302 302 303 303 303 303 303 303 304 304 305 306 308 310 313 316 320 322 323 322 321 321 320 321 321 321 321 320 318 316 316 317 317 318 318 318 319 319 320
301 301 301 301 301 301 301 301 301 302 302 302 302 303 303 303 304 306 308 311 315 318 320 321 320 320 320 320 321 321 321 320 318 316 317 319 320 320 320 320 320 320
300 300 300 300 300 301 300 300 300 300 300 301 301 301 302 302 302 303 304 304 306 307 310 312 313 314 316 318 320 321 321 320 319 318 318 319 320 320 321 320 320 319
300 300 300 300 300 300 300 300 300 300 300 300 300 300 301 301 301 302 302 302 303 303 304 304 305 307 308 311 314 317 320 320 320 319 318 318 318 319 320 320 319 318

ECMWFNIL_925_thetae_033.txt.gz
Theta_e
325 326 327 326 324 322 323 324 324 324 324 324 324 324 324 324 324 324 323 323 324 324 324 325 325 326 327 327 327 327 327 327 326 326 326 326 326 327 327 327 327 327
324 325 326 325 323 322 322 323 324 324 323 323 324 324 323 322 323 324 323 323 324 323 323 324 325 327 328 328 328 328 327 327 327 327 326 326 326 326 326 326 327 327
324 325 325 324 323 322 322 323 322 322 322 323 323 323 322 322 324 324 323 323 323 323 323 324 324 326 328 328 328 328 328 328 327 326 326 325 324 325 325 326 326 327
325 325 324 324 323 322 322 322 321 321 322 323 323 322 322 323 324 323 323 322 323 323 323 323 324 326 328 328 328 328 328 328 327 326 324 322 322 322 322 321 322 322
325 325 324 323 321 320 321 321 321 322 323 323 322 321 322 323 323 323 322 322 323 323 323 323 324 326 328 328 328 328 328 328 327 324 319 317 318 318 317 316 316 316
324 324 322 320 319 319 319 321 322 322 322 322 322 322 322 323 323 323 322 322 322 323 322 322 323 325 327 327 327 327 326 326 324 318 313 313 315 315 314 314 315 315
323 322 320 319 319 320 320 321 322 321 321 322 322 322 322 323 323 322 322 321 321 322 322 322 321 322 323 324 324 322 320 319 317 314 312 313 314 314 315 315 315 315
321 321 319 320 321 321 321 321 321 321 321 322 322 322 322 322 321 321 321 321 321 321 322 321 321 320 320 320 321 318 315 314 313 313 313 313 313 313 314 315 315 315
321 321 321 321 322 321 321 321 320 321 321 322 322 322 321 320 320 320 321 321 320 319 320 320 320 319 317 317 318 318 316 315 314 313 313 313 313 313 313 314 315 315
321 321 321 321 321 321 321 321 321 321 322 322 322 321 319 318 318 319 320 320 319 318 318 318 318 318 317 316 316 316 315 314 315 315 314 314 313 313 312 313 315 315
322 321 321 321 320 321 321 321 322 322 322 322 320 319 318 318 317 316 317 318 318 316 315 315 315 316 315 315 315 314 313 313 315 316 315 315 314 314 314 314 314 315
323 321 321 320 320 320 321 322 322 321 321 320 318 318 318 317 315 313 313 315 316 315 314 313 313 313 313 313 313 313 312 312 315 317 316 315 315 315 315 315 314 314
324 322 321 321 321 321 321 321 321 321 320 318 316 317 318 316 314 313 311 311 312 314 314 313 312 311 311 311 312 312 312 312 313 316 316 315 315 315 315 314 314 314
323 322 321 321 321 321 321 320 320 320 319 317 315 315 316 315 313 312 311 311 311 312 313 312 312 311 311 311 311 311 312 312 313 315 316 315 315 315 315 314 314 314
322 321 321 322 321 321 319 317 319 320 318 316 315 314 315 315 314 313 312 312 312 311 312 312 311 311 312 312 311 311 312 312 313 315 316 316 316 315 315 315 314 314
321 320 321 321 320 319 315 312 314 318 318 316 315 314 314 313 314 314 314 314 313 312 312 311 311 312 312 312 311 311 312 313 313 314 315 315 316 315 314 314 314 313
320 320 320 319 319 318 316 314 315 318 318 317 317 316 315 314 314 315 315 314 314 313 311 311 311 312 312 312 312 312 313 314 313 313 314 315 315 315 314 314 314 313
320 320 320 320 319 319 318 318 319 320 320 320 321 321 320 318 316 316 315 314 314 313 313 312 311 312 312 312 313 312 312 314 314 314 314 314 314 314 314 314 314 314
320 320 319 319 320 320 319 320 321 321 321 321 321 321 321 320 318 317 316 315 315 314 314 313 312 311 312 312 313 313 312 313 314 314 314 314 314 314 314 313 314 314
313 313 312 313 315 316 317 317 318 319 319 319 319 320 321 321 321 320 320 319 319 318 317 316 315 314 313 313 313 313 313 313 313 314 314 314 314 313 313 313 314 314
304 304 304 305 306 308 309 309 310 311 311 312 313 316 317 318 319 320 320 321 321 321 321 320 320 319 318 317 317 316 315 314 313 313 314 314 314 314 313 313 314 315
301 301 302 302 302 303 303 303 304 304 304 305 306 308 310 312 314 315 316 319 320 321 321 321 321 321 321 321 320 320 320 318 316 314 313 314 314 314 314 314 315 316
300 301 301 300 301 301 301 301 301 301 301 302 303 303 304 305 306 307 309 312 316 318 318 320 321 321 320 319 319 319 320 320 320 319 317 315 315 315 315 315 316 316
300 300 300 300 300 300 300 300 300 300 300 300 300 301 301 301 302 302 303 305 308 309 310 312 314 315 314 313 313 313 315 317 319 319 319 319 318 318 317 316 316 316
299 299 299 299 299 299 300 299 299 300 299 300 300 300 300 300 300 301 301 301 302 303 303 304 306 306 307 307 307 307 309 311 314 316 317 319 319 319 318 317 317 317
299 299 299 299 299 299 299 299 299 299 299 299 300 299 299 299 299 300 300 300 300 301 301 302 302 303 303 304 304 304 305 306 308 310 313 315 317 318 319 318 318 318

ECMWFNIL_925_thetae_036.txt.gz
Theta_e
331 328 327 327 327 326 326 325 325 325 325 324 323 323 323 323 323 324 323 323 323 323 323 324 325 326 325 326 326 326 327 327 327 326 326 326 326 326 326 326 327 327
329 328 327 327 327 325 325 325 324 324 324 324 324 324 324 323 324 324 323 322 323 323 323 324 325 325 326 326 326 326 327 327 326 326 326 326 326 326 326 327 327 327
328 327 327 327 326 325 324 324 324 324 324 324 324 323 323 323 323 323 323 323 323 322 323 323 323 325 327 327 327 327 327 326 326 326 326 326 326 326 326 326 326 326
327 327 327 326 325 323 323 324 324 323 323 323 323 322 322 322 323 323 323 323 322 322 322 322 322 324 327 328 327 327 327 327 327 326 326 325 325 325 325 325 326 326
326 327 327 326 323 322 323 324 323 322 323 323 322 322 321 322 323 323 323 322 322 322 322 322 323 324 327 328 327 327 328 327 327 326 325 325 324 324 325 325 325 326
325 325 325 324 323 322 322 322 321 321 322 322 322 322 321 322 323 323 323 322 322 323 321 322 324 325 327 328 328 328 328 328 327 326 323 321 322 322 322 322 323 324
323 324 324 323 322 322 321 321 321 321 322 322 322 322 321 322 323 323 322 322 322 322 321 321 322 324 326 327 327 327 327 327 327 322 317 317 319 318 316 316 317 318
324 323 323 323 322 320 320 321 321 322 322 322 321 322 322 322 322 322 322 322 321 322 322 321 321 321 323 324 324 323 322 322 321 316 313 314 316 315 314 314 315 315
324 323 323 322 319 319 319 320 321 321 321 321 321 322 322 322 322 321 321 321 320 321 322 321 320 319 319 320 320 319 316 315 314 313 312 314 314 314 314 315 314 314
324 323 322 320 319 319 320 320 321 320 320 321 322 322 322 321 320 320 321 320 320 320 320 320 319 319 318 317 318 318 317 315 314 313 313 313 313 313 314 314 314 314
322 322 321 319 319 321 321 321 321 320 320 321 322 322 321 319 318 319 319 320 319 319 319 318 318 318 317 316 316 316 317 316 315 314 314 313 313 312 312 313 314 314
321 321 320 320 321 321 321 321 320 320 321 322 322 321 319 318 317 317 316 317 318 317 316 316 316 316 316 315 315 315 314 314 314 314 314 314 313 313 313 312 313 315
321 321 321 321 321 321 321 320 320 321 322 321 321 319 318 318 316 314 313 314 315 315 315 314 313 313 313 312 313 313 313 313 312 314 316 315 314 314 314 313 314 314
321 322 321 321 321 320 320 321 321 321 321 320 319 318 318 318 315 313 312 311 312 313 313 313 312 312 311 311 311 311 312 312 312 313 315 316 315 314 314 314 314 314
322 322 322 321 320 320 320 320 320 320 320 318 317 316 317 317 315 313 312 311 311 311 312 312 312 312 311 311 311 311 311 311 311 312 313 314 315 315 315 315 314 314
321 321 321 320 320 320 320 319 319 319 319 318 316 316 316 315 315 314 313 312 312 312 312 312 311 311 311 311 311 312 311 311 312 312 312 313 315 315 315 315 315 314
320 320 320 320 320 320 318 316 315 317 317 318 317 316 315 315 314 314 314 313 314 314 313 312 311 311 311 311 312 312 312 311 311 312 313 313 314 315 315 315 315 315
319 319 319 319 319 318 317 316 315 316 317 318 318 317 317 316 315 314 314 314 315 314 314 313 312 311 311 311 312 312 312 312 312 312 313 313 313 314 315 315 315 315
315 316 316 317 317 317 318 318 317 317 318 319 319 319 319 318 317 317 316 316 316 315 314 313 313 312 311 311 311 311 312 312 312 312 313 313 314 314 314 314 314 314
310 311 310 310 311 312 314 314 314 314 315 316 318 319 319 319 319 319 319 319 318 318 317 317 317 316 315 314 314 313 313 313 313 313 312 313 313 313 314 314 314 314
304 305 305 304 305 305 306 306 306 307 307 309 311 313 314 314 315 316 318 319 319 319 320 319 319 319 319 319 318 318 317 316 316 315 315 314 313 313 313 313 313 314
302 302 302 302 302 303 302 301 301 301 301 302 304 305 307 308 309 310 312 313 315 316 318 317 316 317 318 319 320 320 320 320 319 319 318 317 316 315 315 314 313 313
301 301 301 301 301 301 301 300 300 300 300 300 301 301 302 303 303 304 305 306 308 310 311 311 311 312 313 315 316 317 318 318 319 320 320 320 319 319 318 317 316 316
300 300 300 300 300 300 300 300 300 300 300 300 300 300 300 300 300 301 301 302 303 303 304 304 305 305 307 308 310 311 312 313 314 315 317 318 319 320 320 319 319 319
299 299 299 299 299 300 300 300 299 299 299 299 299 299 299 299 299 299 300 300 300 300 301 301 301 301 302 303 304 305 306 307 307 308 310 311 313 315 317 318 319 319
298 298 298 299 299 299 300 300 299 299 299 299 300 300 299 299 299 299 299 299 299 299 299 299 300 300 300 300 301 301 302 302 303 303 304 306 307 308 310 312 314 315

ECMWFNIL_925_thetae_039.txt.gz
Theta_e
331 330 329 327 324 324 324 322 323 323 323 323 323 323 323 323 323 323 323 323 323 324 324 324 325 326 326 327 328 329 329 329 328 328 327 327 327 327 327 327 327 328
330 330 328 325 325 325 324 322 322 322 321 322 322 322 323 323 323 324 323 323 323 323 324 325 325 326 326 326 327 328 328 328 328 327 326 326 326 326 326 325 326 327
331 330 327 325 325 326 325 323 323 323 323 323 322 322 322 323 324 323 323 323 323 323 324 324 325 326 326 327 328 328 328 327 327 326 325 326 326 326 326 326 326 327
331 330 327 325 326 326 325 324 324 324 325 324 323 323 323 323 323 323 323 323 323 322 323 323 324 326 327 327 328 328 327 327 327 326 325 326 326 326 326 326 326 327
330 329 327 326 326 326 325 325 324 324 325 324 323 323 322 323 323 323 323 322 322 322 322 322 323 325 327 328 328 327 327 327 327 326 326 325 325 326 326 326 326 326
330 329 327 326 327 326 325 325 324 324 324 323 323 322 322 322 323 323 322 322 322 322 321 322 324 325 327 328 327 327 327 327 327 326 326 326 325 325 325 325 326 326
328 328 327 327 327 326 324 324 324 323 323 323 322 321 321 322 322 323 322 321 322 322 321 322 324 326 327 328 327 327 327 327 327 326 325 324 323 323 324 325 325 326
327 327 327 327 326 324 323 324 323 322 322 322 322 321 322 322 322 322 322 321 322 322 321 321 323 324 326 326 326 326 327 327 327 324 320 319 320 321 321 321 322 324
326 326 327 326 324 322 322 323 322 322 322 322 321 322 322 322 322 322 322 321 321 322 321 320 320 321 322 323 322 322 323 324 323 318 314 315 317 318 316 315 316 318
325 325 325 325 322 322 322 321 321 322 322 322 321 322 322 322 322 321 321 321 321 321 321 320 319 319 319 319 319 317 316 317 315 313 312 314 315 315 314 314 314 314
323 323 323 322 321 321 321 321 321 322 322 322 322 322 322 321 320 320 320 320 320 321 321 320 319 318 317 317 317 317 316 315 314 313 313 313 314 314 314 314 314 314
322 322 321 321 320 320 321 321 321 321 321 322 322 322 320 319 319 319 320 320 319 319 319 319 318 318 317 316 316 316 316 315 314 314 313 313 313 313 313 313 313 314
320 320 320 320 320 320 320 320 320 321 321 321 321 320 319 317 317 317 317 318 318 317 317 317 316 316 315 314 314 314 314 314 313 313 314 314 313 313 313 313 312 313
319 319 319 319 320 320 320 320 320 321 321 320 320 318 318 317 316 314 314 315 315 315 315 315 314 313 313 312 312 312 313 313 312 312 313 315 315 314 314 314 313 313
319 319 319 319 319 319 319 319 319 320 319 319 318 318 318 317 315 313 313 313 312 312 313 313 313 312 312 311 311 311 311 312 312 312 312 314 315 315 314 314 315 314
320 320 319 319 318 318 318 318 318 318 318 317 317 317 317 317 315 314 313 313 312 312 312 312 312 312 311 311 311 311 311 311 311 311 311 312 314 315 315 314 314 314
319 319 319 319 318 318 318 318 317 317 317 316 316 316 316 316 315 314 314 313 313 313 313 313 312 311 311 311 311 311 312 311 311 312 312 312 313 314 315 315 315 315
318 318 318 317 317 317 317 317 317 317 318 317 317 316 316 315 315 314 314 314 314 314 314 313 313 311 311 311 311 311 311 312 312 312 312 313 313 313 314 315 315 315
316 316 315 315 315 315 315 315 316 317 317 318 318 317 317 316 316 316 315 315 315 315 314 314 314 314 313 312 311 311 311 311 312 312 312 312 313 313 313 314 314 314
311 311 310 309 310 311 312 313 314 314 314 315 316 317 317 317 317 317 318 317 316 315 315 315 315 316 316 316 315 314 313 313 312 312 313 313 313 313 313 313 313 313
307 306 305 304 305 305 306 307 308 308 308 309 310 311 312 313 314 316 316 316 315 314 314 314 313 315 316 317 317 318 317 317 316 316 315 315 315 314 314 314 313 313
304 304 304 303 303 303 303 302 302 303 303 304 305 306 306 307 308 309 310 310 311 311 312 311 311 311 313 315 316 317 318 318 318 319 319 319 318 318 317 317 316 315
304 304 304 303 303 302 302 301 301 300 300 301 301 302 302 302 303 303 303 304 305 306 307 307 306 307 309 310 311 313 314 315 315 316 317 318 318 319 319 319 319 318
302 303 303 304 304 303 302 302 302 302 302 301 301 300 300 300 300 300 300 301 301 301 302 302 302 302 303 305 306 307 308 309 309 310 310 312 313 314 314 315 316 316
299 300 300 301 302 303 303 303 303 303 304 303 303 302 302 302 301 300 299 299 299 299 299 299 299 299 300 300 301 302 303 304 304 305 305 306 307 308 309 309 310 311
298 298 298 298 299 299 300 301 301 301 302 302 303 304 305 305 303 302 301 300 299 299 299 299 299 298 298 299 299 299 300 300 301 301 302 302 303 303 304 305 305 306

ECMWFNIL_925_thetae_042.txt.gz
Theta_e
331 334 335 334 334 333 333 333 332 331 331 330 330 330 330 330 330 329 329 328 328 329 329 329 329 330 330 331 331 331 331 331 332 332 332 332 332 331 331 331 331 330
333 335 334 334 333 330 330 332 332 331 331 330 329 329 329 329 328 329 328 327 327 327 328 329 329 329 329 330 331 332 331 331 331 332 332 332 331 331 331 331 331 331
334 334 334 334 331 327 328 331 330 329 329 329 328 328 328 327 326 328 328 327 327 327 327 328 329 329 329 329 330 331 331 331 331 331 331 331 331 331 331 331 332 331
334 334 333 332 328 326 329 329 328 328 327 327 328 327 327 327 327 328 327 327 328 327 327 328 328 329 329 328 328 330 331 332 331 331 330 331 331 331 331 331 331 331
334 333 332 331 329 328 329 328 327 328 326 327 327 327 327 327 327 326 327 327 327 327 327 327 327 328 328 328 328 330 332 332 331 331 330 330 330 331 331 331 331 331
335 333 331 330 330 330 328 327 328 328 328 328 327 326 326 326 326 325 326 326 326 326 326 326 327 327 328 328 329 331 331 331 331 330 330 330 329 330 331 331 331 331
335 333 332 330 330 329 328 328 328 328 328 328 327 326 326 325 325 325 325 325 325 325 325 326 326 327 327 328 329 331 331 330 330 329 328 327 327 328 329 330 330 330
335 334 332 331 330 329 329 328 328 328 328 327 326 325 325 325 325 325 325 325 325 324 324 325 326 326 327 328 328 330 330 330 329 327 325 325 325 326 326 329 331 330
335 334 332 331 330 329 329 327 327 327 327 326 326 325 325 325 325 325 325 324 325 324 323 325 325 325 327 326 326 327 328 328 328 326 324 324 324 324 323 325 328 329
334 333 332 332 330 329 328 327 327 327 327 326 325 325 325 325 324 325 324 324 324 323 322 323 324 324 325 325 324 324 325 326 326 324 323 323 322 321 320 321 323 325
332 332 332 331 330 328 327 327 327 326 326 326 325 325 326 325 324 323 323 323 323 322 321 322 323 322 323 323 323 323 322 322 322 320 321 322 321 320 319 320 321 321
327 329 330 331 329 328 327 327 326 326 326 326 325 325 325 324 323 322 321 322 322 322 320 320 321 321 321 321 321 322 322 321 320 319 320 320 320 319 319 319 320 320
325 326 327 329 329 328 327 326 326 326 326 325 325 325 324 322 322 321 321 321 321 321 320 319 320 320 320 320 320 321 321 321 320 319 319 319 319 318 318 318 318 319
323 324 325 325 326 327 327 326 326 325 325 325 325 324 322 321 320 319 319 318 319 319 319 318 318 318 319 319 319 319 319 320 320 320 319 319 319 318 318 319 319 319
321 322 322 321 322 323 324 325 326 325 325 325 324 323 321 319 318 317 316 316 317 317 317 318 318 318 318 317 317 318 318 318 319 319 319 320 320 319 319 319 319 319
320 320 319 320 320 321 322 323 324 324 324 323 322 321 320 319 317 316 316 315 315 316 317 318 318 317 315 313 314 316 317 317 317 317 317 318 319 320 320 319 319 318
319 319 319 319 320 320 320 321 322 322 322 322 322 321 320 319 318 317 316 316 316 318 318 316 315 313 312 311 311 312 315 317 317 317 316 316 317 319 319 318 318 318
317 317 318 318 319 319 319 319 319 319 319 319 320 321 321 321 320 319 319 320 320 319 316 313 312 311 311 312 311 311 313 315 317 317 317 317 316 317 318 317 318 319
315 316 317 317 317 317 317 317 317 317 317 317 318 319 321 322 322 321 321 320 318 316 314 314 313 313 311 311 311 311 311 313 316 317 316 317 317 317 318 319 319 319
313 314 314 315 315 316 316 317 317 317 316 316 316 317 319 320 320 319 318 316 315 314 314 315 315 315 315 314 313 312 311 312 316 318 317 317 318 318 319 319 319 320
310 311 312 313 313 314 315 315 315 316 316 316 316 317 316 316 316 316 315 314 312 311 312 313 313 315 317 317 316 316 315 315 319 320 319 319 319 319 319 319 319 319
307 308 308 309 310 311 311 311 312 312 312 312 314 315 314 313 312 312 311 312 311 309 308 308 309 311 314 316 317 318 318 319 321 321 320 321 321 321 321 321 321 321
304 304 305 305 306 306 306 306 306 306 306 307 309 309 308 308 308 308 308 308 308 308 307 305 306 307 310 312 314 316 317 317 318 319 320 320 321 321 321 322 322 321
303 303 303 304 304 304 304 303 304 304 304 305 305 305 304 304 304 305 305 304 305 305 305 304 303 304 305 307 309 311 312 313 314 316 317 318 318 319 319 320 320 318
303 303 303 304 304 304 304 304 304 304 304 304 304 304 303 302 302 302 302 301 300 300 301 302 301 301 301 302 303 304 306 308 310 312 313 313 314 314 315 317 317 315
300 301 301 302 302 302 303 303 304 304 304 305 305 304 304 303 303 303 302 301 301 301 301 301 301 301 301 301 301 301 301 302 306 308 309 309 310 310 311 312 314 315

ECMWFNIL_925_thetae_045.txt.gz
Theta_e
332 331 329 328 328 328 330 332 333 333 333 331 331 331 331 331 331 331 331 332 332 332 332 331 331 332 333 334 334 334 333 333 333 331 331 331 330 329 329 328 328 329
332 331 328 328 328 328 331 333 332 332 332 330 331 331 330 330 331 331 331 331 331 331 331 331 331 331 331 333 334 333 331 332 332 331 331 331 330 330 329 329 329 329
331 331 328 328 328 329 332 333 332 332 332 331 331 331 330 331 331 331 331 330 330 330 330 331 331 331 331 331 333 333 331 331 332 331 332 331 330 330 330 331 330 329
332 330 328 329 329 330 332 332 332 332 331 331 331 331 331 330 331 331 330 329 329 329 329 329 329 330 330 330 331 332 332 332 331 331 331 331 331 331 331 332 331 330
334 333 329 329 329 329 330 331 331 332 331 331 331 330 330 329 329 329 328 328 327 328 328 328 328 329 328 329 329 331 332 331 330 331 331 331 331 331 330 331 330 330
335 334 331 328 328 327 328 329 330 330 330 330 329 328 328 328 327 327 327 327 327 327 328 328 328 328 329 329 328 330 332 331 331 331 331 330 331 331 331 330 330 330
334 334 331 329 327 326 327 328 329 328 329 329 328 328 327 327 327 326 327 327 327 327 327 328 328 328 329 328 328 330 331 331 331 331 330 330 330 330 330 331 330 330
334 332 329 328 327 326 328 329 328 328 329 328 328 328 327 327 327 327 326 326 327 326 326 326 326 327 327 327 328 331 332 331 331 330 328 328 328 328 329 330 331 330
333 330 327 327 327 327 328 329 328 329 329 328 327 327 326 326 326 326 326 325 325 325 325 325 325 325 326 326 327 330 332 331 330 329 327 326 327 327 327 329 331 329
330 329 328 328 327 327 328 329 329 329 329 328 327 326 325 326 326 325 325 325 325 324 324 325 325 325 326 326 326 329 329 329 328 327 326 325 326 325 324 326 329 329
328 329 329 328 327 328 329 328 328 328 328 327 325 325 325 326 325 324 324 325 324 324 323 324 325 325 325 326 326 327 327 326 326 325 325 324 324 323 322 323 326 328
328 327 329 329 328 329 329 328 328 328 328 326 325 326 326 325 324 324 323 323 324 323 322 322 323 323 324 324 325 325 325 325 324 323 323 324 323 321 321 322 323 324
328 327 329 330 329 328 329 328 328 327 326 325 326 326 325 324 324 323 323 323 324 322 321 320 321 321 321 322 323 323 323 323 323 322 322 322 321 320 320 321 321 322
330 330 331 331 329 328 328 327 326 326 326 326 326 326 324 323 323 323 323 323 323 322 320 319 320 320 320 321 322 322 322 322 322 322 322 322 321 320 320 320 321 321
329 330 331 330 328 327 326 326 325 325 326 327 326 325 323 323 322 322 322 322 322 322 320 320 321 320 320 320 320 320 320 321 322 322 321 321 321 320 320 320 320 321
327 328 328 329 329 327 326 326 326 326 327 327 326 324 322 322 321 320 320 320 320 319 320 322 321 319 318 318 318 319 320 320 320 321 321 320 321 321 321 321 321 321
326 326 327 328 328 328 327 327 326 326 326 325 324 323 321 320 319 318 318 318 318 320 322 322 320 317 316 317 317 317 319 320 320 319 320 319 319 320 321 321 320 321
324 325 325 325 326 326 326 326 325 325 325 324 324 322 320 319 318 318 318 319 321 322 320 317 316 315 314 314 314 314 316 319 320 319 319 318 318 319 320 320 319 320
321 321 321 322 322 323 323 323 323 324 324 324 324 323 322 321 320 320 321 322 321 319 315 313 312 312 312 312 311 311 313 316 318 318 318 318 317 317 318 319 318 318
317 318 318 318 320 320 321 321 321 321 321 322 322 323 322 322 322 321 321 319 317 315 314 313 312 311 311 311 311 311 311 313 317 318 317 318 318 318 318 320 320 320
314 314 314 315 316 318 318 318 318 318 318 318 319 320 320 320 320 319 317 315 314 314 314 314 314 314 313 311 311 311 310 312 317 319 318 318 319 319 319 319 320 320
312 312 312 313 314 315 316 316 316 316 316 316 316 317 318 318 317 316 315 313 312 312 313 313 314 315 316 315 314 314 313 316 319 319 318 319 320 319 319 318 319 320
309 309 310 311 312 312 313 313 314 314 314 315 314 314 314 315 314 314 314 312 311 311 311 311 312 313 314 316 317 317 317 319 320 319 319 320 321 321 320 320 321 322
306 307 307 308 308 308 308 309 310 310 310 311 311 311 311 311 310 310 311 312 311 309 307 307 308 310 311 313 315 317 318 318 318 318 319 320 321 321 321 321 322 321
305 305 305 306 306 307 307 307 307 307 307 307 308 308 308 308 307 307 308 308 308 307 307 306 305 304 305 306 308 310 313 314 315 316 318 318 318 319 319 319 320 319
303 304 304 304 304 305 305 305 306 306 306 306 306 306 306 306 306 305 304 304 304 305 306 306 304 303 303 303 303 304 306 308 311 312 312 313 314 314 315 316 318 318

ECMWFNIL_925_thetae_048.txt.gz
Theta_e
334 333 333 332 331 329 328 328 328 329 331 332 334 334 334 334 334 334 334 333 333 332 332 332 332 333 334 334 334 333 332 332 332 331 331 331 331 330 332 333 332 331
334 333 332 328 328 327 327 327 328 329 331 332 333 333 333 333 333 333 333 333 333 332 332 332 332 332 333 334 334 333 332 332 332 331 331 331 331 330 330 331 330 330
333 331 327 323 325 326 326 327 328 329 331 331 332 332 332 332 332 332 332 332 332 332 332 332 332 332 332 333 333 332 332 332 332 330 330 331 330 330 329 329 329 329
330 326 323 323 325 325 326 328 328 329 331 331 331 331 331 331 331 331 332 331 331 331 331 331 332 332 331 331 332 332 331 331 331 330 330 330 330 329 330 329 329 329
328 325 325 327 327 325 326 328 329 330 331 331 331 331 331 330 331 331 331 330 330 330 330 330 331 331 330 330 331 332 331 330 331 331 331 331 330 330 330 330 330 329
328 327 328 329 327 326 326 329 331 332 331 331 331 331 330 330 331 331 330 329 329 328 328 329 329 329 329 329 330 330 331 331 331 331 331 330 330 331 331 331 331 330
331 330 329 328 327 327 328 330 331 332 331 331 331 330 330 330 330 329 328 327 328 327 328 328 328 329 329 329 329 329 330 331 331 329 330 330 329 330 331 331 332 331
333 331 330 327 327 328 329 330 331 331 331 330 330 329 329 328 327 327 326 327 327 327 328 328 328 329 329 329 329 329 330 331 330 329 329 329 329 329 329 330 331 331
333 331 329 328 328 329 328 329 330 330 329 329 329 328 327 327 327 327 327 327 327 326 327 327 327 327 328 328 328 328 330 330 329 329 328 328 328 328 328 328 328 329
333 331 328 328 328 327 327 328 329 329 329 328 329 328 327 327 327 327 326 326 326 325 325 325 325 325 326 327 326 327 329 329 329 329 328 327 327 328 327 327 328 328
333 331 329 329 327 326 327 328 329 329 329 328 328 328 327 327 327 326 325 325 325 324 324 325 325 325 326 326 326 327 328 328 328 327 326 326 326 326 326 325 328 328
333 330 329 328 327 327 328 329 329 329 329 328 327 326 326 327 326 325 325 325 324 324 324 324 324 324 325 326 326 327 327 327 327 326 325 325 325 325 324 324 326 328
331 328 328 328 327 329 329 329 329 329 328 327 326 326 326 326 325 324 324 324 324 323 322 322 322 323 323 324 324 325 326 325 325 324 324 324 323 323 323 323 324 325
329 327 327 328 328 329 329 329 328 328 327 326 325 326 326 325 324 324 323 323 323 323 322 321 321 321 322 322 322 323 324 324 323 323 323 323 322 322 322 321 322 323
328 328 327 328 329 328 328 328 328 327 327 325 326 325 325 324 323 323 323 324 323 323 322 320 320 320 320 321 321 321 322 322 322 323 322 322 322 321 321 320 321 322
328 328 328 328 329 328 328 328 327 326 325 325 325 324 323 323 323 323 323 323 323 323 321 320 319 319 320 320 320 320 321 322 322 322 322 322 321 321 321 321 321 321
328 328 327 327 328 327 327 327 326 326 325 325 325 324 323 323 322 321 321 322 323 322 321 320 319 318 319 319 319 318 320 321 321 321 321 321 321 321 321 321 321 321
328 328 327 327 326 326 326 326 326 325 325 325 324 323 322 321 320 320 321 322 323 322 321 320 319 318 317 318 318 318 318 320 321 320 320 320 320 320 320 321 321 320
327 327 326 326 326 326 326 326 326 326 325 325 324 322 321 320 321 322 322 322 321 321 319 317 317 317 316 316 317 317 317 319 319 319 319 319 318 318 318 320 320 320
322 323 323 323 324 325 326 326 325 324 324 323 323 322 321 322 322 322 321 320 320 318 315 313 313 313 313 314 314 315 315 316 317 318 319 318 318 318 318 319 320 320
317 319 321 321 322 323 324 324 323 323 323 322 322 321 321 321 321 320 320 319 317 315 313 312 312 311 311 311 311 312 312 313 315 318 319 317 318 319 319 320 320 321
314 316 318 319 320 321 321 321 321 321 321 321 321 320 319 319 318 318 317 316 315 314 313 313 312 312 312 311 311 311 310 311 316 319 318 318 319 319 319 319 320 321
310 312 313 315 316 317 317 316 316 316 317 318 319 318 317 316 315 315 314 314 314 314 314 313 312 312 312 312 312 312 312 314 319 320 318 319 320 320 320 321 322 322
308 308 309 310 311 311 312 312 313 313 314 315 316 315 315 314 314 313 312 311 310 310 311 312 312 311 311 312 313 314 315 316 317 318 319 320 320 320 321 321 321 321
306 306 307 307 307 308 308 309 310 310 312 313 313 313 313 312 312 311 310 308 308 308 308 308 308 308 308 308 309 311 313 314 314 314 316 317 317 318 319 319 318 318
304 305 305 305 306 307 307 307 307 308 309 309 309 310 310 310 310 310 308 308 308 307 307 306 305 305 306 306 306 306 308 311 312 311 311 311 311 313 315 316 315 315

ECMWFNIL_925_thetae_051.txt.gz
Theta_e
332 333 334 333 331 331 332 332 331 331 331 332 333 333 333 333 333 333 333 333 333 333 333 332 332 331 332 332 332 332 331 332 332 332 332 332 331 332 331 331 331 329
332 334 334 333 332 331 331 330 330 330 331 332 333 333 333 333 333 333 333 333 333 333 332 332 332 332 332 332 332 332 332 332 333 332 332 332 331 331 331 331 331 330
333 333 333 333 332 331 330 329 329 330 332 333 333 334 333 333 333 332 332 332 332 332 332 332 332 332 332 332 332 332 332 332 332 332 332 331 331 331 331 332 332 330
333 333 332 332 331 330 328 327 327 329 332 333 334 334 333 333 333 333 333 332 332 332 332 332 332 333 332 331 332 332 332 332 332 331 331 331 330 330 331 332 332 330
333 333 332 331 330 328 327 326 327 330 332 332 333 333 332 332 332 333 332 332 332 332 332 331 331 332 332 332 332 331 332 332 332 331 331 331 330 330 330 330 330 329
334 333 332 330 328 326 325 326 327 329 331 331 332 332 331 331 331 332 331 331 331 330 330 331 331 331 331 331 331 331 331 331 331 330 330 330 330 329 329 329 329 328
333 332 329 327 326 325 325 326 328 329 330 331 332 331 331 330 331 331 330 330 329 328 329 331 330 330 330 330 331 331 331 330 330 330 330 330 330 329 329 330 329 329
330 330 327 325 325 325 325 327 329 329 331 332 331 331 330 330 330 330 329 329 328 328 328 329 329 329 329 329 330 330 330 330 331 331 331 331 330 330 330 330 330 330
329 327 326 326 326 326 326 328 330 331 331 332 331 330 329 330 330 330 328 327 327 327 328 328 328 329 328 329 329 329 330 331 330 330 330 330 329 330 331 331 331 331
330 328 326 328 328 327 327 329 331 332 331 331 330 330 330 329 329 327 326 326 327 327 328 327 328 328 327 328 328 328 330 330 330 330 329 329 329 329 329 330 331 331
332 330 328 329 329 327 327 330 331 331 330 330 330 329 328 328 327 326 326 327 327 327 327 326 327 327 327 327 327 327 329 329 329 328 328 328 328 328 327 327 329 329
332 331 330 329 328 327 328 330 331 330 329 329 328 327 326 326 326 326 327 326 325 325 325 325 326 326 326 326 326 327 328 328 328 328 327 327 327 327 327 326 327 328
332 332 331 330 328 328 329 330 330 329 328 328 327 326 326 327 326 326 325 324 324 324 324 324 325 325 325 326 326 326 327 327 327 326 326 326 325 326 326 326 327 327
331 331 331 329 328 328 329 329 329 328 328 328 327 327 327 327 326 325 324 324 323 323 323 323 324 325 325 325 326 326 326 326 326 325 325 325 324 324 324 325 325 326
330 331 330 329 328 329 329 329 328 328 328 327 327 326 326 326 325 324 324 323 322 322 321 322 323 323 323 324 324 325 324 324 324 324 323 323 323 323 323 324 325 325
329 330 330 329 329 329 329 329 328 328 327 326 326 326 325 324 324 324 323 322 321 320 319 319 319 319 320 321 322 323 323 323 323 323 323 322 322 322 323 324 324 324
329 329 329 329 329 329 328 328 328 327 326 326 326 325 324 323 323 323 322 321 320 319 319 318 317 317 317 319 320 322 322 322 322 322 322 321 321 321 322 322 322 322
327 328 329 329 329 329 328 328 327 326 325 325 325 324 323 323 323 322 321 320 319 319 318 317 317 316 317 317 319 320 321 321 321 321 320 320 320 321 321 321 321 321
326 327 327 327 328 328 327 327 326 325 325 325 323 323 322 322 321 321 319 318 318 318 317 316 316 316 316 317 317 318 319 319 320 320 319 319 319 319 320 320 321 320
325 325 324 324 325 325 325 326 325 325 325 324 322 321 321 320 320 319 317 316 316 315 314 313 313 313 314 315 316 317 317 317 317 318 319 319 319 319 320 320 321 321
321 322 323 323 324 324 324 324 324 323 323 322 321 320 319 318 317 316 314 313 312 312 312 311 311 310 311 312 313 315 315 315 315 317 318 319 319 320 320 321 321 320
314 316 318 319 320 321 321 321 321 320 319 319 319 318 317 316 315 314 313 312 312 312 312 311 311 311 310 310 311 311 312 313 315 318 319 319 319 319 320 320 320 320
309 310 311 313 315 316 315 316 316 316 316 317 316 315 314 314 314 313 313 313 312 312 313 312 312 311 311 311 311 312 312 314 317 319 319 319 320 320 321 320 320 319
307 307 307 309 311 311 311 312 313 313 314 315 315 313 312 312 312 312 312 312 312 312 312 312 312 311 312 312 312 313 313 315 316 318 318 318 318 318 319 319 317 316
306 306 306 307 308 309 310 310 311 311 311 312 312 311 311 311 312 312 312 311 311 310 309 309 309 309 310 312 312 312 312 312 313 314 315 315 315 315 314 314 313 312
305 305 306 306 306 307 308 309 310 310 310 311 310 310 311 311 311 311 310 309 308 308 307 307 307 307 309 310 311 310 309 309 308 309 311 312 313 313 312 311 311 310

ECMWFNIL_925_thetae_054.txt.gz
Theta_e
332 332 331 331 332 332 331 332 332 333 333 334 335 335 334 333 333 333 333 334 333 333 334 334 333 333 332 332 332 332 331 331 332 332 331 331 331 329 329 329 329 329
331 331 331 331 333 332 332 333 333 333 334 334 333 333 333 333 332 333 334 333 333 334 335 334 333 332 331 332 332 331 331 331 331 331 330 330 330 330 330 329 329 329
332 331 331 332 332 332 331 331 331 332 333 332 331 332 333 333 333 333 334 333 333 334 334 334 333 332 331 332 332 331 331 331 331 330 330 330 330 330 330 330 329 329
332 332 331 332 331 331 331 329 329 331 331 330 330 331 331 332 333 333 333 332 332 333 333 333 332 331 331 332 332 331 330 330 331 331 331 331 330 330 330 330 330 329
332 332 331 331 331 331 330 330 330 330 330 330 331 332 331 332 333 332 333 332 332 332 332 332 332 331 331 332 331 331 330 331 332 332 332 331 331 331 331 331 330 330
332 332 332 331 331 331 331 331 329 328 330 331 332 332 332 333 332 332 332 332 332 332 331 332 332 332 332 332 331 331 331 331 332 332 332 332 332 331 331 331 331 331
332 332 332 332 331 331 330 329 327 327 330 332 331 332 333 333 333 332 332 332 332 331 331 332 332 332 332 331 331 331 331 332 332 331 331 331 331 331 331 331 331 332
332 332 332 331 331 328 327 327 327 327 330 331 332 333 333 333 333 332 332 332 331 331 331 331 332 332 332 331 331 331 331 332 331 330 330 330 330 330 330 330 330 331
332 332 332 331 329 327 325 326 327 327 330 331 332 333 333 332 332 332 332 332 331 331 331 331 331 331 331 331 331 331 331 331 331 331 330 330 330 330 329 329 329 329
332 332 332 330 329 328 326 325 326 327 330 331 332 333 332 331 332 332 331 331 330 330 330 330 330 330 330 330 330 331 331 330 330 330 330 330 330 330 329 329 329 329
330 330 331 330 329 328 326 325 325 327 329 330 331 332 331 330 331 331 330 330 329 328 330 330 329 328 329 329 329 330 330 330 330 330 330 330 330 330 329 329 330 330
329 329 330 330 328 327 326 325 325 327 329 330 330 330 330 330 331 330 329 329 328 328 328 328 328 328 328 328 329 328 329 330 330 330 330 330 330 329 329 329 330 330
329 329 329 329 328 327 325 324 326 328 330 330 330 328 328 329 330 329 328 327 327 327 328 327 327 327 327 327 328 328 328 329 330 329 330 330 329 328 328 328 329 329
327 327 328 328 328 327 325 325 327 329 329 328 328 328 327 327 327 326 326 326 326 327 327 327 327 327 327 327 327 327 327 328 329 328 328 328 327 327 328 327 327 327
326 327 327 327 327 328 327 327 328 329 327 325 326 328 326 325 326 326 325 325 325 325 326 327 327 327 326 326 326 327 326 327 328 327 327 327 326 326 326 326 326 326
326 327 327 327 328 328 328 328 329 329 327 324 326 326 325 325 326 325 324 323 323 324 324 325 326 326 326 325 326 326 326 326 326 325 325 325 324 324 325 325 325 325
326 327 326 327 328 328 328 329 328 326 324 324 326 326 325 325 325 323 322 322 322 322 322 322 322 323 324 325 325 325 325 325 324 324 324 323 322 323 323 323 324 325
325 326 325 326 328 328 328 328 327 325 324 324 325 326 324 323 322 320 320 320 319 319 319 318 319 320 321 323 324 323 323 322 322 322 322 321 321 322 323 323 324 325
323 326 325 325 326 327 327 327 326 325 323 322 323 324 323 321 319 318 317 317 317 317 317 316 317 317 318 320 321 320 321 321 320 320 320 321 321 321 322 324 324 324
319 324 326 325 325 325 325 325 324 324 322 322 322 322 320 318 316 315 315 314 315 315 315 315 315 315 317 318 318 318 318 320 320 319 318 319 320 321 321 323 323 322
312 318 323 325 324 324 323 322 322 321 320 320 320 318 317 315 314 314 313 313 313 314 314 313 313 314 315 317 316 316 317 318 319 319 318 319 320 320 320 320 320 319
307 310 317 321 322 323 322 319 318 317 315 316 316 314 313 313 312 311 311 311 311 311 312 311 311 311 313 314 315 314 315 317 319 319 319 319 319 319 319 318 317 316
307 306 310 314 317 318 317 315 314 313 311 311 311 311 310 310 310 309 309 309 309 310 310 310 310 311 312 312 313 313 315 318 319 319 319 318 317 316 316 315 314 314
307 306 307 308 310 312 313 312 311 311 309 308 308 308 308 308 309 309 308 309 309 309 309 310 310 310 311 312 314 315 316 318 318 318 317 315 314 312 312 313 313 313
307 307 306 306 307 307 308 309 309 309 309 308 308 307 307 307 308 308 307 307 308 309 309 310 309 309 310 311 314 316 318 318 318 317 315 312 311 311 310 311 311 311
306 306 306 307 307 306 306 307 307 308 309 309 307 306 306 307 307 308 306 305 307 308 309 310 310 309 309 310 311 314 317 317 317 316 313 310 309 309 308 308 308 309

ECMWFNIL_925_thetae_057.txt.gz
Theta_e
331 330 329 329 329 330 330 330 330 330 330 329 329 331 332 332 333 333 333 333 332 332 332 332 333 333 333 334 333 333 333 333 333 333 332 332 331 331 331 330 329 329
329 329 329 330 331 331 331 331 330 329 330 329 328 330 332 331 332 332 333 333 333 332 332 333 333 333 333 333 334 333 333 333 333 332 331 331 331 331 331 331 330 329
330 328 329 331 331 332 331 330 330 329 329 329 329 330 331 331 332 332 332 333 333 333 333 333 333 333 333 333 333 333 333 333 332 331 331 330 330 331 331 330 330 329
330 328 329 331 331 331 331 331 330 329 330 329 330 331 332 332 332 331 331 331 332 333 333 332 333 333 332 332 332 332 332 332 331 330 330 329 329 331 331 330 329 329
329 329 330 331 331 331 331 331 331 330 331 330 331 332 332 332 332 331 331 331 332 332 332 332 333 333 332 331 331 331 332 331 330 330 330 330 330 331 331 330 329 329
328 329 330 331 331 331 330 331 331 331 331 331 331 333 332 331 331 331 331 331 332 332 332 333 333 333 332 331 331 331 331 331 330 330 330 330 330 330 330 330 329 329
329 329 330 331 331 331 331 331 331 331 332 332 332 332 331 331 331 331 330 331 331 332 333 333 333 332 331 330 331 331 331 330 330 330 330 330 330 330 330 330 329 330
329 329 330 331 331 331 331 331 330 331 331 332 332 331 330 329 330 331 330 330 330 332 333 332 332 331 331 330 331 332 331 330 329 330 330 330 330 330 330 330 330 330
329 329 330 331 330 330 331 331 331 330 330 331 330 329 329 329 330 330 330 330 330 332 332 331 331 331 331 331 331 331 331 330 330 330 331 331 331 331 331 331 331 331
327 328 329 330 329 330 330 330 331 331 330 329 328 329 330 330 330 330 330 329 331 332 331 331 331 331 331 331 331 331 331 331 331 331 331 331 331 331 331 331 331 331
328 327 328 328 328 329 329 330 330 330 329 327 328 330 331 330 330 330 329 330 331 332 331 331 331 331 332 331 331 331 331 331 331 331 331 331 330 330 330 330 330 330
327 328 328 327 326 327 328 328 328 327 327 327 327 329 330 331 331 328 328 330 332 331 331 331 331 331 331 331 331 331 331 331 330 331 331 330 330 329 330 330 329 329
326 327 327 327 326 326 327 327 327 326 326 327 328 329 328 329 329 328 328 329 331 331 331 331 331 331 331 330 330 330 330 330 330 330 330 330 329 329 329 330 329 329
324 326 326 327 327 327 326 326 326 325 325 327 328 329 329 327 327 329 329 328 329 331 330 330 330 330 330 329 329 329 329 330 330 330 330 329 329 330 329 330 329 329
320 324 325 326 327 327 326 326 325 325 326 327 328 329 330 328 326 328 329 327 328 330 329 329 330 330 329 328 328 328 328 328 329 329 329 330 330 330 330 329 328 328
316 319 323 326 326 326 326 326 325 325 326 327 328 329 329 329 327 327 327 327 329 329 327 328 329 329 328 328 327 328 328 327 328 329 329 329 329 329 329 328 327 327
313 315 319 323 326 327 327 326 325 325 326 328 328 328 327 328 327 326 326 327 327 327 326 327 327 327 327 327 327 327 327 327 327 328 328 328 328 328 327 326 327 327
312 314 316 320 324 326 327 326 326 326 326 328 328 326 326 326 326 325 325 326 326 325 325 326 326 327 327 326 326 326 326 326 327 327 327 326 326 326 325 325 325 325
310 313 315 318 322 325 326 326 326 326 327 327 327 325 324 324 324 323 323 324 323 323 323 323 325 326 326 326 325 325 326 326 326 326 325 324 324 323 323 323 324 324
308 311 314 316 319 324 325 325 325 326 326 325 325 324 322 321 321 321 321 321 321 321 320 320 322 323 324 325 325 325 325 324 324 323 323 322 322 322 322 322 323 324
307 309 311 312 315 319 323 324 324 324 324 322 322 321 319 318 318 319 318 317 316 317 318 318 318 319 321 322 323 323 323 322 321 321 321 321 321 322 323 323 323 324
306 307 308 309 310 313 318 322 324 322 321 320 319 316 313 312 313 314 314 313 313 314 315 316 315 316 317 320 321 321 320 320 320 320 320 320 320 321 321 321 321 322
306 306 307 307 307 308 310 315 320 320 319 318 315 311 309 308 308 309 310 311 311 312 313 314 313 314 315 317 318 319 319 319 318 318 318 318 317 316 317 317 316 317
306 306 306 306 306 306 305 307 311 314 314 313 311 308 306 306 305 306 308 309 310 311 312 313 313 314 315 316 317 318 319 319 318 317 316 315 314 313 313 314 313 313
306 306 306 306 305 305 304 304 305 306 307 308 308 306 304 303 303 305 306 307 308 310 311 312 313 314 315 316 317 317 317 318 317 316 314 311 311 311 310 310 311 311
306 306 306 306 305 305 304 303 303 302 303 303 304 303 303 303 303 304 305 305 307 309 310 312 313 313 313 315 316 316 316 316 316 316 313 310 309 309 308 308 308 308

ECMWFNIL_925_thetae_060.txt.gz
Theta_e
331 332 331 330 330 331 331 330 329 329 330 330 330 330 329 328 329 330 331 332 332 332 331 331 331 329 329 331 332 331 330 330 331 332 331 331 331 330 330 330 330 329
330 330 330 329 329 330 330 330 330 329 329 329 329 329 329 328 328 330 331 331 331 331 331 330 331 330 329 331 332 332 331 329 329 331 331 331 331 330 330 330 329 329
328 327 328 328 328 329 329 330 330 330 330 330 329 329 329 329 329 330 331 331 331 332 331 330 330 331 331 331 332 332 331 330 330 332 332 331 331 331 331 330 329 329
328 327 327 327 328 328 328 329 330 330 330 330 329 329 329 329 329 331 331 331 332 333 332 330 330 331 332 332 332 333 332 332 332 333 332 332 332 332 332 331 329 330
328 328 327 327 327 327 328 329 330 330 331 330 330 329 328 329 330 331 331 330 331 332 332 330 330 331 333 332 333 333 332 332 332 333 332 332 332 332 331 331 329 330
328 328 328 327 327 327 327 328 329 330 331 330 330 329 328 329 330 330 331 331 331 332 331 330 330 331 332 332 333 333 332 332 332 333 332 332 332 331 331 330 329 330
328 328 328 328 328 327 327 327 328 329 330 330 330 329 328 328 328 329 331 332 331 331 330 331 331 331 332 332 332 332 331 331 331 332 332 331 330 330 330 330 330 330
328 328 328 328 328 328 328 328 328 328 329 330 330 329 329 329 328 329 331 332 330 330 330 331 332 331 332 332 332 331 331 330 330 331 331 330 330 329 329 330 330 330
327 328 328 328 328 328 329 329 328 328 329 329 330 330 329 329 329 331 331 331 330 330 331 331 332 331 332 332 332 331 330 330 330 330 330 330 330 330 330 330 330 330
325 327 328 328 327 327 328 328 328 328 328 329 329 329 329 330 330 331 331 331 330 330 331 331 332 332 332 332 332 331 330 330 330 329 330 330 329 330 330 330 330 330
322 324 326 327 328 327 327 327 328 328 328 328 328 327 328 329 330 330 330 330 330 330 330 330 331 332 332 331 331 330 330 330 330 329 329 330 329 329 330 330 330 330
318 320 322 324 327 328 327 326 327 328 328 328 327 327 327 328 328 329 329 329 330 330 330 330 330 331 331 331 331 330 330 331 330 329 329 329 329 330 330 331 331 330
315 316 318 321 323 326 327 326 326 327 328 328 327 327 327 327 328 328 329 329 329 329 329 330 330 330 330 330 331 330 330 331 330 330 330 329 330 330 331 331 330 330
311 314 316 318 321 323 326 327 326 327 327 327 327 328 328 328 328 329 329 329 328 329 329 330 329 329 329 330 331 331 330 331 330 330 330 330 330 331 330 330 329 328
308 311 314 316 319 321 324 326 326 326 326 326 326 327 328 328 328 329 329 329 329 328 328 329 329 328 329 330 331 331 330 330 330 330 330 330 330 330 330 329 329 329
306 309 312 314 317 319 322 324 326 326 326 326 326 326 327 327 328 329 329 329 329 329 328 328 328 328 330 330 330 330 330 330 330 330 330 330 329 329 329 329 328 329
305 307 310 312 315 317 320 323 325 326 326 325 325 325 326 327 327 328 329 329 329 328 327 327 328 329 330 330 330 330 329 329 329 329 329 329 329 329 329 329 329 329
305 305 307 310 313 316 319 321 324 326 326 325 325 326 326 327 327 328 328 328 328 328 328 327 328 329 329 329 330 329 328 328 328 328 328 328 329 329 329 329 329 329
304 305 305 307 310 314 318 321 323 325 326 325 325 326 327 327 327 328 328 328 327 327 327 327 327 328 328 328 329 328 327 327 328 327 327 327 328 329 328 329 329 327
304 304 305 306 308 310 315 318 321 324 325 325 325 325 326 326 327 326 326 326 326 327 327 326 327 327 327 327 328 327 326 326 327 327 326 327 327 327 327 327 326 325
304 304 304 305 306 308 310 313 315 319 323 324 325 325 324 325 325 324 324 324 324 325 325 325 326 327 326 326 327 326 326 326 326 326 326 326 325 324 324 324 324 324
303 304 304 304 304 305 307 307 308 311 313 316 319 322 322 321 321 321 321 321 322 322 322 323 325 326 325 325 326 326 325 325 325 324 324 323 322 322 322 322 322 323
303 303 303 303 302 303 303 304 304 304 306 307 310 313 315 315 315 316 316 316 317 317 318 321 323 323 323 324 324 324 324 323 322 322 320 320 320 320 320 321 321 322
303 303 303 303 302 302 302 302 302 302 302 303 303 303 305 307 309 310 310 310 310 311 314 318 320 320 320 321 321 321 322 322 320 319 318 317 318 318 318 319 319 319
304 303 303 303 302 302 301 301 302 301 301 301 301 300 300 301 303 305 306 306 307 308 310 313 316 316 317 318 317 318 319 320 319 318 316 314 314 313 313 314 315 316
304 303 303 303 303 302 302 301 301 301 301 301 300 300 300 300 301 302 303 304 305 306 307 308 309 311 312 313 314 315 316 317 317 317 315 312 310 309 309 309 310 313

ECMWFNIL_925_thetae_063.txt.gz
Theta_e
328 328 328 328 329 329 329 330 329 329 330 330 330 331 331 330 330 329 329 328 328 329 329 330 331 331 330 331 330 329 330 330 329 329 328 329 330 331 331 331 331 330
328 328 328 328 328 328 328 328 329 329 329 330 330 330 330 330 330 330 329 328 327 328 328 329 330 329 328 329 330 330 330 330 329 329 329 329 330 331 332 331 331 330
328 328 328 328 328 328 328 328 328 328 328 329 329 328 328 329 329 329 329 328 328 327 327 327 330 330 328 329 330 330 330 330 329 329 329 329 330 331 331 331 331 330
327 327 328 328 327 328 328 328 328 328 328 328 327 327 328 328 329 329 329 328 328 327 327 328 330 330 329 328 329 330 330 330 329 329 329 329 330 331 331 331 331 330
325 327 328 327 328 328 328 328 328 328 327 327 327 327 328 328 328 329 328 328 329 329 329 330 330 329 328 328 329 330 330 329 328 328 329 330 330 330 331 331 330 329
324 326 327 328 328 328 328 328 328 328 327 327 328 328 329 328 328 329 328 328 328 329 329 330 330 329 328 328 329 329 330 330 329 328 329 330 330 330 329 330 330 328
322 323 325 327 328 328 328 328 328 328 327 327 328 328 328 328 328 328 328 327 327 328 329 330 330 330 329 328 328 329 330 329 328 327 328 329 329 328 328 328 329 329
319 322 323 325 327 328 328 328 328 328 328 328 328 328 328 328 328 328 328 327 328 328 329 330 330 331 330 328 328 329 329 329 328 327 328 328 327 327 327 328 329 329
316 319 322 323 324 326 327 328 328 328 328 328 328 328 328 328 328 328 328 328 329 330 330 330 330 330 329 328 328 328 328 328 328 327 327 328 328 328 328 328 329 330
312 314 318 320 321 323 325 327 328 328 328 328 328 328 328 328 328 328 329 329 329 329 330 330 330 330 329 329 328 328 328 328 327 327 327 329 330 330 330 330 330 330
310 311 313 315 318 321 322 324 326 327 327 327 327 327 328 328 328 328 329 329 328 328 328 329 329 329 329 329 328 328 328 327 326 327 328 330 331 331 331 330 330 331
308 309 310 312 314 317 320 322 323 325 326 326 326 327 327 328 328 328 328 328 328 328 327 328 329 329 329 329 327 327 327 327 326 327 329 331 331 331 331 331 331 331
307 308 309 310 311 313 316 319 322 324 325 326 326 327 327 327 328 328 328 328 328 327 327 327 329 329 329 329 328 327 328 329 329 329 330 330 330 331 331 331 331 331
307 307 308 309 310 311 313 316 319 322 324 325 326 327 327 327 328 328 328 328 328 328 327 328 329 329 329 329 329 328 329 331 330 330 330 330 330 330 330 330 330 330
306 306 307 308 308 309 311 313 316 319 322 324 326 326 326 327 327 328 328 328 328 328 328 328 329 329 329 329 329 329 330 330 330 331 330 330 330 329 329 329 329 329
306 306 306 307 307 308 309 310 313 317 320 323 325 325 326 327 327 328 328 328 328 328 328 329 329 329 329 330 329 330 330 330 330 331 331 330 330 330 329 329 329 329
305 305 305 306 306 307 307 308 311 315 318 321 324 325 326 326 327 328 328 328 328 327 328 329 329 329 330 329 329 329 330 331 330 331 331 330 330 330 330 329 329 329
305 305 305 305 305 305 305 306 310 314 317 320 323 324 325 325 326 327 327 327 327 327 328 329 329 329 329 328 328 329 330 330 330 330 330 330 329 330 330 330 329 329
304 304 304 304 304 304 304 304 307 310 314 316 319 323 325 325 326 326 326 326 326 326 328 329 329 329 328 328 328 329 330 330 330 329 330 329 329 329 329 329 328 328
304 304 304 303 303 303 303 303 304 306 310 312 314 317 320 323 324 325 325 326 326 325 327 328 329 328 328 328 329 329 330 330 329 329 329 329 328 328 328 328 328 328
304 304 304 303 303 303 303 302 302 303 306 308 309 310 312 316 318 320 322 323 324 322 323 326 327 328 328 328 328 329 329 329 328 328 328 328 327 327 328 328 328 328
304 304 304 303 303 303 302 302 302 302 303 305 306 306 307 308 309 310 312 314 316 317 318 319 322 324 326 327 327 328 328 327 327 327 327 327 326 326 327 328 327 327
303 304 304 303 303 303 302 302 302 301 301 303 304 304 304 303 303 303 305 307 309 312 314 314 315 317 320 324 325 326 325 326 326 325 325 325 325 325 325 325 325 325
302 303 303 303 303 303 303 302 302 302 301 301 302 302 302 302 301 301 302 303 305 307 309 311 312 313 317 320 321 322 323 324 325 324 323 323 323 323 323 322 323 323
302 302 303 303 303 303 303 303 302 302 301 301 301 300 301 301 301 300 299 300 301 303 305 307 308 311 314 315 316 317 320 322 323 322 321 320 320 320 320 320 321 322
302 302 302 302 302 302 302 302 302 302 302 301 300 300 300 300 301 300 299 298 298 300 301 303 304 306 308 310 312 313 315 317 320 321 320 319 318 317 318 318 319 320

ECMWFNIL_925_thetae_066.txt.gz
Theta_e
329 330 330 330 330 330 330 330 331 331 331 332 332 332 333 333 332 332 332 332 332 331 331 331 331 331 331 331 330 329 329 330 330 331 331 331 332 333 334 333 331 332
327 328 329 330 330 330 330 330 330 330 330 331 331 332 332 333 333 332 332 332 332 332 331 330 330 330 330 330 329 328 329 331 331 330 331 331 332 333 334 332 331 332
325 326 327 329 330 330 330 330 330 330 330 330 330 331 332 332 332 331 331 332 332 331 331 330 330 329 329 330 330 329 330 331 331 331 331 331 331 332 334 332 330 331
322 323 324 326 329 330 330 330 331 331 331 331 331 331 331 330 330 330 331 331 331 331 331 330 329 329 329 329 330 330 331 331 331 331 331 331 331 331 332 332 330 331
320 321 322 324 326 328 330 331 331 331 331 331 331 330 330 329 330 330 331 331 331 331 330 330 329 329 328 328 329 330 331 331 331 331 331 331 331 332 332 331 330 331
318 319 321 322 324 326 328 330 330 331 331 331 330 330 330 329 330 331 331 331 331 331 330 330 329 329 328 328 329 330 330 330 329 330 331 331 331 332 332 331 331 331
316 317 319 320 322 324 326 328 329 330 330 330 330 330 329 329 330 330 330 330 331 331 331 330 329 328 327 327 329 330 330 330 329 330 331 331 331 331 331 332 332 331
315 316 317 318 320 322 323 325 327 328 329 330 330 329 329 329 329 330 330 330 331 330 330 330 330 329 328 328 329 330 330 330 330 330 330 331 331 331 331 331 332 332
314 314 315 316 317 319 320 322 323 325 327 329 329 329 329 329 329 330 330 330 330 330 330 330 330 330 329 328 327 329 330 329 330 330 330 331 331 331 331 331 331 332
313 313 313 314 315 316 317 318 320 322 324 327 328 329 329 329 329 329 330 330 330 330 330 331 330 330 329 329 328 329 330 329 329 330 330 330 330 330 331 331 331 331
312 313 312 312 313 314 315 316 317 320 322 325 327 328 328 328 329 329 330 330 330 329 330 331 331 330 329 329 329 329 329 329 329 329 328 329 330 330 330 330 330 331
312 312 311 311 312 313 314 315 316 317 319 322 325 327 328 328 329 329 330 330 330 329 330 331 331 330 330 329 329 328 328 329 328 327 328 329 330 331 330 329 330 330
311 311 310 310 310 311 312 313 314 315 317 319 322 325 327 328 329 329 329 330 330 330 330 330 330 331 331 330 329 328 328 328 328 327 328 329 330 330 330 330 330 330
310 310 310 310 309 310 311 312 313 314 316 317 320 323 326 327 328 329 329 329 329 330 330 330 330 331 331 330 330 329 328 328 327 327 328 330 330 330 330 330 330 330
309 309 309 309 309 309 309 310 310 312 314 316 319 322 324 326 328 328 329 329 329 329 330 330 330 331 331 331 330 329 329 329 328 327 328 329 330 330 329 329 329 330
309 309 309 309 308 308 308 308 308 309 311 312 315 319 323 325 326 327 328 329 329 329 329 330 330 331 331 331 329 328 329 330 329 329 328 328 329 328 328 329 329 330
308 308 308 308 308 307 307 307 307 307 308 308 311 315 320 323 325 326 327 328 328 328 328 329 330 331 331 330 329 329 329 330 330 329 328 329 329 328 328 329 330 331
307 308 308 308 307 307 307 306 306 306 306 306 307 310 315 319 322 323 325 326 327 327 328 328 329 329 329 330 330 329 329 329 329 329 329 329 329 328 328 329 329 329
307 307 307 307 307 307 306 306 306 305 305 305 305 306 309 313 316 318 319 320 322 323 325 327 328 328 328 329 329 329 328 328 328 329 329 328 327 327 328 328 328 329
307 307 306 306 306 306 306 306 305 305 304 304 304 304 305 307 310 312 313 314 315 317 320 323 324 325 325 325 326 326 327 327 327 328 328 326 326 325 326 327 327 329
306 306 306 306 306 306 306 305 305 305 304 303 303 303 302 303 304 307 309 310 311 312 314 316 318 319 320 321 324 325 325 326 326 327 327 328 328 328 328 329 330 329
305 306 306 306 306 305 305 305 305 304 304 303 303 302 302 302 301 302 304 305 307 308 309 309 311 313 315 318 321 324 325 324 324 326 327 328 330 330 330 331 331 330
304 305 305 305 305 305 305 305 305 304 304 303 303 302 302 301 301 301 301 301 303 304 306 305 305 307 310 314 317 320 322 323 324 326 327 328 329 329 329 330 331 330
304 304 304 305 305 305 304 304 305 304 304 304 303 303 302 301 301 300 300 300 300 301 303 304 303 303 306 310 313 315 317 320 322 324 325 326 326 327 326 327 328 329
303 303 304 304 304 304 303 303 304 304 304 304 304 303 303 302 301 300 300 300 299 299 300 302 303 303 304 306 309 311 314 317 319 321 324 324 324 324 324 323 324 326
303 303 303 303 303 303 303 303 303 303 302 303 303 303 303 303 302 301 300 299 299 299 299 299 301 302 303 303 305 307 311 314 315 317 321 323 322 321 321 320 320 322

ECMWFNIL_925_thetae_069.txt.gz
Theta_e
328 328 329 330 331 332 332 333 333 333 334 334 333 334 335 335 336 336 337 337 336 336 336 335 335 334 334 334 334 335 335 334 333 332 332 332 332 332 332 332 332 331
326 326 327 328 329 330 330 332 333 333 333 333 332 333 333 334 335 335 336 336 336 336 336 334 335 335 334 333 333 334 334 333 332 332 332 332 332 332 332 332 332 332
323 324 325 326 328 329 329 330 331 332 333 332 332 333 333 333 334 333 333 333 333 335 335 334 334 335 334 333 333 333 333 332 331 331 332 332 332 332 332 332 332 332
321 322 323 325 326 327 328 329 331 332 332 332 333 333 333 333 333 333 333 333 332 333 333 332 333 334 333 333 333 333 332 332 332 331 331 332 331 331 332 332 332 332
320 320 321 323 324 325 326 328 330 331 332 332 333 333 333 333 333 333 333 333 333 332 332 333 333 333 333 332 332 332 332 331 331 332 332 331 331 331 332 332 332 333
319 319 319 320 321 322 324 326 328 329 330 331 332 332 332 332 333 333 333 332 332 332 333 334 333 333 333 332 331 331 332 332 331 332 331 331 331 331 332 332 331 332
318 318 318 319 319 320 321 323 324 325 326 327 329 331 331 332 332 332 332 332 332 332 333 333 332 332 332 332 332 331 332 331 330 331 331 330 330 330 331 332 331 331
317 317 317 317 317 317 318 319 320 321 323 324 326 327 329 331 331 331 331 331 332 332 332 331 331 332 332 332 332 331 331 330 329 330 330 330 331 332 332 332 331 331
316 316 316 316 316 316 316 317 318 319 320 322 323 325 327 329 330 331 331 331 331 331 331 331 331 332 332 332 332 331 331 330 329 328 329 330 331 332 332 331 331 331
315 315 315 315 315 315 315 315 316 318 319 319 320 322 324 326 328 330 331 331 331 331 331 331 331 332 332 331 331 330 331 330 329 329 329 330 330 331 331 331 331 332
314 314 314 314 314 314 314 314 315 315 316 317 319 320 322 323 325 328 330 330 330 331 330 330 332 332 331 330 331 331 331 331 331 331 331 330 331 331 330 330 330 331
313 313 313 313 313 313 313 313 314 314 314 315 317 319 320 322 324 326 328 330 330 330 330 330 332 332 330 329 330 331 332 331 331 332 332 331 331 331 331 330 330 330
312 312 312 312 312 312 312 312 312 313 313 313 314 316 317 319 321 324 326 328 329 329 329 329 330 330 329 329 329 331 332 332 331 332 332 331 331 331 331 331 330 331
312 311 312 312 311 311 311 311 311 311 311 311 312 313 313 314 316 319 323 327 328 329 329 328 329 330 329 329 330 331 332 332 332 331 331 331 331 331 331 331 331 331
311 311 311 311 311 310 310 310 310 310 310 309 310 310 310 310 312 314 318 322 325 326 327 328 329 329 328 328 329 330 330 331 331 331 331 331 330 330 330 330 330 330
310 310 310 310 310 310 310 309 309 309 309 308 308 308 307 307 308 310 312 315 318 321 323 325 325 325 326 327 328 329 330 330 330 330 330 330 330 330 329 329 330 331
309 309 309 309 309 309 309 309 308 308 308 307 307 307 306 306 305 306 308 309 312 314 318 320 319 319 323 326 327 329 329 329 329 329 330 330 330 330 330 330 330 331
308 308 308 308 308 308 308 308 308 307 307 306 306 306 305 305 304 304 304 305 307 309 312 315 315 315 318 321 324 327 328 328 328 329 330 331 331 330 330 330 330 330
308 308 308 308 308 308 308 308 307 307 306 306 306 305 305 304 304 303 303 303 303 304 306 310 311 310 312 315 318 322 325 326 327 329 331 331 330 328 328 329 329 329
307 307 307 307 307 307 307 307 307 307 306 306 306 305 305 304 303 303 302 302 302 301 302 305 306 306 308 311 313 317 321 323 325 327 328 329 330 328 328 328 328 328
306 306 306 306 306 306 306 306 306 306 306 306 306 305 305 304 303 303 302 302 301 300 300 302 302 302 304 307 310 313 317 320 323 324 325 326 328 329 329 329 328 327
305 305 306 306 305 305 305 305 305 305 305 306 306 306 305 305 304 303 302 302 301 300 300 300 300 300 301 304 306 309 312 317 320 322 323 324 326 327 328 328 327 326
305 305 305 305 305 305 305 305 304 304 304 304 305 305 305 305 304 304 303 302 301 301 300 299 299 298 299 301 303 305 309 312 316 318 321 323 324 325 326 327 327 326
304 304 304 304 304 304 304 304 304 304 304 304 304 304 304 304 304 304 304 303 302 301 300 299 298 298 298 299 301 303 306 309 312 315 319 322 323 324 325 326 326 326
303 303 303 304 304 304 303 303 303 303 303 303 303 303 303 303 303 303 303 303 303 302 301 300 299 298 297 298 299 301 304 307 311 313 314 316 320 323 324 324 325 326
302 302 303 303 303 303 303 302 303 302 302 302 302 302 302 302 302 302 302 302 302 302 301 300 300 298 297 297 298 299 301 305 308 310 310 311 316 321 323 322 323 323

ECMWFNIL_925_thetae_072.txt.gz
Theta_e
323 324 324 325 327 327 328 330 331 332 332 333 334 334 334 333 334 334 335 335 334 333 333 333 334 333 332 332 331 332 334 335 334 334 334 334 333 333 333 333 333 333
322 322 322 323 324 325 326 327 328 330 332 333 333 333 333 333 333 333 334 335 334 333 333 333 333 333 332 333 331 330 332 334 334 333 334 334 333 332 333 333 333 333
321 321 321 322 322 323 323 324 325 328 330 331 332 332 333 333 333 333 334 334 334 334 333 332 332 332 332 333 331 330 332 334 334 334 334 334 334 333 333 333 333 333
320 320 320 321 320 320 320 322 323 325 325 326 327 328 329 331 331 333 333 333 334 334 334 333 332 332 333 333 332 332 332 333 333 333 333 333 334 333 333 333 333 332
319 319 319 319 319 319 319 320 321 321 322 322 323 324 325 327 328 330 332 332 333 333 333 333 332 332 332 332 332 332 332 332 333 333 333 333 334 333 332 332 332 332
318 318 318 318 318 317 318 318 318 319 320 320 321 322 323 324 325 327 329 330 331 332 331 331 331 330 330 330 330 331 331 332 332 332 333 333 332 332 332 331 332 332
317 317 317 316 316 316 316 316 316 317 318 318 319 320 321 322 323 324 326 327 329 330 330 329 329 329 329 328 329 329 330 331 332 332 332 331 331 331 331 331 332 332
315 315 315 315 315 315 315 315 315 316 316 316 316 317 318 320 321 322 324 325 326 328 329 329 328 328 329 329 329 329 328 329 331 332 331 330 331 332 332 332 331 331
314 314 314 315 314 314 314 314 314 314 314 314 314 315 316 317 318 319 320 322 324 326 329 330 329 327 327 328 328 329 328 327 329 331 331 331 332 332 332 332 331 330
313 313 314 314 313 313 313 313 312 313 313 313 313 313 313 314 314 315 316 319 321 324 327 328 329 328 327 327 328 329 329 328 329 331 331 331 331 331 331 331 331 330
312 313 313 313 312 312 312 312 311 311 312 311 311 311 311 311 311 311 313 315 317 321 324 326 327 327 326 326 327 328 330 329 329 329 330 331 330 329 329 330 330 330
312 312 312 311 311 311 311 311 311 310 310 310 309 309 309 309 308 308 309 312 313 317 321 322 321 320 319 320 323 325 328 329 328 328 329 329 328 327 328 328 329 330
311 310 310 310 310 310 310 310 310 309 309 309 308 308 308 307 306 306 307 308 309 312 316 316 314 315 315 316 318 320 323 326 328 328 329 329 328 327 328 329 328 329
310 310 310 310 309 310 310 309 309 308 308 308 308 307 307 306 305 305 305 305 305 307 311 311 310 309 309 310 313 316 319 322 325 327 328 329 328 328 328 329 328 328
309 309 309 309 309 309 309 309 308 308 307 307 307 306 306 306 305 304 304 304 303 304 306 308 305 303 303 305 307 311 314 318 322 324 327 328 328 328 329 328 328 328
309 308 308 308 308 308 308 308 308 307 307 307 307 306 306 305 305 304 304 303 302 302 303 304 302 299 300 303 305 307 310 314 318 321 325 327 328 328 328 328 329 329
308 308 307 307 307 307 307 307 307 307 307 307 307 306 306 305 304 304 304 303 302 301 301 302 300 298 299 301 304 306 308 311 314 318 321 324 326 328 328 327 328 329
307 307 307 307 306 306 306 306 306 306 306 306 306 306 306 305 305 304 304 303 302 302 301 301 300 298 298 300 302 304 306 309 312 315 318 321 324 326 327 327 327 328
306 306 306 306 306 305 305 305 305 305 305 305 305 305 305 305 305 304 304 303 302 302 301 301 299 298 298 299 300 303 305 308 311 314 316 319 322 323 325 327 328 329
305 305 305 305 305 305 305 304 304 304 304 304 304 304 304 304 304 304 304 303 302 301 301 301 300 298 298 298 299 301 304 307 310 313 315 317 320 322 324 325 326 327
305 305 305 305 304 304 304 304 304 304 304 304 304 303 303 303 303 303 303 303 302 301 301 301 300 298 297 297 298 300 303 306 310 312 313 315 318 320 322 323 324 326
304 304 304 304 304 303 303 303 303 303 303 303 303 303 303 303 303 302 302 301 301 301 300 300 299 298 297 297 297 299 302 305 307 309 311 314 316 318 320 323 324 325
303 303 303 303 303 303 303 302 303 303 302 302 303 303 302 302 302 302 301 300 300 300 299 299 298 297 297 297 297 297 299 301 302 304 307 311 312 314 318 322 324 325
302 302 302 302 303 303 302 301 301 302 302 302 302 302 302 302 302 301 301 300 300 299 299 298 298 297 297 297 297 297 297 297 298 300 302 306 309 311 315 318 321 323
301 301 301 301 302 302 301 300 300 300 301 301 301 301 302 302 301 301 301 300 300 299 299 298 297 297 297 297 297 297 297 297 297 297 299 302 305 307 310 312 313 316
301 301 301 300 300 301 301 300 299 299 300 300 301 301 301 301 301 301 300 300 300 299 299 298 297 296 296 297 297 297 297 297 297 296 297 299 300 301 304 306 307 309

ECMWFNIL_925_thetae_075.txt.gz
Theta_e
319 320 321 320 319 318 318 319 321 322 323 323 323 324 324 324 325 326 327 329 331 331 331 332 332 332 331 331 331 331 331 331 331 331 331 331 332 333 333 332 331 331
318 318 318 317 317 317 317 317 318 319 319 320 320 321 322 322 323 323 324 326 327 328 330 331 331 332 331 330 330 330 330 331 331 331 331 330 330 331 331 332 332 332
317 316 316 316 316 316 316 315 316 316 316 317 317 318 319 320 321 321 322 324 324 326 328 329 330 330 330 330 330 330 330 331 331 331 330 329 328 328 328 330 331 331
315 315 315 315 315 315 314 314 315 315 315 315 315 315 316 317 318 320 321 322 323 325 326 327 328 329 329 329 329 329 329 330 330 331 330 330 329 328 328 329 329 328
314 314 314 314 313 313 312 313 313 313 314 313 313 313 314 314 315 316 317 319 321 323 324 326 328 329 329 328 328 328 328 328 329 329 329 329 329 328 329 329 329 328
313 314 313 313 312 312 311 312 312 312 312 312 311 312 312 312 313 313 314 316 318 321 323 324 325 327 328 328 328 328 328 328 328 328 328 329 329 329 329 330 330 330
313 312 312 311 311 311 311 311 310 311 311 310 310 310 310 310 310 310 311 313 316 319 319 317 318 320 322 323 323 324 326 327 328 328 328 328 328 328 330 331 330 330
311 311 310 310 310 310 310 309 309 309 309 309 308 308 308 307 307 307 308 309 312 314 313 312 312 314 315 317 317 319 321 324 326 328 328 329 328 328 329 330 330 330
310 310 310 310 310 310 309 308 307 308 308 307 307 306 306 305 305 305 306 307 308 310 309 308 309 310 312 312 313 315 317 320 323 326 327 328 328 328 328 329 329 330
309 309 309 309 309 309 308 308 307 307 307 306 306 305 305 305 304 304 304 304 305 306 306 305 305 307 308 308 309 310 312 315 319 321 324 326 327 328 328 329 330 330
309 309 309 309 309 308 308 307 307 307 307 306 305 305 305 304 304 303 303 303 303 304 305 303 301 301 302 304 305 306 309 312 315 317 320 323 326 327 328 328 329 330
308 308 307 307 307 307 307 307 307 307 307 306 305 305 305 304 304 303 303 303 302 302 303 302 299 299 299 300 301 304 306 309 312 315 318 320 323 326 327 328 329 329
307 307 306 306 306 306 306 306 306 306 307 307 306 305 305 304 304 303 303 302 302 301 302 301 299 298 298 298 299 300 302 305 308 312 315 318 320 323 326 328 328 328
307 306 306 305 305 305 305 305 305 305 305 306 306 306 305 305 304 303 303 302 301 301 301 300 299 298 298 298 298 299 300 303 306 308 312 316 319 321 324 326 327 327
306 306 305 305 305 304 304 304 304 304 304 304 304 304 304 305 304 304 303 302 301 301 301 300 298 297 297 297 297 297 298 301 305 307 310 313 316 319 321 325 327 327
305 305 304 304 304 304 303 303 303 303 303 303 303 303 303 303 303 303 303 302 301 300 301 300 298 297 297 297 297 297 298 301 305 307 309 311 312 315 319 322 324 326
304 304 304 304 304 303 303 303 302 303 303 303 302 302 302 302 302 302 302 301 300 300 300 300 298 297 297 297 298 298 298 300 302 304 307 309 310 313 317 320 321 324
304 304 303 303 303 303 303 302 302 302 303 303 302 302 302 301 301 300 300 300 300 299 299 299 298 297 297 297 298 299 299 299 300 302 305 307 310 313 316 318 320 321
303 303 303 301 300 301 302 302 302 302 302 302 302 301 301 301 300 300 300 300 299 299 298 298 297 297 297 297 297 298 299 298 299 300 302 304 307 311 313 315 318 320
302 302 301 299 298 299 300 301 301 301 302 302 302 301 301 300 300 300 300 299 299 299 298 297 297 296 297 297 297 298 298 298 298 298 299 301 304 306 308 309 311 314
301 301 300 299 298 298 298 299 300 300 301 301 302 301 300 300 300 300 300 299 299 298 298 297 297 296 297 297 298 298 297 297 297 297 298 299 300 302 303 304 304 307
300 300 300 299 298 298 298 298 299 299 300 301 301 301 300 300 300 300 299 299 299 298 298 297 296 296 296 297 297 298 297 297 296 297 298 298 298 299 300 300 301 302
300 300 300 299 298 298 297 297 298 299 299 299 299 300 300 300 300 299 299 299 299 298 298 297 296 296 296 296 297 297 297 297 296 297 297 297 297 297 298 298 299 300
299 300 300 299 298 298 297 297 297 298 298 298 298 298 299 299 299 298 298 298 298 298 298 297 297 296 296 296 296 296 296 296 296 296 297 297 297 297 296 297 297 298
299 299 300 299 298 297 297 297 297 297 297 297 297 297 297 298 298 297 297 297 297 297 297 297 296 296 296 296 295 295 295 296 295 295 296 297 296 296 296 296 296 297
299 299 299 299 298 297 297 297 297 297 297 296 296 296 296 297 297 296 296 297 297 296 296 296 296 296 296 296 296 295 295 295 295 294 295 296 296 295 295 295 295 296

ECMWFNIL_925_thetae_078.txt.gz
Theta_e
315 315 315 314 314 314 314 314 314 314 314 314 315 315 316 316 317 318 319 321 322 323 324 325 326 327 328 329 329 329 329 328 328 329 329 329 330 329 329 329 329 328
313 313 312 312 312 313 313 313 313 312 312 312 312 312 313 314 315 316 317 319 321 321 322 323 324 325 326 327 328 328 329 328 328 328 328 329 329 329 329 329 329 328
312 311 311 311 311 311 312 312 311 310 310 310 310 310 311 312 313 314 315 318 318 316 316 318 320 321 323 325 326 326 327 327 327 327 328 328 328 328 329 329 329 328
311 311 311 310 309 310 310 310 310 309 308 308 308 308 308 310 311 312 313 315 314 311 312 314 316 317 318 320 321 322 323 324 325 326 327 327 327 328 328 328 328 328
310 310 310 308 308 308 309 309 308 307 306 306 305 306 306 307 308 309 310 311 310 309 310 311 312 313 314 316 317 317 318 320 322 323 324 325 326 327 327 327 328 328
310 309 308 307 307 307 308 307 307 305 305 304 304 304 304 305 305 306 307 307 307 308 309 309 309 310 310 311 313 314 314 316 318 320 321 322 323 325 327 328 328 328
309 308 308 307 307 307 307 307 306 305 304 304 304 304 303 304 303 303 304 305 305 305 305 305 306 306 307 307 309 310 311 313 315 318 319 319 320 322 324 326 328 328
308 308 308 307 307 307 307 306 306 305 305 304 304 303 303 303 302 302 302 303 304 304 302 302 302 303 303 304 304 306 307 309 311 313 315 317 318 319 321 323 325 327
307 307 307 307 307 307 307 307 306 306 305 304 304 303 303 302 302 301 301 301 302 302 301 299 299 300 300 300 301 302 303 305 307 308 309 312 314 316 319 320 322 325
305 305 305 305 305 306 306 306 306 306 305 305 304 304 303 302 302 301 301 301 301 301 300 299 298 298 298 298 299 299 299 301 303 305 307 308 310 313 316 318 320 322
304 304 304 304 304 304 304 304 305 305 305 305 305 304 303 302 302 301 300 300 301 300 299 298 297 297 297 297 297 297 297 298 300 302 304 306 308 310 312 315 317 320
304 303 303 303 303 303 303 303 303 303 303 304 304 303 303 302 301 300 300 300 300 300 299 298 297 297 297 297 297 297 297 297 297 299 302 304 306 308 310 312 314 317
304 303 303 303 303 303 303 302 302 302 302 302 302 301 301 301 301 300 299 299 299 299 299 298 297 297 297 297 297 296 296 297 297 298 300 302 304 307 309 310 312 315
303 303 302 302 302 303 303 302 302 301 301 301 300 300 300 300 300 300 299 299 298 298 298 297 297 297 296 296 296 296 296 296 297 298 300 301 303 305 308 310 312 314
303 303 302 302 302 302 302 302 302 301 300 300 300 300 300 300 299 299 299 298 298 298 297 297 296 296 296 297 296 296 296 296 297 298 299 301 302 304 306 309 310 311
300 301 302 302 302 301 302 302 302 301 300 300 300 300 299 299 299 299 298 298 297 297 297 296 296 296 296 297 297 296 296 296 297 298 299 300 301 302 304 305 305 307
298 299 300 300 300 301 301 301 302 301 300 300 300 300 299 299 298 298 298 298 297 297 296 296 296 295 296 297 298 297 296 296 297 297 298 299 300 300 301 301 302 303
297 298 299 299 300 300 300 301 301 301 300 300 300 299 299 299 298 298 298 298 297 297 296 296 296 295 296 296 298 298 297 296 296 297 298 298 299 299 299 299 300 301
297 297 298 299 299 299 299 300 300 300 300 300 299 298 298 298 298 298 298 297 297 297 296 296 296 296 295 296 297 298 298 296 296 297 297 297 298 298 298 298 298 299
296 296 297 298 297 297 297 298 298 299 299 299 298 297 297 297 297 297 297 297 296 296 296 295 296 296 295 295 296 297 297 296 296 296 297 297 297 297 297 297 297 298
297 296 296 296 296 295 295 295 296 296 297 297 296 296 296 296 296 297 297 296 296 296 295 295 295 296 296 295 295 296 296 295 295 295 296 296 296 296 296 296 296 297
297 296 296 296 296 295 295 295 295 295 295 295 295 296 296 295 295 295 296 296 295 295 295 295 295 296 296 295 295 295 295 294 294 294 295 296 296 295 295 295 295 296
297 296 296 296 296 296 295 295 295 295 295 295 295 295 295 295 295 294 294 294 294 294 294 294 295 295 296 296 295 295 294 294 294 294 294 295 295 295 294 294 294 295
297 296 296 296 296 296 296 296 295 295 295 295 294 295 295 294 294 294 293 294 294 294 294 294 294 295 296 296 296 295 294 294 293 293 293 294 294 294 294 293 293 294
297 296 296 296 296 296 296 296 295 295 294 294 294 294 294 294 294 293 293 293 293 293 293 294 294 294 295 296 296 295 294 294 293 293 293 293 294 294 294 293 293 293
298 297 296 296 296 296 296 296 295 295 294 294 294 294 293 293 293 293 293 293 293 293 293 293 293 294 295 295 296 296 295 294 294 293 293 293 293 293 293 293 292 293

ECMWFNIL_925_thetae_081.txt.gz
Theta_e
312 312 312 312 312 311 310 310 310 310 309 309 309 309 310 311 312 313 315 315 314 314 315 315 316 316 318 319 321 322 323 324 325 325 326 327 327 327 327 328 328 328
310 311 311 311 311 310 309 308 308 308 308 308 308 309 310 311 311 312 313 312 312 312 313 313 314 314 314 315 317 318 318 319 321 322 323 324 325 326 326 327 327 327
309 309 310 310 309 307 307 306 306 306 306 307 307 307 308 309 310 311 311 311 311 311 311 312 312 312 312 312 313 313 314 314 315 317 319 321 322 323 324 325 326 327
307 308 308 308 307 305 305 305 304 304 305 305 305 305 305 306 308 309 310 309 308 308 309 309 309 309 309 309 310 310 311 311 311 312 315 317 319 320 321 322 324 325
307 307 307 306 305 305 304 304 304 304 303 303 303 303 303 303 304 305 306 306 305 304 305 305 305 305 305 306 306 307 308 310 310 310 311 313 315 316 317 319 321 323
306 306 306 306 305 305 305 304 304 303 303 302 302 302 301 302 302 302 303 303 302 300 300 301 301 302 302 303 304 304 306 307 307 307 307 308 310 312 313 314 316 318
307 307 307 306 306 305 305 305 304 304 303 302 301 301 301 301 300 300 301 301 300 299 298 299 299 299 300 301 302 303 303 303 302 302 301 302 304 307 309 309 309 311
307 306 306 306 306 306 306 305 305 304 303 302 301 300 300 300 300 300 300 300 299 298 298 298 298 298 298 299 299 300 300 299 298 298 298 299 300 301 304 305 305 306
305 305 305 305 305 305 305 305 305 304 303 303 301 300 300 299 299 299 300 299 299 298 297 297 297 297 297 297 297 297 297 296 296 297 298 299 299 300 302 303 304 305
304 303 303 303 303 303 303 303 303 302 302 301 301 300 300 299 299 298 298 299 298 298 297 297 297 297 297 297 296 295 295 296 296 298 299 299 300 301 302 303 304 305
303 302 302 301 301 301 301 301 300 300 300 300 300 300 299 299 298 298 298 298 297 297 297 296 296 296 296 297 297 295 295 296 296 298 299 299 300 301 302 303 304 305
303 302 302 301 300 300 299 299 299 299 299 299 299 299 299 298 298 297 297 297 297 296 296 296 295 296 296 297 297 296 295 296 296 297 298 299 300 300 301 302 304 305
302 302 302 302 301 300 300 299 300 299 299 299 298 298 298 298 297 297 297 296 296 296 296 295 295 295 295 296 297 296 295 296 296 297 298 298 299 300 300 301 302 302
302 302 302 302 301 300 300 300 300 299 299 298 298 298 298 298 297 297 297 296 296 296 296 295 295 295 295 296 296 296 295 295 296 297 297 298 298 299 299 300 300 300
301 301 301 302 301 300 300 300 299 299 299 298 298 298 297 297 297 296 296 296 296 296 295 295 295 295 295 295 296 296 295 295 296 296 297 297 297 297 298 298 299 299
300 300 301 301 301 300 299 299 299 298 298 297 297 297 297 296 296 296 295 295 295 295 295 295 295 295 295 295 295 295 295 295 295 296 296 297 297 296 297 297 298 297
299 300 301 301 300 300 299 298 297 296 296 296 296 296 296 296 295 295 295 295 295 295 295 295 295 295 295 295 295 295 295 295 295 295 296 296 296 296 296 296 296 296
299 299 299 300 300 299 298 296 295 295 295 295 295 295 295 295 295 295 295 295 295 295 295 295 295 295 295 295 295 295 294 294 294 294 295 295 295 295 295 295 295 295
297 297 297 297 297 296 296 295 295 295 295 294 294 294 294 294 295 295 294 294 295 295 295 294 294 295 295 295 294 294 294 294 294 294 294 294 295 295 295 294 294 294
295 295 295 295 295 295 295 294 294 294 294 294 293 293 293 294 294 294 294 294 294 294 294 294 294 294 295 295 294 294 294 294 294 294 294 294 294 294 294 294 294 294
295 295 295 295 295 295 294 294 294 294 293 293 292 292 293 293 293 293 293 294 294 294 294 294 294 294 295 294 294 294 294 294 294 293 293 293 293 293 294 293 293 293
295 295 295 295 295 295 294 294 294 293 293 293 292 292 292 292 292 293 293 293 293 293 294 294 294 295 295 294 294 294 293 293 293 293 293 293 293 293 293 293 293 293
295 295 295 295 295 294 294 294 293 293 293 292 292 292 291 292 292 292 292 292 292 293 293 294 294 295 295 294 294 294 293 293 292 292 292 292 292 292 292 292 292 293
296 296 295 295 295 294 294 294 293 293 293 292 292 292 291 291 291 291 291 292 292 293 293 294 294 295 294 294 294 294 293 293 292 292 292 292 292 292 292 292 292 292
296 296 296 295 295 295 294 294 294 293 293 293 292 292 292 291 291 291 292 292 293 294 294 294 295 295 295 294 294 294 293 293 292 292 292 292 292 292 292 291 291 291
296 296 295 295 295 295 294 294 294 293 293 293 292 292 292 291 291 292 292 293 294 294 295 294 295 295 295 295 295 294 293 292 292 292 292 292 292 291 291 291 291 291

ECMWFNIL_925_thetae_084.txt.gz
Theta_e
310 310 309 307 307 306 306 306 307 307 307 307 307 306 307 308 309 309 308 308 308 308 308 308 308 308 309 309 310 311 312 313 313 314 315 316 317 319 320 321 323 324
309 308 307 306 305 305 304 305 305 305 305 305 305 305 307 308 308 308 306 306 306 306 306 306 306 306 306 306 307 308 309 311 311 312 312 313 313 313 315 317 319 320
307 306 305 305 304 304 304 303 303 303 303 303 303 304 304 306 307 306 304 304 304 304 304 304 304 304 304 304 305 305 306 307 306 307 308 309 308 308 310 311 313 315
305 305 305 305 304 304 303 303 302 302 302 302 302 302 302 303 304 303 302 302 302 302 302 302 302 302 303 303 304 305 305 304 303 303 304 304 304 304 305 306 307 309
305 305 305 305 304 304 304 303 301 301 300 300 300 300 301 301 301 301 300 300 301 301 301 301 301 301 302 302 303 303 302 301 300 300 301 301 301 301 302 303 303 305
306 305 305 305 305 305 304 303 301 300 299 299 299 299 299 299 299 299 298 298 299 299 299 299 299 299 300 301 302 301 298 298 298 299 299 300 300 301 301 302 302 303
306 306 306 306 305 305 304 303 302 300 299 299 298 298 298 298 299 298 297 297 297 297 297 297 297 297 298 299 299 298 296 297 297 298 299 299 300 301 301 301 302 303
306 306 305 305 305 304 303 302 301 300 299 299 298 298 298 297 297 297 297 296 296 296 296 296 296 296 296 297 296 295 295 296 297 297 298 299 299 300 301 301 302 303
304 304 304 303 302 302 301 300 299 299 298 298 298 297 297 297 296 296 296 296 295 295 295 295 295 295 295 295 295 295 295 295 296 297 297 298 299 299 300 301 301 302
301 301 301 300 300 299 299 299 298 298 298 297 297 297 297 296 296 296 296 296 295 295 295 295 295 295 295 295 295 294 295 295 296 297 297 298 298 298 299 299 300 301
299 299 299 299 299 299 299 298 298 298 297 297 297 297 296 296 296 296 296 295 295 295 295 295 294 294 294 295 294 294 295 295 296 296 297 297 297 297 297 297 298 299
300 299 299 299 299 299 298 298 298 298 297 297 296 296 296 296 296 296 295 295 295 295 295 294 294 294 294 294 294 294 295 295 295 296 296 297 297 296 296 296 297 298
300 300 300 300 299 299 298 298 298 297 297 296 296 296 295 295 296 296 296 295 295 295 295 295 294 294 294 294 294 294 294 294 295 295 295 296 296 296 296 296 296 297
301 300 300 299 299 299 298 298 297 297 296 296 296 295 295 295 296 296 296 296 295 295 295 295 294 294 294 294 294 294 294 294 294 294 294 294 295 295 295 295 296 296
301 300 299 299 298 297 297 297 296 296 296 296 296 295 295 295 296 296 296 295 295 295 295 295 294 294 293 293 293 293 294 294 294 294 294 294 294 294 295 295 295 295
301 300 299 298 297 296 295 295 295 294 294 295 295 295 295 295 295 296 295 295 295 295 295 295 294 293 293 293 293 293 293 293 293 293 293 293 293 294 294 294 294 294
300 300 299 297 295 294 294 294 293 293 293 293 294 294 294 295 295 296 295 295 295 295 295 295 294 294 293 293 293 293 292 293 293 293 293 293 293 293 294 294 294 294
300 298 296 295 294 294 293 293 292 292 292 292 293 293 294 294 295 295 295 295 295 295 295 294 294 294 293 293 293 293 292 292 292 292 293 292 292 292 293 293 293 293
297 295 294 294 294 293 292 292 292 291 291 292 292 292 293 293 294 294 294 294 295 295 295 295 294 294 294 293 293 292 292 292 292 292 292 292 292 292 292 293 292 293
295 294 294 294 293 293 292 292 291 291 291 291 292 292 292 292 292 293 294 294 295 295 295 295 294 294 294 293 293 292 292 292 292 292 292 292 292 292 292 292 292 292
294 294 294 293 293 293 292 292 291 291 291 291 291 291 291 291 292 293 293 294 295 295 295 295 294 294 294 293 292 292 292 292 292 292 292 292 291 291 291 291 291 292
294 294 294 293 293 293 292 292 291 291 291 291 291 292 292 292 293 293 294 294 295 295 295 295 294 295 295 293 292 292 292 292 292 292 291 291 291 291 291 291 291 292
294 294 294 294 293 293 293 292 292 291 291 291 292 292 293 293 294 294 294 295 295 295 295 295 295 295 294 292 291 292 292 292 292 291 291 291 291 291 291 290 291 292
295 294 294 294 293 293 293 292 292 291 291 291 291 292 293 293 294 294 294 294 295 295 295 295 295 294 293 291 292 292 292 292 292 292 291 291 291 291 291 290 291 291
295 294 294 294 293 293 293 292 292 291 291 291 291 292 292 293 293 293 294 294 294 294 294 294 294 293 292 291 292 292 292 292 292 292 292 291 291 291 291 291 291 291
295 294 294 294 294 293 293 292 292 292 291 291 291 291 292 292 292 293 293 293 293 293 293 293 293 292 291 291 291 292 293 293 292 292 292 292 291 291 291 291 291 291

ECMWFNIL_925_thetae_087.txt.gz
Theta_e
306 306 306 305 305 304 304 304 305 305 305 305 305 306 306 304 303 302 302 302 302 302 302 302 303 303 304 304 304 305 305 304 305 305 306 306 307 307 307 308 309 309
305 305 305 304 304 303 302 303 304 304 304 304 304 304 304 302 301 301 300 300 300 300 300 301 301 301 301 302 302 302 302 302 302 302 303 303 304 304 305 305 306 306
305 305 305 304 303 302 302 303 303 303 303 303 303 303 303 301 300 299 299 298 298 298 298 299 299 300 299 299 300 301 301 301 301 301 302 302 303 303 304 304 305 305
306 306 305 304 304 303 303 302 302 302 302 302 302 302 301 300 299 298 297 297 297 297 297 297 298 298 298 299 299 300 300 301 301 301 302 302 302 303 303 303 304 304
306 306 306 305 304 303 303 302 302 301 301 301 301 300 299 299 298 297 297 297 296 297 296 296 296 296 297 297 298 299 300 300 300 300 301 302 302 302 303 303 303 304
306 306 306 305 304 303 302 302 301 301 301 300 299 298 298 298 298 297 297 296 296 296 296 296 296 296 296 297 297 298 299 299 299 300 300 301 301 301 301 302 303 303
305 304 304 303 302 302 301 301 300 300 300 299 298 298 297 297 297 297 297 296 296 295 295 295 295 295 296 296 297 298 298 298 299 299 300 300 300 300 300 301 301 302
303 302 302 301 301 301 300 300 300 299 298 298 298 298 297 297 297 297 297 296 296 295 295 295 295 295 295 296 296 297 298 298 298 299 299 299 300 300 300 300 300 301
302 301 301 301 301 300 300 300 299 299 298 298 298 298 297 297 297 296 296 296 296 295 295 295 295 294 295 295 296 297 297 297 298 298 298 299 299 299 299 299 299 300
301 301 300 300 300 300 299 299 299 299 298 298 298 297 297 297 297 296 296 296 296 296 295 295 295 295 294 295 295 296 297 297 297 298 298 298 299 299 299 299 299 299
301 301 300 300 300 299 299 298 298 298 298 298 297 297 297 297 297 296 296 296 296 296 295 295 295 295 295 295 295 296 296 296 297 297 297 298 298 298 298 298 298 298
301 301 300 300 299 299 298 298 298 298 297 297 297 297 297 297 297 296 296 296 296 296 295 295 295 295 294 294 295 295 296 296 296 296 297 297 297 297 297 297 297 297
300 300 299 299 298 298 298 297 297 297 297 297 297 297 297 296 296 296 296 296 295 295 295 296 295 294 294 294 294 295 295 295 296 296 296 296 296 296 296 297 297 296
299 299 298 298 298 297 297 296 296 296 296 296 296 296 296 296 296 296 296 295 295 295 295 295 295 294 293 293 294 294 295 295 295 295 296 296 296 296 296 296 296 296
298 298 297 297 296 295 295 295 295 295 295 295 295 295 296 295 295 295 295 295 295 295 295 295 294 293 292 292 293 293 294 295 295 295 295 295 295 295 296 296 295 295
297 296 296 295 294 294 294 293 293 294 294 295 295 295 295 295 295 295 295 295 295 295 295 295 294 293 292 292 292 293 294 295 295 295 295 295 295 295 295 295 295 295
296 295 295 294 294 293 293 292 293 293 293 294 294 294 294 294 295 295 295 295 295 295 295 295 294 292 292 292 292 292 293 294 295 295 295 295 295 295 295 295 294 294
295 295 294 293 293 292 292 292 292 292 292 292 293 293 293 294 294 295 295 295 295 295 295 294 293 292 292 292 292 292 293 294 294 294 294 294 294 294 294 294 294 294
294 294 293 293 292 292 292 292 292 292 292 292 292 293 293 294 294 295 295 295 295 295 295 294 293 292 292 292 292 292 293 293 294 294 294 294 294 294 293 293 293 293
294 293 293 292 292 292 292 292 292 292 292 292 293 293 294 294 295 295 295 295 295 294 294 293 292 292 292 292 292 292 292 293 294 294 294 294 294 293 293 293 293 293
294 293 293 292 292 292 292 292 292 292 293 293 294 294 294 295 295 295 295 294 294 293 294 293 292 292 292 292 292 292 292 294 294 294 294 294 294 294 294 293 293 293
294 293 293 292 292 292 292 292 292 293 293 294 294 294 294 294 294 294 294 293 293 293 293 293 292 291 292 292 292 292 293 294 294 294 294 294 294 294 294 294 293 293
294 293 293 293 293 292 292 292 292 293 293 293 294 294 294 294 294 293 293 293 292 292 293 293 292 291 291 292 292 292 293 294 294 294 294 294 294 294 294 294 294 293
294 294 293 293 293 292 292 292 292 292 292 292 293 293 293 293 294 294 293 293 292 292 292 292 292 291 291 292 292 292 292 294 294 294 294 294 294 294 294 294 294 293
294 294 294 293 293 292 292 292 292 292 292 292 292 293 293 293 293 293 293 293 292 292 291 292 292 291 291 291 292 292 292 293 294 294 294 294 294 294 294 294 293 293
294 294 293 293 293 292 291 291 291 291 291 292 292 293 293 293 293 293 293 293 292 292 292 292 292 291 291 291 291 291 291 292 293 293 293 294 294 293 294 293 293 293

ECMWFNIL_925_thetae_090.txt.gz
Theta_e
312 311 311 311 310 310 310 310 310 310 309 309 308 308 307 307 306 306 306 305 305 305 305 305 305 306 307 307 307 307 307 307 306 306 307 307 307 307 308 308 308 309
310 310 310 310 309 309 309 309 308 308 308 308 307 307 306 306 305 305 305 305 304 304 304 304 304 305 306 306 306 306 306 306 306 306 307 307 306 307 307 307 307 307
309 309 309 309 308 308 308 307 307 307 307 307 306 306 305 305 304 304 304 304 304 303 303 303 304 304 304 305 306 306 306 305 305 305 306 306 306 306 306 306 306 307
308 308 308 307 307 307 307 307 307 306 306 306 306 305 305 304 304 303 303 303 303 303 303 303 303 303 304 304 305 305 305 305 304 305 306 306 306 306 306 306 306 306
308 307 307 307 307 306 306 306 306 306 305 305 305 305 304 304 303 303 303 302 302 302 302 302 302 303 303 304 304 304 304 304 304 304 305 305 305 305 305 305 305 306
307 307 306 306 306 306 306 305 305 305 305 305 304 304 304 303 303 302 302 302 302 302 302 302 302 302 303 303 303 303 303 304 304 304 304 304 305 305 305 304 304 304
307 306 306 306 306 305 305 305 305 305 305 304 304 303 303 302 302 302 301 301 301 301 301 301 301 302 302 302 302 302 303 303 303 303 303 304 304 304 304 303 303 303
306 306 306 306 305 305 305 305 304 304 304 303 303 302 302 302 302 302 301 301 301 301 301 301 301 301 301 301 302 302 302 302 302 303 303 303 303 303 303 303 303 302
305 305 305 305 305 305 304 304 304 303 303 303 302 302 302 301 301 301 301 301 301 301 301 300 300 300 301 301 301 301 302 302 302 302 303 302 302 302 302 302 302 302
305 305 305 305 304 304 304 303 303 303 302 302 302 302 302 301 301 301 301 301 301 301 300 300 299 299 300 300 301 301 301 301 301 302 302 302 302 301 301 301 301 301
305 304 304 304 304 303 303 303 303 302 302 302 302 301 301 301 301 300 300 300 300 300 299 299 298 298 299 299 300 300 301 301 301 301 301 301 301 301 301 300 300 300
304 304 304 303 303 303 303 303 302 302 302 302 301 301 301 301 300 300 300 300 300 300 299 298 298 297 298 298 299 300 300 300 301 301 301 301 300 300 300 300 300 299
304 303 303 303 303 302 302 302 302 302 302 301 301 301 301 300 300 300 300 300 300 299 298 298 297 296 296 296 297 299 300 300 300 300 300 300 300 300 300 300 299 298
303 303 302 302 301 301 301 301 301 301 301 301 301 300 300 300 300 300 300 300 300 299 298 297 296 295 294 295 296 298 300 300 300 300 300 299 300 300 299 299 298 298
302 301 301 300 300 300 300 301 300 300 300 300 300 300 300 300 300 300 300 300 299 299 297 296 295 294 293 293 295 297 299 300 299 299 299 299 299 299 299 298 297 297
300 300 300 300 300 300 300 300 300 300 300 300 300 300 300 300 300 300 300 299 299 299 297 296 295 293 292 293 294 296 298 299 299 299 299 299 298 298 298 297 297 297
299 299 299 299 299 299 299 299 299 299 299 299 300 300 300 300 300 300 299 299 298 298 297 296 294 292 292 293 294 295 297 298 299 298 298 298 298 297 297 297 297 297
299 299 299 299 299 299 299 299 299 299 299 299 300 300 300 300 300 299 299 299 298 298 297 295 293 292 292 293 294 295 296 297 298 298 298 297 297 297 297 297 296 296
298 298 299 299 299 299 299 299 299 299 299 299 300 300 300 300 299 299 298 298 298 297 296 295 293 292 292 293 294 295 296 297 298 298 297 297 297 297 297 296 296 296
298 298 298 298 299 299 299 299 299 299 299 299 299 300 300 299 299 298 298 298 298 297 296 294 293 292 292 293 294 296 296 297 298 297 297 297 297 297 296 296 296 296
298 298 298 298 298 299 299 299 299 299 299 299 299 299 299 299 298 298 298 298 298 297 296 295 293 292 291 292 294 295 296 297 298 297 297 297 297 296 296 296 295 295
298 298 298 298 298 298 298 299 299 299 299 299 299 299 298 298 298 298 297 297 297 297 297 296 293 292 291 291 293 295 296 297 297 297 297 297 296 296 296 296 295 295
298 298 298 298 298 298 298 298 299 299 299 299 298 298 298 298 297 297 297 296 296 297 297 297 294 292 291 291 291 293 296 297 296 297 297 296 296 296 296 296 295 294
298 298 298 298 298 298 298 298 298 298 298 298 298 298 298 298 297 297 297 296 296 296 296 297 295 292 291 291 291 292 295 296 296 296 297 296 296 296 296 295 295 295
298 298 297 298 298 298 298 298 298 298 298 298 298 298 297 297 297 297 297 297 297 296 295 296 296 294 291 291 291 291 293 295 295 295 296 296 296 295 295 295 295 295
298 298 297 297 297 297 297 297 297 298 298 298 297 297 297 297 297 297 297 297 297 297 296 295 295 294 292 291 291 291 291 293 295 294 295 296 295 295 295 295 294 295

ECMWFNIL_925_thetae_093.txt.gz
Theta_e
316 315 315 314 314 314 313 313 313 312 312 312 312 311 310 309 309 309 309 308 308 309 309 309 309 310 310 310 311 310 309 310 310 311 310 310 310 310 310 310 310 310
314 314 313 313 312 312 312 312 311 311 311 311 310 310 309 308 308 308 308 307 307 308 308 308 308 309 309 309 309 309 308 309 309 310 310 309 309 310 310 310 310 310
312 312 312 312 311 311 311 311 310 310 310 310 309 309 308 308 307 307 307 307 307 307 307 308 308 308 308 308 308 308 308 307 308 308 308 309 308 309 309 309 309 308
311 311 311 311 311 311 310 310 310 310 310 309 309 308 307 307 307 306 306 306 306 306 306 307 307 307 307 307 307 307 307 307 307 307 308 308 308 307 307 307 308 307
311 311 311 310 310 310 310 310 310 310 309 308 308 307 307 306 306 305 305 305 305 305 305 305 306 306 306 307 306 306 307 306 306 307 307 307 307 306 306 307 307 306
310 310 310 310 310 310 310 310 309 309 308 307 307 306 306 306 305 305 304 304 304 304 304 304 305 305 306 306 306 306 306 306 306 306 306 306 306 306 306 306 305 305
309 309 309 310 310 309 309 309 308 308 307 307 306 306 305 305 305 305 304 304 304 304 304 304 304 305 305 305 305 305 305 305 305 305 305 305 305 305 305 305 305 304
309 309 309 309 309 309 308 308 307 307 306 306 306 305 305 305 305 305 304 304 303 303 303 303 303 304 304 304 305 305 305 305 305 305 305 305 305 304 304 304 304 303
309 309 309 309 308 308 307 307 306 306 306 305 305 305 304 304 304 304 304 304 303 302 302 302 302 303 303 304 304 304 305 304 304 304 304 304 304 304 303 303 303 302
309 309 309 308 308 307 307 306 306 306 305 305 305 305 304 304 304 304 304 303 303 302 301 301 301 302 302 303 304 304 304 304 304 304 304 304 304 303 303 303 302 302
308 308 308 307 307 307 307 306 306 305 305 305 305 304 304 304 304 303 303 303 302 301 301 300 300 301 301 302 303 304 304 304 304 304 303 303 303 303 303 302 301 301
308 307 307 307 307 307 306 306 306 305 305 304 304 304 304 304 303 303 303 302 301 301 300 299 299 299 300 301 303 304 304 303 303 303 303 303 303 303 302 301 301 300
307 307 307 306 306 306 305 305 305 305 304 304 304 304 304 304 303 303 303 302 301 300 299 299 298 297 297 299 301 303 303 303 303 303 302 302 302 301 301 301 300 300
306 306 306 306 305 305 305 305 305 304 304 304 304 304 304 304 303 303 302 302 300 299 298 298 297 296 295 297 299 301 303 303 303 302 302 302 301 301 301 301 300 299
305 305 304 304 304 304 304 304 304 304 303 303 303 303 303 303 303 302 302 302 300 299 298 297 296 295 295 296 297 299 301 303 302 302 301 301 301 301 300 300 299 299
304 304 304 304 304 304 304 304 304 303 303 303 303 303 303 303 302 302 302 301 300 299 297 296 295 294 295 296 297 298 300 302 302 301 301 300 300 300 300 299 299 299
303 303 303 303 303 303 303 303 303 303 303 303 303 303 303 303 302 302 302 301 300 299 297 296 294 294 295 296 297 298 299 300 302 301 300 300 299 299 299 299 299 298
302 302 302 302 302 302 302 302 302 303 303 304 303 303 303 302 302 302 302 300 299 298 297 295 293 293 295 296 297 298 299 300 301 301 300 300 299 299 299 298 298 298
301 302 302 302 302 302 302 302 302 302 303 303 303 302 302 302 302 302 302 301 299 298 297 295 293 292 294 296 297 297 298 300 300 300 300 300 299 299 299 298 298 297
301 301 301 302 302 301 301 302 302 302 303 303 302 302 302 302 302 302 302 301 300 298 297 295 292 291 293 295 296 297 298 299 300 300 300 299 299 299 298 298 298 297
301 301 301 301 301 301 301 302 302 302 302 302 302 302 301 301 301 301 301 301 300 300 298 295 292 291 292 294 296 297 298 299 300 300 300 299 299 299 298 298 298 297
300 301 301 301 301 301 301 302 302 302 302 301 301 301 301 301 300 300 300 301 301 300 299 296 293 291 292 293 295 297 298 299 299 299 299 299 298 298 298 298 297 297
300 300 300 300 300 300 301 302 302 301 301 301 301 301 300 300 300 299 299 299 300 300 299 297 294 291 291 292 293 296 298 299 298 299 299 299 298 298 298 298 297 296
300 300 300 300 300 300 301 302 301 301 301 301 301 300 300 300 300 300 299 298 298 299 299 298 295 292 291 291 292 294 297 298 297 297 299 299 298 297 298 298 297 296
300 300 300 300 300 300 301 301 301 301 301 300 300 300 300 299 299 300 300 299 298 297 297 298 298 294 291 291 291 292 294 297 297 296 297 298 298 297 297 297 296 295
300 300 300 300 300 300 300 300 301 301 301 300 300 299 299 299 299 299 299 299 299 298 297 297 297 296 292 291 291 291 292 294 296 296 295 297 298 297 296 297 296 295

ECMWFNIL_925_thetae_099.txt.gz
Theta_e
319 318 317 317 316 315 315 314 313 311 309 308 308 308 308 307 307 307 307 308 308 308 308 308 308 307 307 307 307 308 307 306 306 306 306 306 305 304 303 303 302 302
317 316 316 316 315 314 313 312 311 310 308 307 307 307 307 306 306 306 306 307 307 307 307 307 307 307 306 306 306 306 307 306 305 305 305 305 304 303 302 302 302 301
315 315 315 314 314 313 312 311 310 308 308 307 306 306 306 306 305 305 305 306 306 306 306 306 306 306 306 306 306 306 306 306 305 305 304 304 304 303 302 301 301 301
314 314 314 313 313 312 310 310 308 307 307 307 306 306 305 305 305 305 305 305 305 306 306 306 305 305 305 305 305 305 305 305 305 304 304 304 303 302 301 301 300 299
313 312 312 312 312 311 310 309 308 307 307 306 306 305 305 304 304 304 305 304 305 305 305 305 305 305 305 305 305 305 305 304 304 304 304 304 303 302 301 300 299 299
312 312 311 311 311 310 309 308 307 307 306 305 305 305 304 304 304 303 304 304 304 304 305 305 305 305 305 304 304 304 304 304 304 304 303 303 302 302 301 300 299 299
312 312 311 311 310 309 308 307 307 306 306 305 305 304 303 303 303 303 303 303 303 304 304 304 305 305 304 304 304 304 303 304 304 303 303 302 301 301 301 300 299 299
311 311 311 310 309 308 307 307 306 306 305 305 305 304 303 302 302 302 302 302 303 303 304 304 304 304 304 304 304 304 303 303 303 303 302 302 301 301 300 300 299 299
311 310 310 309 308 307 307 306 305 305 305 305 304 303 303 302 301 300 300 300 301 303 304 304 304 304 304 304 304 304 303 303 303 302 301 301 301 300 300 300 299 298
310 309 308 307 307 306 306 305 305 305 304 304 303 303 302 301 300 300 299 298 299 301 303 304 304 304 304 303 303 303 302 302 302 301 301 301 300 300 300 299 299 298
309 308 307 307 307 306 306 305 305 305 305 304 303 302 301 301 300 298 297 296 296 298 302 304 304 304 303 303 303 302 302 302 301 301 301 300 300 299 299 299 299 298
308 308 307 307 306 306 305 305 305 305 304 304 303 302 301 300 299 297 295 294 294 296 299 302 303 303 303 303 302 302 302 301 301 301 301 300 300 299 298 298 299 299
308 307 307 306 306 305 305 305 304 304 303 303 302 301 300 298 297 295 294 294 294 295 297 300 302 303 303 303 302 302 301 301 301 301 300 300 299 299 297 297 297 298
307 307 306 306 306 305 305 305 304 304 303 303 303 301 299 298 295 293 293 294 295 295 297 298 300 301 302 302 302 302 301 301 300 300 300 300 299 299 298 297 297 297
307 307 306 306 305 305 305 305 304 304 304 303 303 301 300 299 296 293 293 294 295 296 297 297 299 300 300 301 301 302 301 301 300 300 300 300 299 299 298 298 297 296
307 306 306 305 305 304 304 304 304 304 304 303 302 301 300 299 297 294 293 293 294 295 296 297 298 298 299 300 300 301 301 301 300 300 299 299 299 299 298 298 297 296
306 306 305 304 304 304 304 304 304 304 303 303 302 301 300 297 295 294 293 293 294 295 296 297 297 298 298 299 300 301 301 301 300 299 299 299 299 299 298 298 297 296
306 305 305 304 304 304 304 304 303 303 303 302 302 301 299 297 295 293 292 292 293 294 295 296 297 298 299 299 300 300 300 300 300 300 299 298 298 299 299 298 297 296
305 305 304 304 304 304 304 304 303 303 303 302 302 301 299 299 297 294 292 292 292 293 294 295 296 297 298 299 299 300 300 300 300 300 299 297 297 298 299 298 296 296
304 304 304 304 304 304 304 304 303 303 303 303 302 301 300 300 299 296 292 291 292 292 292 294 295 296 297 298 299 299 299 299 299 299 299 297 297 299 299 297 296 296
304 304 304 303 304 304 304 303 303 303 303 303 302 302 301 300 300 298 295 292 291 292 292 292 293 295 297 298 298 298 298 298 298 299 299 298 298 298 298 297 296 296
303 303 303 304 304 303 303 302 302 302 302 302 302 302 301 301 300 300 299 297 293 291 291 292 292 293 294 296 297 297 297 297 297 298 298 298 298 298 298 297 297 296
303 303 303 303 303 303 302 302 302 302 301 301 301 301 302 302 301 300 300 299 295 292 291 291 291 291 292 293 294 294 294 294 295 296 297 298 298 298 298 297 297 297
303 303 303 303 303 303 302 302 302 301 301 301 300 300 301 301 301 301 300 298 295 293 293 291 291 291 291 291 291 291 291 291 292 293 295 297 297 297 297 297 297 296
302 303 303 303 302 302 302 301 301 301 300 300 299 298 298 298 298 298 298 296 295 295 295 294 292 291 290 290 290 290 290 291 291 292 293 295 295 296 296 296 296 295
302 302 303 303 302 302 301 301 301 301 300 300 299 298 298 298 297 296 296 296 296 297 298 297 295 292 291 290 290 290 291 291 291 291 292 293 294 295 295 295 294 294

ECMWFNIL_925_thetae_102.txt.gz
Theta_e
322 320 318 316 315 314 314 313 311 309 307 307 307 307 308 308 307 308 308 308 307 307 307 307 307 307 306 305 304 305 305 304 303 302 301 300 300 299 299 299 298 297
320 318 316 315 314 313 313 313 311 308 307 307 306 306 307 307 307 307 307 307 307 306 306 306 306 306 306 305 304 304 304 303 302 302 301 300 298 298 298 297 296 296
318 316 315 314 313 313 312 311 308 306 306 306 306 305 306 306 306 306 306 306 306 306 306 305 305 305 305 305 304 304 304 303 302 302 301 300 298 297 298 297 296 296
316 315 314 314 312 312 311 309 306 305 306 305 305 305 305 305 306 306 305 305 305 305 305 305 305 305 305 304 304 304 303 303 302 301 301 300 298 298 297 296 296 295
315 314 314 313 312 311 310 307 305 305 305 305 305 305 304 304 305 305 305 305 305 305 304 304 304 304 304 304 303 303 303 303 302 301 300 300 299 298 297 296 296 296
314 313 313 312 311 310 308 306 306 305 305 304 304 305 304 304 304 305 305 305 305 304 304 304 304 304 304 303 303 303 303 302 301 301 300 300 299 299 298 297 296 296
313 312 312 311 309 308 307 306 306 305 304 304 304 304 304 304 304 304 304 304 305 304 304 304 304 303 303 303 303 303 302 301 301 300 300 299 299 299 298 298 297 296
312 312 311 310 308 307 306 305 305 304 304 303 303 303 303 303 303 304 304 304 304 304 304 304 304 303 303 303 303 302 302 301 300 300 300 300 299 298 298 298 297 297
311 311 310 309 307 306 306 305 305 304 303 303 302 302 302 302 302 303 303 304 304 304 303 304 303 303 303 303 302 302 301 300 300 299 299 299 299 298 298 298 297 297
311 310 309 308 307 306 306 305 305 304 303 302 301 301 301 300 301 302 303 303 304 303 303 303 303 303 302 302 301 301 300 300 300 299 299 299 299 298 298 298 298 297
310 309 308 307 306 305 305 305 304 303 303 302 301 301 300 299 299 300 302 303 304 303 303 303 303 302 302 301 301 301 301 301 300 299 298 297 297 297 296 297 297 296
309 308 307 306 305 305 304 304 303 303 302 302 301 300 299 297 296 297 300 302 303 303 303 303 302 302 302 301 301 301 301 301 300 299 298 297 297 297 296 296 296 296
308 307 307 306 305 305 304 304 303 302 302 301 300 299 297 295 294 295 297 300 302 303 303 303 302 302 301 301 301 301 300 300 300 299 299 298 298 297 296 295 295 295
307 307 306 305 305 305 305 304 303 302 301 301 300 298 295 294 293 294 295 298 301 302 303 302 302 302 301 301 301 300 300 300 300 299 299 298 298 298 296 295 295 295
307 306 306 306 305 304 304 304 303 302 301 300 297 295 293 293 293 294 294 296 298 301 302 302 302 301 301 301 301 300 299 299 299 299 299 298 298 298 296 295 295 295
306 306 305 305 305 304 304 303 302 302 301 299 296 293 293 293 293 294 294 295 297 299 300 301 301 301 301 301 300 300 299 299 299 299 299 299 298 297 296 296 295 295
306 305 305 305 304 304 303 302 302 302 301 300 297 294 293 293 293 294 295 296 297 298 299 300 300 301 301 300 300 300 299 299 298 298 299 299 298 297 296 296 295 295
306 305 305 305 304 304 303 303 302 301 301 300 297 294 292 292 293 293 294 295 296 297 298 299 299 300 300 300 300 300 299 299 299 298 298 298 299 297 296 295 295 295
306 305 305 305 305 304 303 303 302 301 301 299 295 292 292 292 293 293 294 295 296 297 298 298 299 299 299 300 300 300 299 300 299 297 297 298 298 297 296 295 295 296
305 305 304 304 304 304 303 302 302 301 300 298 294 292 292 292 292 293 293 294 296 297 297 298 298 298 299 299 299 299 299 299 298 297 298 298 298 297 296 295 296 296
305 304 304 304 304 303 303 302 302 301 300 298 295 293 292 291 292 292 292 293 294 296 297 297 298 298 298 298 298 298 299 298 298 298 297 298 298 297 296 296 296 295
304 304 304 304 304 303 303 302 302 301 300 299 298 295 293 292 291 291 292 292 292 294 295 295 296 297 297 297 297 297 298 298 298 298 297 297 297 297 297 296 296 295
304 304 304 304 303 303 303 302 302 302 301 300 300 298 296 295 293 291 291 291 291 292 292 293 293 295 296 296 295 295 296 297 297 298 297 297 297 297 296 295 295 294
304 304 304 304 303 303 303 303 302 302 301 300 300 300 299 299 297 293 291 291 291 290 291 291 291 291 292 292 292 291 292 294 295 297 297 297 296 296 295 294 294 294
304 304 304 303 303 303 303 303 302 302 301 301 301 301 300 300 299 295 292 293 292 291 290 290 290 290 290 290 290 290 291 292 293 294 295 295 295 295 294 293 294 294
303 304 303 303 303 303 302 302 302 302 302 301 301 301 300 301 299 294 294 295 295 294 293 291 290 290 290 290 290 290 290 291 291 292 292 292 293 293 293 294 294 294

ECMWFNIL_925_thetae_105.txt.gz
Theta_e
323 320 318 316 315 313 311 309 308 308 308 309 309 308 308 307 308 308 308 308 307 306 305 304 304 304 303 303 302 301 299 297 297 297 296 296 295 294 295 295 294 293
321 319 317 316 314 312 310 309 307 307 308 308 308 308 307 307 307 307 307 307 307 306 305 304 303 303 303 302 301 301 299 296 295 295 295 294 294 294 294 294 293 292
320 318 317 315 314 311 309 308 307 306 307 307 307 307 307 307 306 306 306 306 306 305 305 304 303 303 302 302 301 301 298 295 295 295 295 294 294 294 293 293 293 293
318 317 316 314 313 311 309 308 307 306 307 307 306 306 307 307 306 306 305 305 305 305 305 304 304 303 302 302 302 301 299 297 296 296 296 296 295 294 294 294 294 294
317 316 315 313 312 310 308 308 306 305 306 307 306 306 306 306 306 305 305 305 305 305 304 304 304 303 303 302 301 300 299 299 298 298 298 297 296 295 294 294 294 294
315 314 313 312 310 309 308 307 305 305 305 306 306 305 305 305 305 305 305 304 304 304 304 303 303 303 302 302 301 300 299 299 299 298 298 297 297 296 295 294 293 294
314 313 312 311 309 307 307 306 305 305 305 305 305 305 305 304 304 304 304 304 304 304 304 303 303 303 302 301 300 300 300 299 299 298 298 298 297 297 296 294 293 293
313 312 311 309 308 307 306 305 305 305 304 304 304 305 305 304 304 304 304 303 303 303 303 303 303 302 302 301 300 300 300 299 299 299 298 297 297 297 295 293 293 293
312 311 310 309 307 306 305 305 304 304 304 304 304 304 304 304 304 304 303 303 303 303 302 303 302 302 302 301 300 299 299 299 299 298 296 296 296 296 294 293 293 293
311 309 308 307 307 306 305 304 304 303 304 303 303 303 303 304 304 304 303 303 303 303 303 302 302 302 301 300 299 299 299 298 297 296 295 295 294 294 294 294 294 294
310 308 307 306 306 305 304 303 303 303 303 303 303 303 303 303 303 303 303 303 303 303 302 302 302 301 301 299 299 299 298 296 295 295 296 296 294 294 294 294 294 294
309 308 307 306 305 304 304 303 302 302 302 302 301 302 302 303 303 303 303 303 303 303 302 302 301 300 300 300 300 299 298 297 297 297 297 296 295 294 294 294 294 294
309 308 307 305 305 304 303 303 302 302 301 301 301 300 300 302 303 303 303 302 302 302 302 301 300 300 300 300 300 300 299 298 298 297 297 297 296 295 295 295 294 293
309 308 306 305 305 304 303 302 302 302 301 301 300 299 298 300 302 303 302 302 302 302 302 301 301 301 300 301 300 300 299 299 298 298 298 297 296 295 295 295 294 293
308 307 306 305 304 304 303 302 302 302 301 300 299 296 296 298 301 302 302 302 302 302 301 301 301 301 300 300 300 299 299 299 299 298 298 298 297 296 295 295 294 293
307 306 305 305 304 303 302 302 301 301 300 299 296 294 294 296 299 301 302 302 302 302 301 301 301 300 300 300 299 299 299 299 299 299 298 298 297 296 295 295 294 293
307 306 305 304 304 303 302 301 301 301 299 297 294 293 294 295 297 299 300 301 301 301 301 301 300 300 300 299 299 299 299 299 299 299 298 298 297 296 295 295 294 293
306 305 305 304 304 303 302 301 301 300 297 295 293 293 294 294 295 297 299 300 300 301 301 300 300 300 300 299 299 298 298 298 298 298 298 298 297 296 295 295 295 293
306 305 304 304 303 303 302 301 300 299 297 294 292 293 294 294 295 296 297 299 299 300 300 300 300 300 300 300 299 298 298 298 298 297 297 298 297 295 295 295 295 293
306 305 304 304 303 302 301 301 300 300 297 294 292 293 293 294 295 296 297 298 298 299 299 299 300 300 300 300 299 299 299 299 298 297 297 298 297 295 295 295 294 293
305 305 304 304 303 302 301 301 301 300 297 293 292 292 293 293 294 295 296 297 298 298 299 299 299 299 299 299 299 299 299 299 298 297 297 298 297 296 296 295 294 293
305 304 304 304 303 302 301 301 301 300 296 293 292 292 292 293 294 295 295 296 297 298 298 298 298 298 298 298 298 298 298 298 297 297 297 297 297 297 296 295 293 293
305 304 304 304 303 302 302 301 301 299 295 292 291 292 292 292 293 294 295 295 296 297 298 298 298 297 298 298 297 297 297 298 297 297 297 297 296 297 296 294 293 294
305 304 304 303 303 302 302 301 300 298 294 292 291 292 291 292 292 292 293 294 295 296 297 297 297 297 297 296 296 295 295 296 297 297 297 296 296 296 295 293 293 294
305 304 304 303 303 302 302 301 300 299 295 292 291 291 291 291 291 291 291 292 292 293 293 294 294 294 293 293 292 292 293 294 296 297 297 296 296 296 294 293 294 294
305 304 304 303 303 303 302 301 301 300 298 294 293 293 292 290 290 291 290 290 290 290 290 291 290 290 290 290 290 290 291 292 294 295 296 295 295 294 293 293 294 294

ECMWFNIL_925_thetae_108.txt.gz
Theta_e
326 324 322 320 318 317 315 313 312 311 311 311 311 310 310 310 308 307 307 306 305 305 303 302 301 299 297 297 296 295 295 294 293 293 292 292 292 292 292 292 292 292
324 323 321 319 317 315 313 312 310 310 310 310 310 309 309 309 308 307 306 305 304 304 303 301 300 298 296 295 295 294 294 293 293 292 292 292 292 292 291 291 291 291
323 322 320 318 316 314 311 310 309 309 309 309 309 308 308 308 308 306 305 304 304 303 302 301 299 297 295 295 294 294 293 293 293 293 292 292 292 292 291 291 291 291
322 321 319 317 315 313 310 309 308 308 309 308 307 307 307 307 307 306 304 304 303 302 301 301 299 296 294 295 295 294 294 293 293 293 293 292 292 292 291 291 290 290
321 319 318 316 314 312 309 308 308 308 308 307 307 306 306 307 306 305 304 304 303 302 301 301 299 296 295 295 296 296 295 294 293 293 292 292 292 291 291 291 290 290
320 318 316 315 312 310 309 308 307 307 307 307 307 306 306 306 306 305 304 304 303 302 302 301 300 298 297 297 297 297 296 296 294 293 292 292 291 291 291 291 290 290
318 317 315 313 311 310 308 307 307 307 307 307 306 306 305 305 305 305 304 304 303 303 302 301 300 299 298 298 297 298 297 296 295 293 292 292 292 292 292 291 290 290
317 315 314 312 310 309 308 307 307 306 306 306 306 305 305 305 304 304 304 303 303 302 302 301 300 299 298 298 298 298 297 295 294 292 292 292 293 293 292 291 291 290
316 314 312 310 309 308 307 306 306 306 305 305 305 305 305 304 304 304 303 303 303 302 302 301 300 299 298 299 299 297 295 294 293 292 292 293 293 293 293 292 291 290
314 312 310 309 308 307 306 306 305 305 305 305 305 304 304 304 304 303 303 303 302 302 302 301 300 299 299 299 298 296 294 294 293 292 293 293 293 294 293 292 291 291
312 311 309 308 307 306 306 305 304 304 305 305 304 304 304 303 303 303 303 302 302 302 302 301 300 299 299 298 296 295 295 295 294 294 294 294 294 294 293 292 292 292
311 309 308 307 306 306 305 304 304 304 304 304 304 304 304 303 303 303 302 302 302 302 302 301 300 298 297 296 295 295 296 296 296 295 294 294 294 294 293 293 292 292
310 308 307 307 306 305 304 304 304 304 304 303 303 303 303 303 303 303 302 302 302 302 302 301 299 297 296 295 296 296 297 297 296 296 295 295 295 294 293 293 292 292
308 307 307 306 305 304 304 303 303 303 303 303 303 303 303 303 303 303 302 302 302 302 301 300 299 298 297 297 297 297 297 297 297 296 296 295 295 294 294 293 292 292
307 306 306 305 304 303 303 303 303 302 302 302 302 302 303 303 303 303 302 302 302 301 300 300 299 299 299 299 299 298 298 298 297 297 297 296 295 294 294 293 293 293
306 306 305 304 303 303 302 302 302 301 301 301 300 301 302 302 302 302 302 302 301 301 300 300 300 300 300 300 299 299 298 298 298 297 297 296 295 294 294 293 293 293
306 305 304 304 303 302 302 301 301 301 301 300 299 299 300 302 302 302 302 301 301 301 300 300 300 300 300 299 299 299 299 298 298 298 297 296 295 295 295 294 293 293
306 305 304 303 303 302 302 301 301 301 300 299 297 296 299 301 302 302 302 301 301 301 300 300 300 300 299 299 299 299 299 298 298 298 298 297 296 295 295 295 293 293
306 305 304 303 303 302 302 301 301 301 301 299 296 294 297 300 301 301 301 301 301 301 300 300 300 300 299 299 298 298 298 298 298 298 298 297 296 295 295 295 294 293
305 305 304 303 302 302 301 301 301 301 300 298 294 294 296 299 300 301 301 301 301 300 300 300 300 300 299 299 298 298 298 298 298 297 297 298 297 295 295 296 294 293
305 304 304 303 302 302 301 301 301 300 298 296 293 293 294 296 298 299 300 300 300 300 300 300 300 300 299 299 299 298 298 298 298 297 297 297 297 295 296 296 294 293
305 304 303 302 302 301 301 300 300 299 297 294 293 293 294 295 296 298 299 299 299 300 300 299 299 299 299 299 299 299 299 299 298 297 296 297 297 296 296 296 294 293
305 305 303 302 301 301 300 300 299 299 296 293 292 293 294 295 296 296 298 298 298 299 299 299 299 299 299 299 299 298 298 298 298 297 297 297 297 296 296 295 293 293
305 305 303 302 301 301 301 300 300 299 297 294 292 292 293 294 295 296 297 297 298 298 298 298 298 298 297 298 298 298 298 297 297 297 297 297 297 296 296 295 293 293
305 305 304 302 301 301 301 300 300 300 297 293 292 292 293 293 295 295 296 297 297 297 298 298 298 298 297 297 297 296 296 296 296 297 297 297 296 296 296 295 293 293
305 304 304 303 302 301 301 301 301 299 296 292 291 292 292 293 294 295 295 296 296 297 297 297 297 297 296 295 293 292 292 293 295 296 296 296 296 296 296 295 293 293

ECMWFNIL_925_thetae_111.txt.gz
Theta_e
327 326 325 324 323 321 319 317 315 313 312 312 312 311 310 309 308 307 306 304 303 302 300 299 298 296 295 294 294 293 293 293 293 292 292 292 292 292 292 292 292 293
327 326 324 323 322 319 317 315 314 313 312 312 312 311 309 309 308 307 305 304 302 301 299 298 297 295 294 294 293 293 293 292 292 292 292 292 292 292 292 291 291 292
327 325 324 323 321 318 315 314 312 312 312 311 311 310 309 308 307 306 305 303 302 300 298 297 296 295 294 293 293 293 293 292 292 292 292 291 291 291 291 291 291 291
326 324 323 322 320 317 315 313 311 311 311 311 310 310 309 307 306 305 304 302 301 299 297 296 295 294 293 293 293 293 293 293 292 292 291 291 291 291 291 291 291 292
325 323 322 320 318 316 314 312 311 311 311 310 309 309 308 307 305 304 303 302 300 298 295 295 294 294 293 293 293 294 294 293 292 292 292 292 291 291 291 292 292 293
323 322 320 318 316 315 313 311 310 311 310 309 308 308 308 306 305 304 303 301 300 297 295 294 294 294 293 293 294 294 294 293 292 292 292 292 291 291 292 293 293 294
322 320 317 316 315 314 312 311 310 310 310 308 307 308 307 306 305 304 302 301 300 297 295 295 296 295 295 294 294 294 293 293 293 294 293 293 292 292 292 294 294 294
320 318 316 315 314 313 311 310 310 310 309 307 307 307 307 306 305 304 303 302 300 298 297 297 297 297 296 296 295 293 292 293 294 294 294 294 293 293 293 294 294 294
318 316 315 314 313 311 310 310 310 309 308 307 306 306 306 306 305 304 303 302 301 300 298 298 298 298 297 297 296 294 294 294 295 295 295 294 294 294 294 294 295 295
317 315 314 313 312 311 310 309 309 308 307 307 306 306 305 305 305 304 303 302 301 300 299 299 299 298 297 296 295 295 295 295 296 296 295 295 294 294 294 295 295 295
316 315 313 313 312 310 309 309 308 307 306 306 306 305 305 305 304 304 303 302 301 301 300 299 299 298 297 295 295 295 296 296 296 296 296 295 294 294 295 295 295 295
315 314 312 312 311 309 309 309 308 306 306 306 306 305 305 304 304 303 303 302 302 301 300 299 300 299 297 296 296 296 296 297 297 297 296 295 295 294 295 295 295 295
314 313 312 311 310 309 309 308 307 306 305 305 305 305 304 304 304 303 303 302 302 301 300 299 299 298 297 297 297 296 297 297 297 297 296 295 295 295 295 295 295 295
313 312 311 311 309 308 308 307 306 305 305 305 304 304 304 304 303 303 303 302 302 301 300 299 298 298 297 297 297 297 297 297 297 297 296 296 295 295 295 295 295 295
312 311 310 310 308 307 307 306 305 305 305 304 304 304 304 303 303 303 302 302 302 301 301 299 297 296 296 297 298 298 298 298 297 297 297 297 296 295 295 295 295 295
311 310 309 308 307 306 306 305 304 304 304 304 304 303 303 303 303 302 302 302 302 301 301 298 296 295 297 298 298 298 298 297 298 297 297 297 296 296 295 295 295 295
309 309 308 307 306 306 305 304 304 304 304 304 304 303 303 303 303 302 302 302 302 301 300 298 296 296 298 298 298 298 298 298 298 297 297 297 297 296 296 295 295 295
308 308 307 306 305 305 304 304 304 304 303 303 303 303 303 303 303 302 302 302 302 301 300 299 298 298 299 299 299 298 298 298 298 298 297 297 297 297 296 296 295 295
308 307 306 305 305 304 304 304 303 303 303 303 302 302 303 303 302 302 302 302 301 301 300 299 300 300 300 299 299 299 298 298 298 298 298 298 297 297 297 296 295 295
307 306 305 304 304 303 303 303 303 302 302 301 301 301 302 302 302 302 302 302 301 300 300 300 300 300 300 299 299 299 299 298 298 299 298 298 297 297 297 296 295 294
306 305 305 304 303 303 303 302 302 301 301 300 299 300 301 301 302 302 302 301 301 301 300 300 300 300 299 299 299 298 298 298 298 298 298 299 298 297 297 296 294 293
305 305 304 303 302 302 301 301 301 301 300 299 298 297 299 301 302 302 302 301 301 301 300 300 300 300 299 299 298 298 298 298 298 297 297 298 297 296 297 296 293 293
305 305 304 303 302 301 301 301 301 301 300 299 297 295 297 299 301 301 301 301 301 300 300 300 300 300 299 299 298 298 298 298 299 298 297 298 297 296 296 296 293 293
305 305 304 303 302 301 301 301 301 301 300 299 297 295 295 297 300 301 301 301 301 300 300 300 300 300 299 299 299 299 298 298 299 298 297 297 297 296 296 296 294 293
306 305 304 303 302 302 302 301 301 301 300 299 297 294 293 295 298 299 300 300 300 300 300 300 300 299 299 299 299 299 298 298 298 298 297 297 297 297 296 296 294 293
305 305 305 304 303 302 302 302 301 301 300 298 295 293 293 294 296 298 298 299 299 299 299 299 299 299 299 298 298 298 298 297 298 298 298 297 297 297 296 296 295 294

ECMWFNIL_925_thetae_114.txt.gz
Theta_e
329 328 327 327 326 325 323 322 322 321 321 320 319 318 316 314 313 312 311 309 308 307 305 303 302 301 300 301 302 302 302 302 303 303 303 303 304 304 304 304 304 303
328 327 326 326 325 323 321 320 320 320 320 319 318 317 315 313 312 310 310 309 308 306 304 302 302 301 301 302 302 302 302 302 302 302 302 302 302 303 303 303 303 303
327 325 326 325 324 322 320 317 317 318 318 317 316 315 314 312 311 310 309 308 306 305 303 303 303 302 302 302 302 302 302 302 302 302 302 302 301 302 302 302 302 302
326 325 325 325 323 321 319 316 316 317 317 316 315 314 313 312 310 309 308 307 306 304 304 303 303 302 303 303 303 303 302 302 302 301 301 301 301 301 301 301 301 301
325 325 325 324 322 319 317 316 316 317 317 316 314 313 312 311 310 308 307 306 305 304 303 303 302 302 302 303 303 303 302 302 301 301 301 301 301 301 301 301 301 301
325 324 324 323 320 317 316 316 316 317 316 315 314 313 312 311 309 308 307 305 304 303 303 302 302 302 302 303 302 302 302 301 301 300 301 301 300 300 300 300 300 301
325 323 322 322 319 317 316 316 316 316 316 314 313 312 311 310 309 307 306 305 303 303 302 302 302 302 302 302 302 302 302 301 300 300 300 300 300 300 300 300 299 300
325 323 322 321 318 316 315 315 315 316 315 313 313 312 311 310 309 307 306 304 303 302 302 302 302 302 302 302 302 302 301 301 300 300 299 300 300 300 300 300 299 299
323 322 322 320 317 316 315 315 315 315 314 313 312 311 311 310 309 307 306 304 303 303 302 302 302 302 302 301 301 301 301 301 300 300 299 299 299 299 299 300 300 300
322 322 321 318 316 316 315 315 315 314 313 312 311 311 310 310 308 307 306 305 304 303 303 303 303 303 302 301 301 301 301 300 300 299 299 299 299 299 300 300 300 300
322 320 319 317 317 317 315 315 315 314 312 311 311 311 310 309 308 307 306 306 305 304 303 303 303 303 302 301 300 301 300 300 299 299 299 299 299 299 299 300 300 300
320 319 317 317 317 316 314 315 314 313 312 311 310 310 310 309 308 308 307 306 305 304 304 304 303 302 302 301 300 301 301 300 300 299 299 299 299 299 300 300 300 300
319 318 318 317 316 315 314 314 314 313 311 310 310 310 309 309 308 308 307 306 305 305 304 304 303 302 301 301 301 301 301 301 300 300 299 299 299 299 299 299 300 301
319 318 317 315 315 314 313 314 314 313 311 310 309 309 309 309 308 307 307 306 305 305 304 304 302 301 301 301 301 301 301 301 301 300 300 299 299 299 299 299 300 300
319 318 316 314 314 313 313 313 313 312 310 309 309 309 309 308 308 307 307 306 306 305 304 304 302 301 301 301 301 302 302 302 301 301 300 300 299 299 299 299 299 299
317 316 315 314 313 312 313 313 312 311 310 309 309 309 308 308 308 307 307 306 306 305 305 304 303 302 301 301 301 302 302 302 302 301 301 300 300 300 299 299 299 298
316 315 314 313 312 312 312 312 312 311 309 308 308 308 308 308 307 307 307 306 305 305 305 304 303 302 301 300 301 301 302 302 302 301 301 301 300 300 300 299 299 299
315 314 313 312 311 311 311 311 311 310 308 308 308 308 308 307 307 307 306 306 305 305 305 304 303 302 299 299 300 300 301 302 302 302 302 301 301 300 300 299 299 299
313 313 312 311 311 310 310 310 309 308 308 308 308 308 307 307 307 307 306 306 306 305 305 304 303 300 297 297 299 299 300 302 302 302 302 301 301 300 300 300 299 299
312 312 311 310 310 309 309 309 309 308 308 308 308 308 307 307 307 307 307 306 306 305 305 304 303 299 297 298 299 298 299 301 302 302 302 301 301 300 300 300 299 299
312 311 310 310 309 308 308 308 308 308 308 308 308 307 307 307 307 307 307 306 306 305 304 304 304 300 298 298 299 298 298 299 302 303 302 302 301 300 301 300 298 299
311 310 309 309 308 307 308 308 308 308 308 307 307 307 306 307 306 306 306 306 306 305 304 305 304 301 299 299 299 299 298 298 301 303 302 302 302 301 301 300 298 299
310 309 308 307 307 307 307 307 307 308 307 307 306 306 306 306 306 306 306 305 305 305 305 305 304 301 300 300 299 299 299 299 302 303 302 302 302 301 301 300 299 299
309 309 308 307 306 306 306 306 306 306 306 305 305 305 305 305 305 305 305 305 305 305 304 305 303 301 300 300 299 298 298 300 302 302 302 302 302 301 301 301 299 296
309 308 308 306 306 306 305 305 305 305 304 303 303 303 303 303 304 304 305 304 304 304 304 304 303 301 299 299 299 298 298 300 302 302 302 302 302 301 301 300 299 295
309 309 308 307 305 305 305 304 304 303 303 302 301 301 302 302 302 303 303 303 303 304 303 303 303 301 299 299 299 298 298 300 302 302 301 301 301 301 300 300 300 297

ECMWFNIL_925_thetae_120.txt.gz
Theta_e
336 334 333 333 333 331 330 330 329 328 327 326 325 324 324 322 320 319 318 316 314 312 311 310 309 309 309 309 309 308 308 309 309 310 309 309 309 309 309 309 308 308
335 334 334 333 332 331 330 329 329 329 327 326 325 324 323 321 319 318 317 314 313 311 310 309 309 309 309 308 308 307 307 307 307 308 308 308 309 309 308 308 308 308
335 334 334 333 332 331 330 329 328 328 327 325 324 323 322 320 319 317 315 313 311 310 309 308 308 309 308 307 306 306 306 306 307 307 308 308 308 308 308 307 307 307
335 334 334 333 332 331 331 329 328 327 326 325 324 323 321 319 317 316 314 312 310 309 308 308 308 308 307 307 306 306 307 307 307 307 307 307 307 307 307 307 306 306
335 334 334 332 332 331 330 329 327 326 325 324 323 322 320 318 316 315 312 310 309 309 308 308 308 307 308 307 307 307 307 306 307 307 306 306 306 306 306 306 306 306
334 334 333 332 331 330 328 327 327 326 325 324 322 321 319 317 316 314 312 310 309 309 308 308 308 308 308 307 306 306 307 307 307 306 306 306 306 306 307 306 306 306
334 333 333 331 330 328 327 327 326 325 324 323 321 319 318 316 315 313 311 310 309 309 308 308 308 308 307 307 307 307 307 307 306 306 306 306 306 306 306 306 306 306
333 333 332 331 329 328 327 326 325 324 322 321 320 318 317 315 313 312 310 309 308 308 308 308 308 307 307 307 307 306 306 306 306 305 305 305 305 305 305 305 305 305
333 333 331 329 328 327 326 325 324 323 321 320 319 317 316 314 312 311 309 308 308 308 308 308 307 307 308 307 306 306 306 305 305 305 305 305 305 305 305 305 305 305
333 332 330 328 327 326 326 325 323 322 321 320 318 317 315 313 311 310 308 307 307 307 307 307 307 307 308 307 306 305 306 305 305 305 305 305 304 305 305 305 305 305
332 331 329 327 326 325 325 324 322 321 320 319 318 316 314 312 310 309 308 307 307 307 307 307 307 307 307 306 306 306 305 305 305 305 304 304 304 305 305 305 305 305
331 329 328 327 326 325 324 323 322 321 319 319 317 315 314 311 310 308 308 307 307 307 307 307 307 306 306 306 306 305 305 304 304 304 304 304 304 304 305 305 305 305
330 328 327 326 325 324 324 322 321 320 319 318 317 315 313 311 309 308 307 307 306 306 307 307 306 306 306 305 305 305 304 304 304 304 304 304 304 304 305 305 305 304
329 328 326 325 324 324 323 322 321 320 319 317 316 314 313 310 309 308 307 307 307 307 307 306 305 305 305 305 305 304 304 304 304 304 304 304 304 304 305 305 304 303
328 327 326 324 323 323 323 322 321 320 318 316 315 314 312 310 309 309 308 307 307 307 307 306 305 305 305 305 305 304 304 304 304 304 304 304 304 304 304 304 303 302
328 327 325 324 323 323 323 322 321 319 317 316 315 314 312 311 310 309 308 308 307 308 307 306 306 305 305 305 305 304 304 304 304 304 304 304 304 304 304 303 302 300
327 326 325 324 324 323 323 321 320 319 317 315 315 314 312 311 311 310 309 308 308 308 307 306 306 305 305 305 305 305 304 304 303 303 303 303 303 304 303 301 299 296
326 325 324 324 323 323 323 321 320 318 316 315 315 314 313 312 311 310 310 309 308 308 307 307 306 305 304 305 305 305 304 304 303 303 303 303 303 304 303 300 299 297
326 325 324 324 323 323 323 321 319 318 316 315 315 314 313 312 311 310 310 309 309 308 307 306 306 305 304 304 305 305 304 304 304 304 303 303 303 303 303 302 301 301
326 325 324 324 323 322 323 321 319 318 316 314 314 313 313 312 311 310 310 310 309 309 308 307 306 304 304 304 304 305 305 305 305 304 304 304 303 303 302 302 302 302
326 325 324 323 322 322 323 321 319 318 316 314 314 313 312 313 312 311 311 310 309 309 308 307 305 304 303 303 304 304 305 305 305 304 304 304 304 303 303 302 303 303
326 325 324 323 322 322 323 321 319 318 315 313 313 313 312 312 312 311 311 310 310 310 309 307 305 304 303 303 303 304 305 306 306 305 305 305 304 304 304 303 303 303
326 325 324 322 321 321 322 321 319 317 315 313 313 313 312 312 312 311 311 310 310 310 309 307 305 304 304 302 302 303 305 305 306 305 305 305 304 303 304 303 302 302
325 323 322 321 320 320 321 320 319 316 313 312 313 312 312 312 312 311 311 310 310 309 308 307 305 304 304 302 300 301 304 305 305 305 304 305 304 303 303 303 303 301
324 322 321 320 319 319 319 320 318 314 313 313 313 312 311 311 311 311 311 310 309 308 308 307 306 305 304 301 298 298 302 304 304 305 305 305 305 304 303 303 303 302
323 321 320 320 318 318 318 318 316 313 312 312 312 311 311 310 310 310 310 308 307 308 308 307 306 305 303 300 296 296 299 302 303 304 305 305 305 305 304 303 304 303

ECMWFNIL_925_thetae_123.txt.gz
Theta_e
337 336 334 333 333 331 331 330 329 328 326 325 324 323 322 321 320 320 318 317 315 312 311 310 310 310 310 310 310 311 311 311 311 310 309 309 309 308 308 308 308 307
336 335 334 333 332 332 331 330 329 327 326 325 324 323 322 321 319 318 317 316 314 311 310 310 309 309 309 309 309 309 310 309 309 309 308 308 308 307 307 307 306 306
336 334 333 332 332 331 331 330 328 327 326 325 324 323 321 320 319 318 316 315 312 310 309 309 309 309 308 308 307 307 308 308 307 307 307 307 306 306 306 306 306 306
336 334 333 333 332 331 330 329 328 327 326 325 324 322 320 319 318 317 316 313 310 309 309 309 308 308 307 306 306 306 306 306 306 306 305 306 306 306 306 305 305 304
335 334 333 333 332 331 329 329 328 327 326 325 323 322 320 319 318 316 314 312 310 309 309 308 308 307 306 305 304 305 305 306 305 304 304 305 305 305 305 304 303 303
335 334 333 333 331 330 329 329 328 327 325 324 323 321 320 319 317 315 312 310 309 308 308 308 307 306 305 305 304 304 305 305 305 304 304 304 305 304 304 303 303 304
335 334 334 333 331 330 329 329 327 326 325 324 322 321 320 318 316 314 311 309 308 308 308 307 307 306 306 305 304 304 304 304 304 304 304 304 305 305 305 305 305 305
335 334 333 332 331 330 330 328 326 325 324 323 322 321 319 317 315 313 310 308 308 308 307 307 307 306 305 304 304 304 305 304 304 303 304 305 305 305 305 305 305 305
334 334 333 332 331 329 328 327 326 324 324 323 322 320 318 317 315 313 310 308 308 308 308 307 307 306 305 304 304 304 305 305 305 304 304 305 305 305 305 304 304 304
334 333 332 331 330 328 327 326 325 324 323 322 321 319 317 316 314 312 309 308 308 308 307 307 307 306 306 305 304 304 305 305 305 304 304 305 304 304 305 304 303 303
334 333 331 330 329 327 326 326 325 324 322 321 320 318 316 315 313 311 309 308 308 307 307 307 307 307 307 305 304 305 305 305 304 304 304 304 304 304 304 303 303 303
333 332 330 329 327 327 326 325 324 323 321 320 319 317 315 314 312 310 308 308 308 307 307 307 307 307 306 305 305 305 305 304 304 304 304 304 304 305 304 304 304 304
332 330 329 328 327 326 325 324 324 322 320 319 318 317 315 313 311 309 308 308 307 307 307 307 307 307 305 304 305 305 304 304 304 304 304 304 305 305 304 304 304 304
331 330 328 328 326 325 325 324 323 321 319 318 317 316 314 312 310 309 307 307 307 307 307 307 307 306 305 305 305 305 304 304 304 304 304 304 305 305 305 305 304 304
330 329 327 327 326 325 324 324 322 320 319 318 317 316 314 311 310 308 307 307 307 307 307 307 306 306 305 305 305 304 304 304 304 304 304 304 304 304 304 304 304 304
329 328 327 326 325 325 324 323 321 319 318 318 317 315 313 311 309 308 307 307 307 307 307 306 306 306 305 305 304 304 304 304 304 304 303 304 304 304 304 304 303 303
329 328 326 325 325 324 323 322 321 319 318 317 316 315 312 310 309 308 307 307 306 306 306 306 305 306 305 305 304 304 304 304 304 304 304 304 304 304 304 303 303 302
328 327 326 325 325 324 323 321 320 319 318 317 316 314 312 310 309 308 307 307 307 307 306 305 305 305 305 305 304 304 303 303 303 304 304 303 304 304 303 303 302 300
327 326 325 325 324 323 322 321 320 318 317 317 316 314 312 310 309 308 308 307 307 307 306 305 305 305 305 305 304 303 303 303 304 304 303 303 304 304 303 303 300 295
327 326 325 324 324 323 322 320 319 318 317 316 315 314 312 310 309 308 308 307 307 307 306 306 305 305 305 305 304 303 303 303 303 303 303 303 303 303 303 302 298 295
327 326 325 324 324 323 322 320 318 317 316 316 315 314 312 311 310 309 309 308 308 307 307 306 305 305 305 305 304 304 303 303 303 303 303 303 303 303 303 301 300 299
326 325 325 324 324 323 321 320 318 317 316 316 315 314 313 311 310 310 309 308 308 307 307 306 305 305 304 304 305 304 303 303 303 303 303 303 303 303 303 302 301 301
326 325 324 324 323 323 321 319 318 317 316 315 315 314 313 312 311 310 310 309 308 307 307 306 305 304 304 304 305 304 303 303 304 303 303 304 303 303 302 302 301 302
326 325 324 323 323 322 321 319 319 317 315 315 315 314 313 312 311 311 310 309 308 308 307 306 305 305 304 304 304 303 303 304 305 304 304 304 304 303 303 302 302 303
326 325 324 323 323 322 321 319 319 317 315 315 314 313 313 312 312 311 310 310 309 308 308 307 307 306 305 304 303 302 303 305 305 305 305 304 304 304 304 303 303 303
326 325 324 323 323 322 321 320 318 316 315 314 314 313 313 312 312 311 311 310 309 309 309 308 307 306 305 304 303 302 303 305 305 305 305 305 304 304 303 303 303 302